Wetterdaten: Mittwoch, 18.07.2018
Datum Zeit Temp. A. Feuchte A. Luftdruck Regen Wind Richtung Richtung Sonnenschein ET UV Solar Taupunkt Windchill Windböen
18.07.2018 00:00 13,7 °C 85 % 1015,3 hPa 0,0 mm 0,0 km/h (0 Bft) S-SW 212 ° 0 min 0,000 mm 0,0 UV-I 0 W/m² 11,2 °C 13,7 °C 0,0 km/h (0 Bft)
18.07.2018 00:01 13,7 °C 85 % 1015,4 hPa 0,0 mm 0,0 km/h (0 Bft) S-SW 212 ° 0 min 0,000 mm 0,0 UV-I 0 W/m² 11,2 °C 13,7 °C 0,0 km/h (0 Bft)
18.07.2018 00:02 13,6 °C 86 % 1015,4 hPa 0,0 mm 0,0 km/h (0 Bft) S-SW 212 ° 0 min 0,000 mm 0,0 UV-I 0 W/m² 11,3 °C 13,6 °C 0,0 km/h (0 Bft)
18.07.2018 00:03 13,6 °C 86 % 1015,4 hPa 0,0 mm 0,0 km/h (0 Bft) S-SW 212 ° 0 min 0,000 mm 0,0 UV-I 0 W/m² 11,3 °C 13,6 °C 0,0 km/h (0 Bft)
18.07.2018 00:04 13,5 °C 86 % 1015,4 hPa 0,0 mm 0,0 km/h (0 Bft) S-SW 212 ° 0 min 0,000 mm 0,0 UV-I 0 W/m² 11,2 °C 13,5 °C 0,0 km/h (0 Bft)
18.07.2018 00:05 13,5 °C 87 % 1015,3 hPa 0,0 mm 0,0 km/h (0 Bft) S-SW 212 ° 0 min 0,000 mm 0,0 UV-I 0 W/m² 11,4 °C 13,5 °C 0,0 km/h (0 Bft)
18.07.2018 00:06 13,5 °C 87 % 1015,4 hPa 0,0 mm 0,0 km/h (0 Bft) S-SW 212 ° 0 min 0,000 mm 0,0 UV-I 0 W/m² 11,4 °C 13,5 °C 0,0 km/h (0 Bft)
18.07.2018 00:07 13,5 °C 86 % 1015,4 hPa 0,0 mm 0,0 km/h (0 Bft) S-SW 212 ° 0 min 0,000 mm 0,0 UV-I 0 W/m² 11,2 °C 13,5 °C 0,0 km/h (0 Bft)
18.07.2018 00:08 13,4 °C 86 % 1015,4 hPa 0,0 mm 0,0 km/h (0 Bft) S-SW 212 ° 0 min 0,000 mm 0,0 UV-I 0 W/m² 11,1 °C 13,4 °C 0,0 km/h (0 Bft)
18.07.2018 00:09 13,4 °C 86 % 1015,4 hPa 0,0 mm 0,0 km/h (0 Bft) S-SW 212 ° 0 min 0,000 mm 0,0 UV-I 0 W/m² 11,1 °C 13,4 °C 0,0 km/h (0 Bft)
18.07.2018 00:10 13,3 °C 87 % 1015,4 hPa 0,0 mm 0,0 km/h (0 Bft) S-SW 212 ° 0 min 0,000 mm 0,0 UV-I 0 W/m² 11,2 °C 13,3 °C 0,0 km/h (0 Bft)
18.07.2018 00:11 13,3 °C 87 % 1015,4 hPa 0,0 mm 0,0 km/h (0 Bft) S-SW 212 ° 0 min 0,000 mm 0,0 UV-I 0 W/m² 11,2 °C 13,3 °C 0,0 km/h (0 Bft)
18.07.2018 00:12 13,3 °C 87 % 1015,3 hPa 0,0 mm 0,9 km/h (0 Bft) S-SW 212 ° 0 min 0,000 mm 0,0 UV-I 0 W/m² 11,2 °C 13,3 °C 3,2 km/h (1 Bft)
18.07.2018 00:13 13,3 °C 87 % 1015,3 hPa 0,0 mm 0,0 km/h (0 Bft) S-SW 212 ° 0 min 0,000 mm 0,0 UV-I 0 W/m² 11,2 °C 13,3 °C 0,0 km/h (0 Bft)
18.07.2018 00:14 13,3 °C 87 % 1015,3 hPa 0,0 mm 0,5 km/h (0 Bft) S-SW 212 ° 0 min 0,000 mm 0,0 UV-I 0 W/m² 11,2 °C 13,3 °C 3,2 km/h (1 Bft)
18.07.2018 00:15 13,2 °C 87 % 1015,4 hPa 0,0 mm 0,6 km/h (0 Bft) S-SW 212 ° 0 min 0,000 mm 0,0 UV-I 0 W/m² 11,1 °C 13,2 °C 1,6 km/h (1 Bft)
18.07.2018 00:16 13,2 °C 87 % 1015,4 hPa 0,0 mm 0,0 km/h (0 Bft) S-SW 212 ° 0 min 0,000 mm 0,0 UV-I 0 W/m² 11,1 °C 13,2 °C 0,0 km/h (0 Bft)
18.07.2018 00:17 13,2 °C 88 % 1015,4 hPa 0,0 mm 0,1 km/h (0 Bft) S-SW 212 ° 0 min 0,000 mm 0,0 UV-I 0 W/m² 11,3 °C 13,2 °C 1,6 km/h (1 Bft)
18.07.2018 00:18 13,2 °C 88 % 1015,4 hPa 0,0 mm 0,5 km/h (0 Bft) S-SW 212 ° 0 min 0,000 mm 0,0 UV-I 0 W/m² 11,3 °C 13,2 °C 3,2 km/h (1 Bft)
18.07.2018 00:19 13,3 °C 88 % 1015,4 hPa 0,0 mm 0,0 km/h (0 Bft) S-SW 212 ° 0 min 0,000 mm 0,0 UV-I 0 W/m² 11,4 °C 13,3 °C 0,0 km/h (0 Bft)
18.07.2018 00:20 13,3 °C 87 % 1015,4 hPa 0,0 mm 0,0 km/h (0 Bft) S-SW 212 ° 0 min 0,000 mm 0,0 UV-I 0 W/m² 11,2 °C 13,3 °C 0,0 km/h (0 Bft)
18.07.2018 00:21 13,3 °C 86 % 1015,4 hPa 0,0 mm 0,0 km/h (0 Bft) S-SW 212 ° 0 min 0,000 mm 0,0 UV-I 0 W/m² 11,0 °C 13,3 °C 0,0 km/h (0 Bft)
18.07.2018 00:22 13,3 °C 86 % 1015,4 hPa 0,0 mm 0,0 km/h (0 Bft) S-SW 212 ° 0 min 0,000 mm 0,0 UV-I 0 W/m² 11,0 °C 13,3 °C 0,0 km/h (0 Bft)
18.07.2018 00:23 13,3 °C 86 % 1015,4 hPa 0,0 mm 0,0 km/h (0 Bft) S-SW 212 ° 0 min 0,000 mm 0,0 UV-I 0 W/m² 11,0 °C 13,3 °C 0,0 km/h (0 Bft)
18.07.2018 00:24 13,2 °C 86 % 1015,4 hPa 0,0 mm 0,0 km/h (0 Bft) S-SW 212 ° 0 min 0,000 mm 0,0 UV-I 0 W/m² 10,9 °C 13,2 °C 0,0 km/h (0 Bft)
18.07.2018 00:25 13,2 °C 86 % 1015,4 hPa 0,0 mm 0,1 km/h (0 Bft) S-SW 212 ° 0 min 0,000 mm 0,0 UV-I 0 W/m² 10,9 °C 13,2 °C 1,6 km/h (1 Bft)
18.07.2018 00:26 13,2 °C 86 % 1015,4 hPa 0,0 mm 0,1 km/h (0 Bft) S-SW 212 ° 0 min 0,000 mm 0,0 UV-I 0 W/m² 10,9 °C 13,2 °C 1,6 km/h (1 Bft)
18.07.2018 00:27 13,2 °C 86 % 1015,4 hPa 0,0 mm 0,1 km/h (0 Bft) S-SW 212 ° 0 min 0,000 mm 0,0 UV-I 0 W/m² 10,9 °C 13,2 °C 1,6 km/h (1 Bft)
18.07.2018 00:28 13,2 °C 87 % 1015,4 hPa 0,0 mm 0,6 km/h (0 Bft) S-SW 212 ° 0 min 0,000 mm 0,0 UV-I 0 W/m² 11,1 °C 13,2 °C 1,6 km/h (1 Bft)
18.07.2018 00:29 13,4 °C 86 % 1015,4 hPa 0,0 mm 1,9 km/h (1 Bft) S-SW 200 ° 0 min 0,000 mm 0,0 UV-I 0 W/m² 11,1 °C 13,4 °C 6,4 km/h (2 Bft)
18.07.2018 00:30 13,7 °C 84 % 1015,4 hPa 0,0 mm 2,4 km/h (1 Bft) S 189 ° 0 min 0,000 mm 0,0 UV-I 0 W/m² 11,0 °C 13,7 °C 8,0 km/h (2 Bft)
18.07.2018 00:31 13,8 °C 83 % 1015,4 hPa 0,0 mm 1,3 km/h (1 Bft) S-SW 193 ° 0 min 0,000 mm 0,0 UV-I 0 W/m² 11,0 °C 13,8 °C 3,2 km/h (1 Bft)
18.07.2018 00:32 14,1 °C 82 % 1015,4 hPa 0,0 mm 0,1 km/h (0 Bft) S-SW 193 ° 0 min 0,000 mm 0,0 UV-I 0 W/m² 11,1 °C 14,1 °C 1,6 km/h (1 Bft)
18.07.2018 00:33 14,2 °C 81 % 1015,4 hPa 0,0 mm 0,1 km/h (0 Bft) S-SW 193 ° 0 min 0,000 mm 0,0 UV-I 0 W/m² 11,0 °C 14,2 °C 1,6 km/h (1 Bft)
18.07.2018 00:34 14,4 °C 80 % 1015,4 hPa 0,0 mm 0,3 km/h (0 Bft) S-SW 193 ° 0 min 0,000 mm 0,0 UV-I 0 W/m² 11,0 °C 14,4 °C 1,6 km/h (1 Bft)
18.07.2018 00:35 14,5 °C 80 % 1015,4 hPa 0,0 mm 0,0 km/h (0 Bft) S-SW 193 ° 0 min 0,000 mm 0,0 UV-I 0 W/m² 11,1 °C 14,5 °C 0,0 km/h (0 Bft)
18.07.2018 00:36 14,5 °C 80 % 1015,4 hPa 0,0 mm 1,1 km/h (1 Bft) S-SW 196 ° 0 min 0,000 mm 0,0 UV-I 0 W/m² 11,1 °C 14,5 °C 3,2 km/h (1 Bft)
18.07.2018 00:37 14,3 °C 81 % 1015,4 hPa 0,0 mm 0,0 km/h (0 Bft) S-SW 196 ° 0 min 0,000 mm 0,0 UV-I 0 W/m² 11,1 °C 14,3 °C 0,0 km/h (0 Bft)
18.07.2018 00:38 14,2 °C 81 % 1015,4 hPa 0,0 mm 1,2 km/h (1 Bft) S-SW 196 ° 0 min 0,000 mm 0,0 UV-I 0 W/m² 11,0 °C 14,2 °C 1,6 km/h (1 Bft)
18.07.2018 00:39 14,0 °C 82 % 1015,4 hPa 0,0 mm 0,2 km/h (0 Bft) S-SW 196 ° 0 min 0,000 mm 0,0 UV-I 0 W/m² 11,0 °C 14,0 °C 1,6 km/h (1 Bft)
18.07.2018 00:40 13,9 °C 83 % 1015,4 hPa 0,0 mm 0,0 km/h (0 Bft) S-SW 196 ° 0 min 0,000 mm 0,0 UV-I 0 W/m² 11,1 °C 13,9 °C 0,0 km/h (0 Bft)
18.07.2018 00:41 13,8 °C 83 % 1015,4 hPa 0,0 mm 0,0 km/h (0 Bft) S-SW 196 ° 0 min 0,000 mm 0,0 UV-I 0 W/m² 11,0 °C 13,8 °C 0,0 km/h (0 Bft)
18.07.2018 00:42 13,7 °C 84 % 1015,4 hPa 0,0 mm 0,0 km/h (0 Bft) S-SW 196 ° 0 min 0,000 mm 0,0 UV-I 0 W/m² 11,0 °C 13,7 °C 0,0 km/h (0 Bft)
18.07.2018 00:43 13,5 °C 84 % 1015,4 hPa 0,0 mm 0,5 km/h (0 Bft) S-SW 196 ° 0 min 0,000 mm 0,0 UV-I 0 W/m² 10,8 °C 13,5 °C 1,6 km/h (1 Bft)
18.07.2018 00:44 13,4 °C 85 % 1015,4 hPa 0,0 mm 0,2 km/h (0 Bft) S-SW 196 ° 0 min 0,000 mm 0,0 UV-I 0 W/m² 10,9 °C 13,4 °C 1,6 km/h (1 Bft)
18.07.2018 00:45 13,3 °C 85 % 1015,4 hPa 0,0 mm 0,0 km/h (0 Bft) S-SW 196 ° 0 min 0,000 mm 0,0 UV-I 0 W/m² 10,8 °C 13,3 °C 0,0 km/h (0 Bft)
18.07.2018 00:46 13,3 °C 85 % 1015,4 hPa 0,0 mm 0,7 km/h (0 Bft) S-SW 196 ° 0 min 0,000 mm 0,0 UV-I 0 W/m² 10,8 °C 13,3 °C 1,6 km/h (1 Bft)
18.07.2018 00:47 13,2 °C 85 % 1015,4 hPa 0,0 mm 0,0 km/h (0 Bft) S-SW 196 ° 0 min 0,000 mm 0,0 UV-I 0 W/m² 10,7 °C 13,2 °C 0,0 km/h (0 Bft)
18.07.2018 00:48 13,1 °C 86 % 1015,4 hPa 0,0 mm 0,0 km/h (0 Bft) S-SW 196 ° 0 min 0,000 mm 0,0 UV-I 0 W/m² 10,8 °C 13,1 °C 0,0 km/h (0 Bft)
18.07.2018 00:49 13,0 °C 86 % 1015,5 hPa 0,0 mm 0,0 km/h (0 Bft) S-SW 196 ° 0 min 0,000 mm 0,0 UV-I 0 W/m² 10,7 °C 13,0 °C 0,0 km/h (0 Bft)
18.07.2018 00:50 13,0 °C 87 % 1015,5 hPa 0,0 mm 0,1 km/h (0 Bft) S-SW 196 ° 0 min 0,000 mm 0,0 UV-I 0 W/m² 10,9 °C 13,0 °C 1,6 km/h (1 Bft)
18.07.2018 00:51 12,9 °C 87 % 1015,5 hPa 0,0 mm 0,0 km/h (0 Bft) S-SW 196 ° 0 min 0,000 mm 0,0 UV-I 0 W/m² 10,8 °C 12,9 °C 0,0 km/h (0 Bft)
18.07.2018 00:52 12,9 °C 86 % 1015,5 hPa 0,0 mm 0,0 km/h (0 Bft) S-SW 196 ° 0 min 0,000 mm 0,0 UV-I 0 W/m² 10,6 °C 12,9 °C 0,0 km/h (0 Bft)
18.07.2018 00:53 12,8 °C 87 % 1015,5 hPa 0,0 mm 0,0 km/h (0 Bft) S-SW 196 ° 0 min 0,000 mm 0,0 UV-I 0 W/m² 10,7 °C 12,8 °C 0,0 km/h (0 Bft)
18.07.2018 00:54 12,8 °C 87 % 1015,5 hPa 0,0 mm 0,0 km/h (0 Bft) S-SW 196 ° 0 min 0,000 mm 0,0 UV-I 0 W/m² 10,7 °C 12,8 °C 0,0 km/h (0 Bft)
18.07.2018 00:55 12,9 °C 87 % 1015,5 hPa 0,0 mm 0,0 km/h (0 Bft) S-SW 196 ° 0 min 0,000 mm 0,0 UV-I 0 W/m² 10,8 °C 12,9 °C 0,0 km/h (0 Bft)
18.07.2018 00:56 13,2 °C 86 % 1015,5 hPa 0,0 mm 2,3 km/h (1 Bft) SW 221 ° 0 min 0,000 mm 0,0 UV-I 0 W/m² 10,9 °C 13,2 °C 6,4 km/h (2 Bft)
18.07.2018 00:57 13,4 °C 85 % 1015,4 hPa 0,0 mm 1,5 km/h (1 Bft) SW 221 ° 0 min 0,000 mm 0,0 UV-I 0 W/m² 10,9 °C 13,4 °C 4,8 km/h (1 Bft)
18.07.2018 00:58 13,6 °C 84 % 1015,5 hPa 0,0 mm 0,1 km/h (0 Bft) SW 221 ° 0 min 0,000 mm 0,0 UV-I 0 W/m² 10,9 °C 13,6 °C 1,6 km/h (1 Bft)
18.07.2018 00:59 13,8 °C 82 % 1015,5 hPa 0,0 mm 0,0 km/h (0 Bft) SW 221 ° 0 min 0,000 mm 0,0 UV-I 0 W/m² 10,8 °C 13,8 °C 0,0 km/h (0 Bft)
18.07.2018 01:00 14,1 °C 81 % 1015,5 hPa 0,0 mm 2,6 km/h (1 Bft) S 173 ° 0 min 0,000 mm 0,0 UV-I 0 W/m² 10,9 °C 14,1 °C 9,7 km/h (2 Bft)
18.07.2018 01:01 14,3 °C 80 % 1015,5 hPa 0,0 mm 2,1 km/h (1 Bft) S 175 ° 0 min 0,000 mm 0,0 UV-I 0 W/m² 10,9 °C 14,3 °C 4,8 km/h (1 Bft)
18.07.2018 01:02 14,6 °C 80 % 1015,5 hPa 0,0 mm 0,7 km/h (0 Bft) S 175 ° 0 min 0,000 mm 0,0 UV-I 0 W/m² 11,2 °C 14,6 °C 3,2 km/h (1 Bft)
18.07.2018 01:03 14,8 °C 79 % 1015,5 hPa 0,0 mm 0,1 km/h (0 Bft) S 175 ° 0 min 0,000 mm 0,0 UV-I 0 W/m² 11,2 °C 14,8 °C 1,6 km/h (1 Bft)
18.07.2018 01:04 14,9 °C 78 % 1015,5 hPa 0,0 mm 2,5 km/h (1 Bft) S 171 ° 0 min 0,000 mm 0,0 UV-I 0 W/m² 11,1 °C 14,9 °C 6,4 km/h (2 Bft)
18.07.2018 01:05 15,0 °C 77 % 1015,4 hPa 0,0 mm 1,3 km/h (1 Bft) W 273 ° 0 min 0,000 mm 0,0 UV-I 0 W/m² 11,0 °C 15,0 °C 4,8 km/h (1 Bft)
18.07.2018 01:06 15,1 °C 77 % 1015,5 hPa 0,0 mm 0,0 km/h (0 Bft) W-SW 249 ° 0 min 0,000 mm 0,0 UV-I 0 W/m² 11,1 °C 15,1 °C 0,0 km/h (0 Bft)
18.07.2018 01:07 15,2 °C 76 % 1015,5 hPa 0,0 mm 3,6 km/h (1 Bft) S-SW 200 ° 0 min 0,000 mm 0,0 UV-I 0 W/m² 11,0 °C 15,2 °C 6,4 km/h (2 Bft)
18.07.2018 01:08 15,3 °C 76 % 1015,4 hPa 0,0 mm 1,6 km/h (1 Bft) S-SW 200 ° 0 min 0,000 mm 0,0 UV-I 0 W/m² 11,1 °C 15,3 °C 3,2 km/h (1 Bft)
18.07.2018 01:09 15,3 °C 76 % 1015,4 hPa 0,0 mm 0,2 km/h (0 Bft) S-SW 200 ° 0 min 0,000 mm 0,0 UV-I 0 W/m² 11,1 °C 15,3 °C 1,6 km/h (1 Bft)
18.07.2018 01:10 15,4 °C 76 % 1015,4 hPa 0,0 mm 1,9 km/h (1 Bft) S-SW 208 ° 0 min 0,000 mm 0,0 UV-I 0 W/m² 11,2 °C 15,4 °C 4,8 km/h (1 Bft)
18.07.2018 01:11 15,4 °C 77 % 1015,4 hPa 0,0 mm 0,1 km/h (0 Bft) S-SW 208 ° 0 min 0,000 mm 0,0 UV-I 0 W/m² 11,4 °C 15,4 °C 1,6 km/h (1 Bft)
18.07.2018 01:12 15,4 °C 75 % 1015,4 hPa 0,0 mm 0,6 km/h (0 Bft) S 171 ° 0 min 0,000 mm 0,0 UV-I 0 W/m² 11,0 °C 15,4 °C 3,2 km/h (1 Bft)
18.07.2018 01:13 15,6 °C 75 % 1015,3 hPa 0,0 mm 1,9 km/h (1 Bft) S 174 ° 0 min 0,000 mm 0,0 UV-I 0 W/m² 11,2 °C 15,6 °C 4,8 km/h (1 Bft)
18.07.2018 01:14 15,6 °C 75 % 1015,3 hPa 0,0 mm 2,6 km/h (1 Bft) S-SW 197 ° 0 min 0,000 mm 0,0 UV-I 0 W/m² 11,2 °C 15,6 °C 6,4 km/h (2 Bft)
18.07.2018 01:15 15,7 °C 75 % 1015,3 hPa 0,0 mm 1,9 km/h (1 Bft) S-SW 196 ° 0 min 0,000 mm 0,0 UV-I 0 W/m² 11,3 °C 15,7 °C 4,8 km/h (1 Bft)
18.07.2018 01:16 15,7 °C 75 % 1015,3 hPa 0,0 mm 0,0 km/h (0 Bft) S-SW 196 ° 0 min 0,000 mm 0,0 UV-I 0 W/m² 11,3 °C 15,7 °C 0,0 km/h (0 Bft)
18.07.2018 01:17 15,7 °C 74 % 1015,3 hPa 0,0 mm 0,0 km/h (0 Bft) S-SW 196 ° 0 min 0,000 mm 0,0 UV-I 0 W/m² 11,1 °C 15,7 °C 0,0 km/h (0 Bft)
18.07.2018 01:18 15,7 °C 74 % 1015,3 hPa 0,0 mm 0,7 km/h (0 Bft) S-SW 196 ° 0 min 0,000 mm 0,0 UV-I 0 W/m² 11,1 °C 15,7 °C 3,2 km/h (1 Bft)
18.07.2018 01:19 15,7 °C 75 % 1015,3 hPa 0,0 mm 2,3 km/h (1 Bft) S-SW 206 ° 0 min 0,000 mm 0,0 UV-I 0 W/m² 11,3 °C 15,7 °C 6,4 km/h (2 Bft)
18.07.2018 01:20 15,6 °C 76 % 1015,3 hPa 0,0 mm 0,9 km/h (0 Bft) S-SW 206 ° 0 min 0,000 mm 0,0 UV-I 0 W/m² 11,4 °C 15,6 °C 1,6 km/h (1 Bft)
18.07.2018 01:21 15,6 °C 75 % 1015,3 hPa 0,0 mm 0,5 km/h (0 Bft) S-SW 206 ° 0 min 0,000 mm 0,0 UV-I 0 W/m² 11,2 °C 15,6 °C 3,2 km/h (1 Bft)
18.07.2018 01:22 15,5 °C 75 % 1015,3 hPa 0,0 mm 0,9 km/h (0 Bft) S-SW 206 ° 0 min 0,000 mm 0,0 UV-I 0 W/m² 11,1 °C 15,5 °C 1,6 km/h (1 Bft)
18.07.2018 01:23 15,6 °C 75 % 1015,3 hPa 0,0 mm 0,4 km/h (0 Bft) S-SW 206 ° 0 min 0,000 mm 0,0 UV-I 0 W/m² 11,2 °C 15,6 °C 1,6 km/h (1 Bft)
18.07.2018 01:24 15,6 °C 75 % 1015,3 hPa 0,0 mm 0,5 km/h (0 Bft) S-SW 206 ° 0 min 0,000 mm 0,0 UV-I 0 W/m² 11,2 °C 15,6 °C 1,6 km/h (1 Bft)
18.07.2018 01:25 15,6 °C 75 % 1015,3 hPa 0,0 mm 0,6 km/h (0 Bft) W-SW 248 ° 0 min 0,000 mm 0,0 UV-I 0 W/m² 11,2 °C 15,6 °C 3,2 km/h (1 Bft)
18.07.2018 01:26 15,7 °C 75 % 1015,3 hPa 0,0 mm 3,0 km/h (1 Bft) S-SW 196 ° 0 min 0,000 mm 0,0 UV-I 0 W/m² 11,3 °C 15,7 °C 6,4 km/h (2 Bft)
18.07.2018 01:27 15,6 °C 75 % 1015,3 hPa 0,0 mm 0,0 km/h (0 Bft) S-SW 196 ° 0 min 0,000 mm 0,0 UV-I 0 W/m² 11,2 °C 15,6 °C 0,0 km/h (0 Bft)
18.07.2018 01:28 15,7 °C 75 % 1015,3 hPa 0,0 mm 0,0 km/h (0 Bft) S-SW 196 ° 0 min 0,000 mm 0,0 UV-I 0 W/m² 11,3 °C 15,7 °C 0,0 km/h (0 Bft)
18.07.2018 01:29 15,7 °C 75 % 1015,3 hPa 0,0 mm 0,2 km/h (0 Bft) S-SW 196 ° 0 min 0,000 mm 0,0 UV-I 0 W/m² 11,3 °C 15,7 °C 1,6 km/h (1 Bft)
18.07.2018 01:30 15,6 °C 75 % 1015,3 hPa 0,0 mm 1,5 km/h (1 Bft) SW 217 ° 0 min 0,000 mm 0,0 UV-I 0 W/m² 11,2 °C 15,6 °C 3,2 km/h (1 Bft)
18.07.2018 01:31 15,6 °C 75 % 1015,3 hPa 0,0 mm 1,1 km/h (1 Bft) SW 236 ° 0 min 0,000 mm 0,0 UV-I 0 W/m² 11,2 °C 15,6 °C 3,2 km/h (1 Bft)
18.07.2018 01:32 15,6 °C 75 % 1015,3 hPa 0,0 mm 0,9 km/h (0 Bft) SW 234 ° 0 min 0,000 mm 0,0 UV-I 0 W/m² 11,2 °C 15,6 °C 1,6 km/h (1 Bft)
18.07.2018 01:33 15,6 °C 75 % 1015,3 hPa 0,0 mm 0,3 km/h (0 Bft) SW 234 ° 0 min 0,000 mm 0,0 UV-I 0 W/m² 11,2 °C 15,6 °C 1,6 km/h (1 Bft)
18.07.2018 01:34 15,6 °C 74 % 1015,3 hPa 0,0 mm 0,7 km/h (0 Bft) SW 230 ° 0 min 0,000 mm 0,0 UV-I 0 W/m² 11,0 °C 15,6 °C 3,2 km/h (1 Bft)
18.07.2018 01:35 15,6 °C 75 % 1015,3 hPa 0,0 mm 1,3 km/h (1 Bft) SW 230 ° 0 min 0,000 mm 0,0 UV-I 0 W/m² 11,2 °C 15,6 °C 3,2 km/h (1 Bft)
18.07.2018 01:36 15,6 °C 75 % 1015,3 hPa 0,0 mm 1,9 km/h (1 Bft) SW 230 ° 0 min 0,000 mm 0,0 UV-I 0 W/m² 11,2 °C 15,6 °C 3,2 km/h (1 Bft)
18.07.2018 01:37 15,6 °C 75 % 1015,3 hPa 0,0 mm 0,7 km/h (0 Bft) SW 230 ° 0 min 0,000 mm 0,0 UV-I 0 W/m² 11,2 °C 15,6 °C 1,6 km/h (1 Bft)
18.07.2018 01:38 15,4 °C 75 % 1015,2 hPa 0,0 mm 0,8 km/h (0 Bft) SW 230 ° 0 min 0,000 mm 0,0 UV-I 0 W/m² 11,0 °C 15,4 °C 3,2 km/h (1 Bft)
18.07.2018 01:39 15,4 °C 76 % 1015,3 hPa 0,0 mm 0,9 km/h (0 Bft) SW 230 ° 0 min 0,000 mm 0,0 UV-I 0 W/m² 11,2 °C 15,4 °C 3,2 km/h (1 Bft)
18.07.2018 01:40 15,3 °C 76 % 1015,3 hPa 0,0 mm 0,1 km/h (0 Bft) SW 230 ° 0 min 0,000 mm 0,0 UV-I 0 W/m² 11,1 °C 15,3 °C 1,6 km/h (1 Bft)
18.07.2018 01:41 15,2 °C 76 % 1015,3 hPa 0,0 mm 0,1 km/h (0 Bft) SW 230 ° 0 min 0,000 mm 0,0 UV-I 0 W/m² 11,0 °C 15,2 °C 1,6 km/h (1 Bft)
18.07.2018 01:42 15,2 °C 76 % 1015,4 hPa 0,0 mm 0,0 km/h (0 Bft) SW 230 ° 0 min 0,000 mm 0,0 UV-I 0 W/m² 11,0 °C 15,2 °C 0,0 km/h (0 Bft)
18.07.2018 01:43 15,1 °C 76 % 1015,3 hPa 0,0 mm 0,0 km/h (0 Bft) SW 230 ° 0 min 0,000 mm 0,0 UV-I 0 W/m² 10,9 °C 15,1 °C 0,0 km/h (0 Bft)
18.07.2018 01:44 15,1 °C 77 % 1015,4 hPa 0,0 mm 0,0 km/h (0 Bft) SW 230 ° 0 min 0,000 mm 0,0 UV-I 0 W/m² 11,1 °C 15,1 °C 0,0 km/h (0 Bft)
18.07.2018 01:45 15,0 °C 77 % 1015,4 hPa 0,0 mm 1,2 km/h (1 Bft) SW 230 ° 0 min 0,000 mm 0,0 UV-I 0 W/m² 11,0 °C 15,0 °C 3,2 km/h (1 Bft)
18.07.2018 01:46 15,0 °C 78 % 1015,3 hPa 0,0 mm 0,3 km/h (0 Bft) SW 230 ° 0 min 0,000 mm 0,0 UV-I 0 W/m² 11,2 °C 15,0 °C 1,6 km/h (1 Bft)
18.07.2018 01:47 14,9 °C 78 % 1015,4 hPa 0,0 mm 1,2 km/h (1 Bft) SW 230 ° 0 min 0,000 mm 0,0 UV-I 0 W/m² 11,1 °C 14,9 °C 3,2 km/h (1 Bft)
18.07.2018 01:48 14,9 °C 78 % 1015,4 hPa 0,0 mm 1,3 km/h (1 Bft) SW 230 ° 0 min 0,000 mm 0,0 UV-I 0 W/m² 11,1 °C 14,9 °C 4,8 km/h (1 Bft)
18.07.2018 01:49 14,8 °C 78 % 1015,4 hPa 0,0 mm 0,5 km/h (0 Bft) SW 230 ° 0 min 0,000 mm 0,0 UV-I 0 W/m² 11,0 °C 14,8 °C 3,2 km/h (1 Bft)
18.07.2018 01:50 14,8 °C 78 % 1015,4 hPa 0,0 mm 0,8 km/h (0 Bft) SW 230 ° 0 min 0,000 mm 0,0 UV-I 0 W/m² 11,0 °C 14,8 °C 3,2 km/h (1 Bft)
18.07.2018 01:51 14,8 °C 78 % 1015,4 hPa 0,0 mm 1,2 km/h (1 Bft) SW 230 ° 0 min 0,000 mm 0,0 UV-I 0 W/m² 11,0 °C 14,8 °C 3,2 km/h (1 Bft)
18.07.2018 01:52 14,8 °C 77 % 1015,4 hPa 0,0 mm 2,8 km/h (1 Bft) S-SW 201 ° 0 min 0,000 mm 0,0 UV-I 0 W/m² 10,8 °C 14,8 °C 6,4 km/h (2 Bft)
18.07.2018 01:53 14,8 °C 78 % 1015,4 hPa 0,0 mm 1,1 km/h (1 Bft) S-SW 201 ° 0 min 0,000 mm 0,0 UV-I 0 W/m² 11,0 °C 14,8 °C 3,2 km/h (1 Bft)
18.07.2018 01:54 14,9 °C 77 % 1015,4 hPa 0,0 mm 0,4 km/h (0 Bft) S-SW 200 ° 0 min 0,000 mm 0,0 UV-I 0 W/m² 10,9 °C 14,9 °C 1,6 km/h (1 Bft)
18.07.2018 01:55 14,8 °C 78 % 1015,4 hPa 0,0 mm 0,1 km/h (0 Bft) S-SW 201 ° 0 min 0,000 mm 0,0 UV-I 0 W/m² 11,0 °C 14,8 °C 1,6 km/h (1 Bft)
18.07.2018 01:56 14,8 °C 77 % 1015,5 hPa 0,0 mm 0,2 km/h (0 Bft) S-SW 200 ° 0 min 0,000 mm 0,0 UV-I 0 W/m² 10,8 °C 14,8 °C 3,2 km/h (1 Bft)
18.07.2018 01:57 14,9 °C 77 % 1015,4 hPa 0,0 mm 1,5 km/h (1 Bft) S-SW 200 ° 0 min 0,000 mm 0,0 UV-I 0 W/m² 10,9 °C 14,9 °C 4,8 km/h (1 Bft)
18.07.2018 01:58 14,9 °C 77 % 1015,4 hPa 0,0 mm 0,7 km/h (0 Bft) S-SW 200 ° 0 min 0,000 mm 0,0 UV-I 0 W/m² 10,9 °C 14,9 °C 3,2 km/h (1 Bft)
18.07.2018 01:59 15,0 °C 77 % 1015,5 hPa 0,0 mm 1,5 km/h (1 Bft) S-SW 196 ° 0 min 0,000 mm 0,0 UV-I 0 W/m² 11,0 °C 15,0 °C 4,8 km/h (1 Bft)
18.07.2018 02:00 15,1 °C 76 % 1015,4 hPa 0,0 mm 2,9 km/h (1 Bft) S-SW 195 ° 0 min 0,025 mm 0,0 UV-I 0 W/m² 10,9 °C 15,1 °C 6,4 km/h (2 Bft)
18.07.2018 02:01 15,2 °C 76 % 1015,5 hPa 0,0 mm 1,9 km/h (1 Bft) W-SW 242 ° 0 min 0,000 mm 0,0 UV-I 0 W/m² 11,0 °C 15,2 °C 3,2 km/h (1 Bft)
18.07.2018 02:02 15,3 °C 75 % 1015,5 hPa 0,0 mm 4,0 km/h (1 Bft) S 190 ° 0 min 0,000 mm 0,0 UV-I 0 W/m² 10,9 °C 15,3 °C 6,4 km/h (2 Bft)
18.07.2018 02:03 15,4 °C 75 % 1015,5 hPa 0,0 mm 3,9 km/h (1 Bft) S 181 ° 0 min 0,000 mm 0,0 UV-I 0 W/m² 11,0 °C 15,4 °C 6,4 km/h (2 Bft)
18.07.2018 02:04 15,4 °C 75 % 1015,4 hPa 0,0 mm 2,5 km/h (1 Bft) S-SW 195 ° 0 min 0,000 mm 0,0 UV-I 0 W/m² 11,0 °C 15,4 °C 6,4 km/h (2 Bft)
18.07.2018 02:05 15,6 °C 74 % 1015,4 hPa 0,0 mm 1,1 km/h (1 Bft) S-SW 210 ° 0 min 0,000 mm 0,0 UV-I 0 W/m² 11,0 °C 15,6 °C 3,2 km/h (1 Bft)
18.07.2018 02:06 15,6 °C 74 % 1015,4 hPa 0,0 mm 2,5 km/h (1 Bft) S 189 ° 0 min 0,000 mm 0,0 UV-I 0 W/m² 11,0 °C 15,6 °C 4,8 km/h (1 Bft)
18.07.2018 02:07 15,6 °C 75 % 1015,4 hPa 0,0 mm 2,2 km/h (1 Bft) S-SW 195 ° 0 min 0,000 mm 0,0 UV-I 0 W/m² 11,2 °C 15,6 °C 6,4 km/h (2 Bft)
18.07.2018 02:08 15,6 °C 75 % 1015,4 hPa 0,0 mm 2,2 km/h (1 Bft) S-SW 192 ° 0 min 0,000 mm 0,0 UV-I 0 W/m² 11,2 °C 15,6 °C 4,8 km/h (1 Bft)
18.07.2018 02:09 15,4 °C 75 % 1015,4 hPa 0,0 mm 0,9 km/h (0 Bft) S-SW 192 ° 0 min 0,000 mm 0,0 UV-I 0 W/m² 11,0 °C 15,4 °C 1,6 km/h (1 Bft)
18.07.2018 02:10 15,4 °C 75 % 1015,4 hPa 0,0 mm 2,4 km/h (1 Bft) S-SW 192 ° 0 min 0,000 mm 0,0 UV-I 0 W/m² 11,0 °C 15,4 °C 4,8 km/h (1 Bft)
18.07.2018 02:11 15,4 °C 76 % 1015,4 hPa 0,0 mm 0,8 km/h (0 Bft) S-SW 192 ° 0 min 0,000 mm 0,0 UV-I 0 W/m² 11,2 °C 15,4 °C 3,2 km/h (1 Bft)
18.07.2018 02:12 15,3 °C 76 % 1015,4 hPa 0,0 mm 0,5 km/h (0 Bft) S-SW 192 ° 0 min 0,000 mm 0,0 UV-I 0 W/m² 11,1 °C 15,3 °C 1,6 km/h (1 Bft)
18.07.2018 02:13 15,2 °C 76 % 1015,4 hPa 0,0 mm 0,7 km/h (0 Bft) S-SW 192 ° 0 min 0,000 mm 0,0 UV-I 0 W/m² 11,0 °C 15,2 °C 3,2 km/h (1 Bft)
18.07.2018 02:14 15,1 °C 77 % 1015,3 hPa 0,0 mm 0,8 km/h (0 Bft) S-SW 192 ° 0 min 0,000 mm 0,0 UV-I 0 W/m² 11,1 °C 15,1 °C 1,6 km/h (1 Bft)
18.07.2018 02:15 15,1 °C 78 % 1015,3 hPa 0,0 mm 0,0 km/h (0 Bft) S-SW 192 ° 0 min 0,000 mm 0,0 UV-I 0 W/m² 11,3 °C 15,1 °C 0,0 km/h (0 Bft)
18.07.2018 02:16 14,9 °C 78 % 1015,4 hPa 0,0 mm 0,0 km/h (0 Bft) S-SW 192 ° 0 min 0,000 mm 0,0 UV-I 0 W/m² 11,1 °C 14,9 °C 0,0 km/h (0 Bft)
18.07.2018 02:17 14,9 °C 77 % 1015,4 hPa 0,0 mm 0,0 km/h (0 Bft) S-SW 192 ° 0 min 0,000 mm 0,0 UV-I 0 W/m² 10,9 °C 14,9 °C 0,0 km/h (0 Bft)
18.07.2018 02:18 14,9 °C 77 % 1015,3 hPa 0,0 mm 0,6 km/h (0 Bft) S-SW 192 ° 0 min 0,000 mm 0,0 UV-I 0 W/m² 10,9 °C 14,9 °C 3,2 km/h (1 Bft)
18.07.2018 02:19 14,9 °C 78 % 1015,3 hPa 0,0 mm 0,0 km/h (0 Bft) S-SW 192 ° 0 min 0,000 mm 0,0 UV-I 0 W/m² 11,1 °C 14,9 °C 0,0 km/h (0 Bft)
18.07.2018 02:20 14,8 °C 78 % 1015,3 hPa 0,0 mm 0,0 km/h (0 Bft) S-SW 192 ° 0 min 0,000 mm 0,0 UV-I 0 W/m² 11,0 °C 14,8 °C 0,0 km/h (0 Bft)
18.07.2018 02:21 14,8 °C 78 % 1015,3 hPa 0,0 mm 0,0 km/h (0 Bft) S-SW 192 ° 0 min 0,000 mm 0,0 UV-I 0 W/m² 11,0 °C 14,8 °C 0,0 km/h (0 Bft)
18.07.2018 02:22 14,8 °C 78 % 1015,3 hPa 0,0 mm 0,0 km/h (0 Bft) S-SW 192 ° 0 min 0,000 mm 0,0 UV-I 0 W/m² 11,0 °C 14,8 °C 0,0 km/h (0 Bft)
18.07.2018 02:23 14,8 °C 78 % 1015,3 hPa 0,0 mm 0,0 km/h (0 Bft) S-SW 192 ° 0 min 0,000 mm 0,0 UV-I 0 W/m² 11,0 °C 14,8 °C 0,0 km/h (0 Bft)
18.07.2018 02:24 14,8 °C 79 % 1015,3 hPa 0,0 mm 0,0 km/h (0 Bft) S-SW 192 ° 0 min 0,000 mm 0,0 UV-I 0 W/m² 11,2 °C 14,8 °C 0,0 km/h (0 Bft)
18.07.2018 02:25 14,7 °C 79 % 1015,3 hPa 0,0 mm 0,0 km/h (0 Bft) S-SW 192 ° 0 min 0,000 mm 0,0 UV-I 0 W/m² 11,1 °C 14,7 °C 0,0 km/h (0 Bft)
18.07.2018 02:26 14,7 °C 79 % 1015,3 hPa 0,0 mm 0,0 km/h (0 Bft) S-SW 192 ° 0 min 0,000 mm 0,0 UV-I 0 W/m² 11,1 °C 14,7 °C 0,0 km/h (0 Bft)
18.07.2018 02:27 14,7 °C 79 % 1015,3 hPa 0,0 mm 0,0 km/h (0 Bft) S-SW 192 ° 0 min 0,000 mm 0,0 UV-I 0 W/m² 11,1 °C 14,7 °C 0,0 km/h (0 Bft)
18.07.2018 02:28 14,7 °C 79 % 1015,3 hPa 0,0 mm 0,0 km/h (0 Bft) S-SW 192 ° 0 min 0,000 mm 0,0 UV-I 0 W/m² 11,1 °C 14,7 °C 0,0 km/h (0 Bft)
18.07.2018 02:29 14,7 °C 79 % 1015,3 hPa 0,0 mm 0,0 km/h (0 Bft) S-SW 192 ° 0 min 0,000 mm 0,0 UV-I 0 W/m² 11,1 °C 14,7 °C 0,0 km/h (0 Bft)
18.07.2018 02:30 14,6 °C 79 % 1015,2 hPa 0,0 mm 0,0 km/h (0 Bft) S-SW 192 ° 0 min 0,000 mm 0,0 UV-I 0 W/m² 11,0 °C 14,6 °C 0,0 km/h (0 Bft)
18.07.2018 02:31 14,6 °C 80 % 1015,3 hPa 0,0 mm 0,0 km/h (0 Bft) S-SW 192 ° 0 min 0,000 mm 0,0 UV-I 0 W/m² 11,2 °C 14,6 °C 0,0 km/h (0 Bft)
18.07.2018 02:32 14,6 °C 80 % 1015,3 hPa 0,0 mm 0,0 km/h (0 Bft) S-SW 192 ° 0 min 0,000 mm 0,0 UV-I 0 W/m² 11,2 °C 14,6 °C 0,0 km/h (0 Bft)
18.07.2018 02:33 14,6 °C 80 % 1015,2 hPa 0,0 mm 0,0 km/h (0 Bft) S-SW 192 ° 0 min 0,000 mm 0,0 UV-I 0 W/m² 11,2 °C 14,6 °C 0,0 km/h (0 Bft)
18.07.2018 02:34 14,5 °C 80 % 1015,2 hPa 0,0 mm 0,0 km/h (0 Bft) S-SW 192 ° 0 min 0,000 mm 0,0 UV-I 0 W/m² 11,1 °C 14,5 °C 0,0 km/h (0 Bft)
18.07.2018 02:35 14,4 °C 80 % 1015,2 hPa 0,0 mm 0,0 km/h (0 Bft) S-SW 192 ° 0 min 0,000 mm 0,0 UV-I 0 W/m² 11,0 °C 14,4 °C 0,0 km/h (0 Bft)
18.07.2018 02:36 14,4 °C 80 % 1015,2 hPa 0,0 mm 0,0 km/h (0 Bft) S-SW 192 ° 0 min 0,000 mm 0,0 UV-I 0 W/m² 11,0 °C 14,4 °C 0,0 km/h (0 Bft)
18.07.2018 02:37 14,4 °C 80 % 1015,2 hPa 0,0 mm 0,0 km/h (0 Bft) S-SW 192 ° 0 min 0,000 mm 0,0 UV-I 0 W/m² 11,0 °C 14,4 °C 0,0 km/h (0 Bft)
18.07.2018 02:38 14,4 °C 80 % 1015,2 hPa 0,0 mm 0,0 km/h (0 Bft) S-SW 192 ° 0 min 0,000 mm 0,0 UV-I 0 W/m² 11,0 °C 14,4 °C 0,0 km/h (0 Bft)
18.07.2018 02:39 14,4 °C 80 % 1015,2 hPa 0,0 mm 0,0 km/h (0 Bft) S-SW 192 ° 0 min 0,000 mm 0,0 UV-I 0 W/m² 11,0 °C 14,4 °C 0,0 km/h (0 Bft)
18.07.2018 02:40 14,4 °C 80 % 1015,2 hPa 0,0 mm 0,0 km/h (0 Bft) S-SW 192 ° 0 min 0,000 mm 0,0 UV-I 0 W/m² 11,0 °C 14,4 °C 0,0 km/h (0 Bft)
18.07.2018 02:41 14,4 °C 80 % 1015,2 hPa 0,0 mm 0,0 km/h (0 Bft) S-SW 192 ° 0 min 0,000 mm 0,0 UV-I 0 W/m² 11,0 °C 14,4 °C 0,0 km/h (0 Bft)
18.07.2018 02:42 14,3 °C 81 % 1015,2 hPa 0,0 mm 0,0 km/h (0 Bft) S-SW 192 ° 0 min 0,000 mm 0,0 UV-I 0 W/m² 11,1 °C 14,3 °C 0,0 km/h (0 Bft)
18.07.2018 02:43 14,1 °C 81 % 1015,2 hPa 0,0 mm 0,0 km/h (0 Bft) S-SW 192 ° 0 min 0,000 mm 0,0 UV-I 0 W/m² 10,9 °C 14,1 °C 0,0 km/h (0 Bft)
18.07.2018 02:44 14,0 °C 82 % 1015,2 hPa 0,0 mm 0,0 km/h (0 Bft) S-SW 192 ° 0 min 0,000 mm 0,0 UV-I 0 W/m² 11,0 °C 14,0 °C 0,0 km/h (0 Bft)
18.07.2018 02:45 13,8 °C 82 % 1015,2 hPa 0,0 mm 0,0 km/h (0 Bft) S-SW 192 ° 0 min 0,000 mm 0,0 UV-I 0 W/m² 10,8 °C 13,8 °C 0,0 km/h (0 Bft)
18.07.2018 02:46 13,7 °C 83 % 1015,2 hPa 0,0 mm 0,0 km/h (0 Bft) S-SW 192 ° 0 min 0,000 mm 0,0 UV-I 0 W/m² 10,9 °C 13,7 °C 0,0 km/h (0 Bft)
18.07.2018 02:47 13,6 °C 83 % 1015,2 hPa 0,0 mm 0,0 km/h (0 Bft) S-SW 192 ° 0 min 0,000 mm 0,0 UV-I 0 W/m² 10,8 °C 13,6 °C 0,0 km/h (0 Bft)
18.07.2018 02:48 13,6 °C 83 % 1015,1 hPa 0,0 mm 0,0 km/h (0 Bft) S-SW 192 ° 0 min 0,000 mm 0,0 UV-I 0 W/m² 10,8 °C 13,6 °C 0,0 km/h (0 Bft)
18.07.2018 02:49 13,6 °C 84 % 1015,2 hPa 0,0 mm 0,0 km/h (0 Bft) S-SW 192 ° 0 min 0,000 mm 0,0 UV-I 0 W/m² 10,9 °C 13,6 °C 0,0 km/h (0 Bft)
18.07.2018 02:50 13,6 °C 84 % 1015,2 hPa 0,0 mm 0,0 km/h (0 Bft) S-SW 192 ° 0 min 0,000 mm 0,0 UV-I 0 W/m² 10,9 °C 13,6 °C 0,0 km/h (0 Bft)
18.07.2018 02:51 13,6 °C 84 % 1015,2 hPa 0,0 mm 0,0 km/h (0 Bft) S-SW 192 ° 0 min 0,000 mm 0,0 UV-I 0 W/m² 10,9 °C 13,6 °C 0,0 km/h (0 Bft)
18.07.2018 02:52 13,7 °C 84 % 1015,2 hPa 0,0 mm 0,0 km/h (0 Bft) S-SW 192 ° 0 min 0,000 mm 0,0 UV-I 0 W/m² 11,0 °C 13,7 °C 0,0 km/h (0 Bft)
18.07.2018 02:53 13,7 °C 85 % 1015,2 hPa 0,0 mm 0,0 km/h (0 Bft) S-SW 192 ° 0 min 0,000 mm 0,0 UV-I 0 W/m² 11,2 °C 13,7 °C 0,0 km/h (0 Bft)
18.07.2018 02:54 13,6 °C 85 % 1015,2 hPa 0,0 mm 0,0 km/h (0 Bft) S-SW 192 ° 0 min 0,000 mm 0,0 UV-I 0 W/m² 11,1 °C 13,6 °C 0,0 km/h (0 Bft)
18.07.2018 02:55 13,6 °C 85 % 1015,2 hPa 0,0 mm 0,0 km/h (0 Bft) S-SW 192 ° 0 min 0,000 mm 0,0 UV-I 0 W/m² 11,1 °C 13,6 °C 0,0 km/h (0 Bft)
18.07.2018 02:56 13,6 °C 85 % 1015,2 hPa 0,0 mm 0,0 km/h (0 Bft) S-SW 192 ° 0 min 0,000 mm 0,0 UV-I 0 W/m² 11,1 °C 13,6 °C 0,0 km/h (0 Bft)
18.07.2018 02:57 13,6 °C 85 % 1015,2 hPa 0,0 mm 0,0 km/h (0 Bft) S-SW 192 ° 0 min 0,000 mm 0,0 UV-I 0 W/m² 11,1 °C 13,6 °C 0,0 km/h (0 Bft)
18.07.2018 02:58 13,6 °C 85 % 1015,2 hPa 0,0 mm 0,0 km/h (0 Bft) S-SW 192 ° 0 min 0,000 mm 0,0 UV-I 0 W/m² 11,1 °C 13,6 °C 0,0 km/h (0 Bft)
18.07.2018 02:59 13,6 °C 85 % 1015,2 hPa 0,0 mm 0,0 km/h (0 Bft) S-SW 192 ° 0 min 0,000 mm 0,0 UV-I 0 W/m² 11,1 °C 13,6 °C 0,0 km/h (0 Bft)
18.07.2018 03:00 13,6 °C 85 % 1015,2 hPa 0,0 mm 0,0 km/h (0 Bft) S-SW 192 ° 0 min 0,000 mm 0,0 UV-I 0 W/m² 11,1 °C 13,6 °C 0,0 km/h (0 Bft)
18.07.2018 03:01 13,6 °C 85 % 1015,2 hPa 0,0 mm 0,0 km/h (0 Bft) S-SW 192 ° 0 min 0,026 mm 0,0 UV-I 0 W/m² 11,1 °C 13,6 °C 0,0 km/h (0 Bft)
18.07.2018 03:02 13,7 °C 85 % 1015,2 hPa 0,0 mm 0,0 km/h (0 Bft) S-SW 192 ° 0 min 0,000 mm 0,0 UV-I 0 W/m² 11,2 °C 13,7 °C 0,0 km/h (0 Bft)
18.07.2018 03:03 13,6 °C 85 % 1015,2 hPa 0,0 mm 0,0 km/h (0 Bft) S-SW 192 ° 0 min 0,000 mm 0,0 UV-I 0 W/m² 11,1 °C 13,6 °C 0,0 km/h (0 Bft)
18.07.2018 03:04 13,7 °C 86 % 1015,2 hPa 0,0 mm 0,0 km/h (0 Bft) S-SW 192 ° 0 min 0,000 mm 0,0 UV-I 0 W/m² 11,4 °C 13,7 °C 0,0 km/h (0 Bft)
18.07.2018 03:05 13,8 °C 86 % 1015,2 hPa 0,0 mm 0,0 km/h (0 Bft) S-SW 192 ° 0 min 0,000 mm 0,0 UV-I 0 W/m² 11,5 °C 13,8 °C 0,0 km/h (0 Bft)
18.07.2018 03:06 13,9 °C 85 % 1015,2 hPa 0,0 mm 0,0 km/h (0 Bft) S-SW 192 ° 0 min 0,000 mm 0,0 UV-I 0 W/m² 11,4 °C 13,9 °C 0,0 km/h (0 Bft)
18.07.2018 03:07 13,9 °C 85 % 1015,2 hPa 0,0 mm 0,0 km/h (0 Bft) S-SW 192 ° 0 min 0,000 mm 0,0 UV-I 0 W/m² 11,4 °C 13,9 °C 0,0 km/h (0 Bft)
18.07.2018 03:08 13,9 °C 85 % 1015,2 hPa 0,0 mm 0,0 km/h (0 Bft) S-SW 192 ° 0 min 0,000 mm 0,0 UV-I 0 W/m² 11,4 °C 13,9 °C 0,0 km/h (0 Bft)
18.07.2018 03:09 13,9 °C 86 % 1015,2 hPa 0,0 mm 0,0 km/h (0 Bft) S-SW 192 ° 0 min 0,000 mm 0,0 UV-I 0 W/m² 11,6 °C 13,9 °C 0,0 km/h (0 Bft)
18.07.2018 03:10 13,9 °C 86 % 1015,3 hPa 0,0 mm 0,0 km/h (0 Bft) S-SW 192 ° 0 min 0,000 mm 0,0 UV-I 0 W/m² 11,6 °C 13,9 °C 0,0 km/h (0 Bft)
18.07.2018 03:11 13,9 °C 85 % 1015,3 hPa 0,0 mm 0,0 km/h (0 Bft) S-SW 192 ° 0 min 0,000 mm 0,0 UV-I 0 W/m² 11,4 °C 13,9 °C 0,0 km/h (0 Bft)
18.07.2018 03:12 13,9 °C 85 % 1015,3 hPa 0,0 mm 0,0 km/h (0 Bft) S-SW 192 ° 0 min 0,000 mm 0,0 UV-I 0 W/m² 11,4 °C 13,9 °C 0,0 km/h (0 Bft)
18.07.2018 03:13 13,9 °C 85 % 1015,3 hPa 0,0 mm 0,0 km/h (0 Bft) S-SW 192 ° 0 min 0,000 mm 0,0 UV-I 0 W/m² 11,4 °C 13,9 °C 0,0 km/h (0 Bft)
18.07.2018 03:14 13,9 °C 86 % 1015,2 hPa 0,0 mm 0,0 km/h (0 Bft) S-SW 192 ° 0 min 0,000 mm 0,0 UV-I 0 W/m² 11,6 °C 13,9 °C 0,0 km/h (0 Bft)
18.07.2018 03:15 13,9 °C 86 % 1015,3 hPa 0,0 mm 0,0 km/h (0 Bft) S-SW 192 ° 0 min 0,000 mm 0,0 UV-I 0 W/m² 11,6 °C 13,9 °C 0,0 km/h (0 Bft)
18.07.2018 03:16 13,9 °C 86 % 1015,2 hPa 0,0 mm 0,0 km/h (0 Bft) S-SW 192 ° 0 min 0,000 mm 0,0 UV-I 0 W/m² 11,6 °C 13,9 °C 0,0 km/h (0 Bft)
18.07.2018 03:17 13,9 °C 86 % 1015,2 hPa 0,0 mm 0,0 km/h (0 Bft) S-SW 192 ° 0 min 0,000 mm 0,0 UV-I 0 W/m² 11,6 °C 13,9 °C 0,0 km/h (0 Bft)
18.07.2018 03:18 14,0 °C 85 % 1015,3 hPa 0,0 mm 0,0 km/h (0 Bft) S-SW 192 ° 0 min 0,000 mm 0,0 UV-I 0 W/m² 11,5 °C 14,0 °C 0,0 km/h (0 Bft)
18.07.2018 03:19 14,1 °C 85 % 1015,2 hPa 0,0 mm 0,0 km/h (0 Bft) S-SW 192 ° 0 min 0,000 mm 0,0 UV-I 0 W/m² 11,6 °C 14,1 °C 0,0 km/h (0 Bft)
18.07.2018 03:20 14,1 °C 85 % 1015,3 hPa 0,0 mm 0,0 km/h (0 Bft) S-SW 192 ° 0 min 0,000 mm 0,0 UV-I 0 W/m² 11,6 °C 14,1 °C 0,0 km/h (0 Bft)
18.07.2018 03:21 14,2 °C 85 % 1015,3 hPa 0,0 mm 0,0 km/h (0 Bft) S-SW 192 ° 0 min 0,000 mm 0,0 UV-I 0 W/m² 11,7 °C 14,2 °C 0,0 km/h (0 Bft)
18.07.2018 03:22 14,2 °C 85 % 1015,3 hPa 0,0 mm 0,0 km/h (0 Bft) S-SW 192 ° 0 min 0,000 mm 0,0 UV-I 0 W/m² 11,7 °C 14,2 °C 0,0 km/h (0 Bft)
18.07.2018 03:23 14,2 °C 85 % 1015,3 hPa 0,0 mm 0,0 km/h (0 Bft) S-SW 192 ° 0 min 0,000 mm 0,0 UV-I 0 W/m² 11,7 °C 14,2 °C 0,0 km/h (0 Bft)
18.07.2018 03:24 14,2 °C 85 % 1015,3 hPa 0,0 mm 0,0 km/h (0 Bft) S-SW 192 ° 0 min 0,000 mm 0,0 UV-I 0 W/m² 11,7 °C 14,2 °C 0,0 km/h (0 Bft)
18.07.2018 03:25 14,2 °C 84 % 1015,3 hPa 0,0 mm 0,0 km/h (0 Bft) S-SW 192 ° 0 min 0,000 mm 0,0 UV-I 0 W/m² 11,5 °C 14,2 °C 0,0 km/h (0 Bft)
18.07.2018 03:26 14,3 °C 85 % 1015,3 hPa 0,0 mm 0,0 km/h (0 Bft) S-SW 192 ° 0 min 0,000 mm 0,0 UV-I 0 W/m² 11,8 °C 14,3 °C 0,0 km/h (0 Bft)
18.07.2018 03:27 14,3 °C 85 % 1015,2 hPa 0,0 mm 0,0 km/h (0 Bft) S-SW 192 ° 0 min 0,000 mm 0,0 UV-I 0 W/m² 11,8 °C 14,3 °C 0,0 km/h (0 Bft)
18.07.2018 03:28 14,3 °C 85 % 1015,3 hPa 0,0 mm 0,0 km/h (0 Bft) S-SW 192 ° 0 min 0,000 mm 0,0 UV-I 0 W/m² 11,8 °C 14,3 °C 0,0 km/h (0 Bft)
18.07.2018 03:29 14,4 °C 84 % 1015,3 hPa 0,0 mm 0,5 km/h (0 Bft) S-SW 192 ° 0 min 0,000 mm 0,0 UV-I 0 W/m² 11,7 °C 14,4 °C 3,2 km/h (1 Bft)
18.07.2018 03:30 14,4 °C 84 % 1015,3 hPa 0,0 mm 0,0 km/h (0 Bft) S-SW 192 ° 0 min 0,000 mm 0,0 UV-I 0 W/m² 11,7 °C 14,4 °C 0,0 km/h (0 Bft)
18.07.2018 03:31 14,6 °C 83 % 1015,3 hPa 0,0 mm 0,3 km/h (0 Bft) S-SW 192 ° 0 min 0,000 mm 0,0 UV-I 0 W/m² 11,7 °C 14,6 °C 1,6 km/h (1 Bft)
18.07.2018 03:32 14,7 °C 82 % 1015,3 hPa 0,0 mm 0,9 km/h (0 Bft) S-SW 192 ° 0 min 0,000 mm 0,0 UV-I 0 W/m² 11,7 °C 14,7 °C 3,2 km/h (1 Bft)
18.07.2018 03:33 14,8 °C 81 % 1015,3 hPa 0,0 mm 2,0 km/h (1 Bft) S-SW 192 ° 0 min 0,000 mm 0,0 UV-I 0 W/m² 11,6 °C 14,8 °C 4,8 km/h (1 Bft)
18.07.2018 03:34 14,9 °C 81 % 1015,3 hPa 0,0 mm 1,7 km/h (1 Bft) S-SW 192 ° 0 min 0,000 mm 0,0 UV-I 0 W/m² 11,7 °C 14,9 °C 4,8 km/h (1 Bft)
18.07.2018 03:35 15,1 °C 81 % 1015,3 hPa 0,0 mm 2,1 km/h (1 Bft) S-SW 192 ° 0 min 0,000 mm 0,0 UV-I 0 W/m² 11,9 °C 15,1 °C 4,8 km/h (1 Bft)
18.07.2018 03:36 15,2 °C 80 % 1015,3 hPa 0,0 mm 0,0 km/h (0 Bft) S-SW 192 ° 0 min 0,000 mm 0,0 UV-I 0 W/m² 11,8 °C 15,2 °C 0,0 km/h (0 Bft)
18.07.2018 03:37 15,2 °C 80 % 1015,3 hPa 0,0 mm 0,3 km/h (0 Bft) S-SW 192 ° 0 min 0,000 mm 0,0 UV-I 0 W/m² 11,8 °C 15,2 °C 1,6 km/h (1 Bft)
18.07.2018 03:38 15,2 °C 79 % 1015,3 hPa 0,0 mm 1,3 km/h (1 Bft) S-SW 192 ° 0 min 0,000 mm 0,0 UV-I 0 W/m² 11,6 °C 15,2 °C 3,2 km/h (1 Bft)
18.07.2018 03:39 15,3 °C 79 % 1015,3 hPa 0,0 mm 3,4 km/h (1 Bft) S 185 ° 0 min 0,000 mm 0,0 UV-I 0 W/m² 11,7 °C 15,3 °C 8,0 km/h (2 Bft)
18.07.2018 03:40 15,4 °C 80 % 1015,3 hPa 0,0 mm 1,9 km/h (1 Bft) S-SW 212 ° 0 min 0,000 mm 0,0 UV-I 0 W/m² 12,0 °C 15,4 °C 3,2 km/h (1 Bft)
18.07.2018 03:41 15,4 °C 79 % 1015,3 hPa 0,0 mm 1,9 km/h (1 Bft) S-SW 205 ° 0 min 0,000 mm 0,0 UV-I 0 W/m² 11,8 °C 15,4 °C 4,8 km/h (1 Bft)
18.07.2018 03:42 15,5 °C 79 % 1015,3 hPa 0,0 mm 0,7 km/h (0 Bft) S-SW 205 ° 0 min 0,000 mm 0,0 UV-I 0 W/m² 11,9 °C 15,5 °C 1,6 km/h (1 Bft)
18.07.2018 03:43 15,6 °C 78 % 1015,3 hPa 0,0 mm 0,7 km/h (0 Bft) S-SW 205 ° 0 min 0,000 mm 0,0 UV-I 0 W/m² 11,8 °C 15,6 °C 3,2 km/h (1 Bft)
18.07.2018 03:44 15,6 °C 78 % 1015,2 hPa 0,0 mm 3,5 km/h (1 Bft) S-SW 205 ° 0 min 0,000 mm 0,0 UV-I 0 W/m² 11,8 °C 15,6 °C 6,4 km/h (2 Bft)
18.07.2018 03:45 15,7 °C 78 % 1015,2 hPa 0,0 mm 2,6 km/h (1 Bft) S-SW 205 ° 0 min 0,000 mm 0,0 UV-I 0 W/m² 11,9 °C 15,7 °C 4,8 km/h (1 Bft)
18.07.2018 03:46 15,7 °C 78 % 1015,2 hPa 0,0 mm 4,3 km/h (1 Bft) S-SW 204 ° 0 min 0,000 mm 0,0 UV-I 0 W/m² 11,9 °C 15,7 °C 9,7 km/h (2 Bft)
18.07.2018 03:47 15,8 °C 77 % 1015,2 hPa 0,0 mm 1,1 km/h (1 Bft) S-SW 201 ° 0 min 0,000 mm 0,0 UV-I 0 W/m² 11,8 °C 15,8 °C 4,8 km/h (1 Bft)
18.07.2018 03:48 15,8 °C 78 % 1015,3 hPa 0,0 mm 2,9 km/h (1 Bft) S 183 ° 0 min 0,000 mm 0,0 UV-I 0 W/m² 12,0 °C 15,8 °C 6,4 km/h (2 Bft)
18.07.2018 03:49 15,8 °C 78 % 1015,3 hPa 0,0 mm 1,3 km/h (1 Bft) S 183 ° 0 min 0,000 mm 0,0 UV-I 0 W/m² 12,0 °C 15,8 °C 1,6 km/h (1 Bft)
18.07.2018 03:50 15,8 °C 78 % 1015,2 hPa 0,0 mm 1,5 km/h (1 Bft) S 188 ° 0 min 0,000 mm 0,0 UV-I 0 W/m² 12,0 °C 15,8 °C 3,2 km/h (1 Bft)
18.07.2018 03:51 15,8 °C 78 % 1015,2 hPa 0,0 mm 1,6 km/h (1 Bft) S 188 ° 0 min 0,000 mm 0,0 UV-I 0 W/m² 12,0 °C 15,8 °C 6,4 km/h (2 Bft)
18.07.2018 03:52 15,8 °C 78 % 1015,2 hPa 0,0 mm 5,1 km/h (1 Bft) S-SW 193 ° 0 min 0,000 mm 0,0 UV-I 0 W/m² 12,0 °C 15,8 °C 8,0 km/h (2 Bft)
18.07.2018 03:53 15,8 °C 77 % 1015,2 hPa 0,0 mm 4,1 km/h (1 Bft) W 259 ° 0 min 0,000 mm 0,0 UV-I 0 W/m² 11,8 °C 15,8 °C 8,0 km/h (2 Bft)
18.07.2018 03:54 15,8 °C 77 % 1015,2 hPa 0,0 mm 3,7 km/h (1 Bft) S-SW 202 ° 0 min 0,000 mm 0,0 UV-I 0 W/m² 11,8 °C 15,8 °C 6,4 km/h (2 Bft)
18.07.2018 03:55 15,8 °C 78 % 1015,2 hPa 0,0 mm 1,5 km/h (1 Bft) S-SW 202 ° 0 min 0,000 mm 0,0 UV-I 0 W/m² 12,0 °C 15,8 °C 3,2 km/h (1 Bft)
18.07.2018 03:56 15,8 °C 78 % 1015,2 hPa 0,0 mm 3,0 km/h (1 Bft) S-SW 202 ° 0 min 0,000 mm 0,0 UV-I 0 W/m² 12,0 °C 15,8 °C 4,8 km/h (1 Bft)
18.07.2018 03:57 15,8 °C 78 % 1015,2 hPa 0,0 mm 0,1 km/h (0 Bft) S-SW 202 ° 0 min 0,000 mm 0,0 UV-I 0 W/m² 12,0 °C 15,8 °C 1,6 km/h (1 Bft)
18.07.2018 03:58 15,8 °C 78 % 1015,2 hPa 0,0 mm 0,0 km/h (0 Bft) S-SW 202 ° 0 min 0,000 mm 0,0 UV-I 0 W/m² 12,0 °C 15,8 °C 0,0 km/h (0 Bft)
18.07.2018 03:59 15,7 °C 78 % 1015,2 hPa 0,0 mm 4,0 km/h (1 Bft) S-SW 204 ° 0 min 0,000 mm 0,0 UV-I 0 W/m² 11,9 °C 15,7 °C 8,0 km/h (2 Bft)
18.07.2018 04:00 15,7 °C 78 % 1015,2 hPa 0,0 mm 1,5 km/h (1 Bft) S-SW 204 ° 0 min 0,000 mm 0,0 UV-I 0 W/m² 11,9 °C 15,7 °C 3,2 km/h (1 Bft)
18.07.2018 04:01 15,7 °C 78 % 1015,2 hPa 0,0 mm 0,4 km/h (0 Bft) S-SW 204 ° 0 min 0,025 mm 0,0 UV-I 0 W/m² 11,9 °C 15,7 °C 1,6 km/h (1 Bft)
18.07.2018 04:02 15,6 °C 78 % 1015,2 hPa 0,0 mm 1,8 km/h (1 Bft) S 178 ° 0 min 0,000 mm 0,0 UV-I 0 W/m² 11,8 °C 15,6 °C 3,2 km/h (1 Bft)
18.07.2018 04:03 15,6 °C 79 % 1015,1 hPa 0,0 mm 0,9 km/h (0 Bft) S 178 ° 0 min 0,000 mm 0,0 UV-I 0 W/m² 12,0 °C 15,6 °C 3,2 km/h (1 Bft)
18.07.2018 04:04 15,6 °C 79 % 1015,1 hPa 0,0 mm 3,2 km/h (1 Bft) SW 227 ° 0 min 0,000 mm 0,0 UV-I 0 W/m² 12,0 °C 15,6 °C 6,4 km/h (2 Bft)
18.07.2018 04:05 15,7 °C 78 % 1015,2 hPa 0,0 mm 0,4 km/h (0 Bft) S-SW 213 ° 0 min 0,000 mm 0,0 UV-I 0 W/m² 11,9 °C 15,7 °C 3,2 km/h (1 Bft)
18.07.2018 04:06 15,6 °C 79 % 1015,2 hPa 0,0 mm 0,0 km/h (0 Bft) S-SW 213 ° 0 min 0,000 mm 0,0 UV-I 0 W/m² 12,0 °C 15,6 °C 0,0 km/h (0 Bft)
18.07.2018 04:07 15,6 °C 80 % 1015,2 hPa 0,0 mm 0,0 km/h (0 Bft) S-SW 213 ° 0 min 0,000 mm 0,0 UV-I 0 W/m² 12,2 °C 15,6 °C 0,0 km/h (0 Bft)
18.07.2018 04:08 15,4 °C 80 % 1015,2 hPa 0,0 mm 0,0 km/h (0 Bft) S-SW 213 ° 0 min 0,000 mm 0,0 UV-I 0 W/m² 12,0 °C 15,4 °C 0,0 km/h (0 Bft)
18.07.2018 04:09 15,4 °C 80 % 1015,3 hPa 0,0 mm 0,0 km/h (0 Bft) S-SW 213 ° 0 min 0,000 mm 0,0 UV-I 0 W/m² 12,0 °C 15,4 °C 0,0 km/h (0 Bft)
18.07.2018 04:10 15,4 °C 79 % 1015,3 hPa 0,0 mm 0,0 km/h (0 Bft) S-SW 213 ° 0 min 0,000 mm 0,0 UV-I 0 W/m² 11,8 °C 15,4 °C 0,0 km/h (0 Bft)
18.07.2018 04:11 15,3 °C 80 % 1015,2 hPa 0,0 mm 0,0 km/h (0 Bft) S-SW 213 ° 0 min 0,000 mm 0,0 UV-I 0 W/m² 11,9 °C 15,3 °C 0,0 km/h (0 Bft)
18.07.2018 04:12 15,2 °C 80 % 1015,3 hPa 0,0 mm 0,0 km/h (0 Bft) S-SW 213 ° 0 min 0,000 mm 0,0 UV-I 0 W/m² 11,8 °C 15,2 °C 0,0 km/h (0 Bft)
18.07.2018 04:13 15,2 °C 81 % 1015,3 hPa 0,0 mm 0,0 km/h (0 Bft) S-SW 213 ° 0 min 0,000 mm 0,0 UV-I 0 W/m² 12,0 °C 15,2 °C 0,0 km/h (0 Bft)
18.07.2018 04:14 15,1 °C 81 % 1015,3 hPa 0,0 mm 0,0 km/h (0 Bft) S-SW 213 ° 0 min 0,000 mm 0,0 UV-I 0 W/m² 11,9 °C 15,1 °C 0,0 km/h (0 Bft)
18.07.2018 04:15 15,1 °C 81 % 1015,3 hPa 0,0 mm 0,0 km/h (0 Bft) S-SW 213 ° 0 min 0,000 mm 0,0 UV-I 0 W/m² 11,9 °C 15,1 °C 0,0 km/h (0 Bft)
18.07.2018 04:16 14,9 °C 82 % 1015,2 hPa 0,0 mm 0,0 km/h (0 Bft) S-SW 213 ° 0 min 0,000 mm 0,0 UV-I 0 W/m² 11,9 °C 14,9 °C 0,0 km/h (0 Bft)
18.07.2018 04:17 14,9 °C 82 % 1015,3 hPa 0,0 mm 0,0 km/h (0 Bft) S-SW 213 ° 0 min 0,000 mm 0,0 UV-I 0 W/m² 11,9 °C 14,9 °C 0,0 km/h (0 Bft)
18.07.2018 04:18 14,9 °C 81 % 1015,3 hPa 0,0 mm 0,5 km/h (0 Bft) S-SW 198 ° 0 min 0,000 mm 0,0 UV-I 0 W/m² 11,7 °C 14,9 °C 3,2 km/h (1 Bft)
18.07.2018 04:19 15,0 °C 80 % 1015,3 hPa 0,0 mm 0,2 km/h (0 Bft) S-SW 198 ° 0 min 0,000 mm 0,0 UV-I 0 W/m² 11,6 °C 15,0 °C 1,6 km/h (1 Bft)
18.07.2018 04:20 15,2 °C 80 % 1015,3 hPa 0,0 mm 0,0 km/h (0 Bft) S-SW 198 ° 0 min 0,000 mm 0,0 UV-I 0 W/m² 11,8 °C 15,2 °C 0,0 km/h (0 Bft)
18.07.2018 04:21 15,3 °C 79 % 1015,2 hPa 0,0 mm 1,4 km/h (1 Bft) S-SW 197 ° 0 min 0,000 mm 0,0 UV-I 0 W/m² 11,7 °C 15,3 °C 3,2 km/h (1 Bft)
18.07.2018 04:22 15,3 °C 80 % 1015,3 hPa 0,0 mm 0,1 km/h (0 Bft) S-SW 197 ° 0 min 0,000 mm 0,0 UV-I 0 W/m² 11,9 °C 15,3 °C 1,6 km/h (1 Bft)
18.07.2018 04:23 15,3 °C 80 % 1015,3 hPa 0,0 mm 0,3 km/h (0 Bft) S-SW 197 ° 0 min 0,000 mm 0,0 UV-I 0 W/m² 11,9 °C 15,3 °C 1,6 km/h (1 Bft)
18.07.2018 04:24 15,2 °C 81 % 1015,2 hPa 0,0 mm 0,4 km/h (0 Bft) S-SW 197 ° 0 min 0,000 mm 0,0 UV-I 0 W/m² 12,0 °C 15,2 °C 1,6 km/h (1 Bft)
18.07.2018 04:25 15,1 °C 81 % 1015,3 hPa 0,0 mm 0,7 km/h (0 Bft) S-SW 197 ° 0 min 0,000 mm 0,0 UV-I 0 W/m² 11,9 °C 15,1 °C 3,2 km/h (1 Bft)
18.07.2018 04:26 14,9 °C 81 % 1015,2 hPa 0,0 mm 2,0 km/h (1 Bft) S-SW 197 ° 0 min 0,000 mm 0,0 UV-I 0 W/m² 11,7 °C 14,9 °C 3,2 km/h (1 Bft)
18.07.2018 04:27 14,7 °C 82 % 1015,2 hPa 0,0 mm 0,0 km/h (0 Bft) S-SW 197 ° 0 min 0,000 mm 0,0 UV-I 0 W/m² 11,7 °C 14,7 °C 0,0 km/h (0 Bft)
18.07.2018 04:28 14,8 °C 81 % 1015,2 hPa 0,0 mm 0,8 km/h (0 Bft) S-SW 197 ° 0 min 0,000 mm 0,0 UV-I 0 W/m² 11,6 °C 14,8 °C 4,8 km/h (1 Bft)
18.07.2018 04:29 14,8 °C 81 % 1015,3 hPa 0,0 mm 1,0 km/h (0 Bft) S-SW 197 ° 0 min 0,000 mm 0,0 UV-I 0 W/m² 11,6 °C 14,8 °C 3,2 km/h (1 Bft)
18.07.2018 04:30 14,9 °C 80 % 1015,3 hPa 0,0 mm 3,8 km/h (1 Bft) S-SW 198 ° 0 min 0,000 mm 0,0 UV-I 0 W/m² 11,5 °C 14,9 °C 6,4 km/h (2 Bft)
18.07.2018 04:31 15,1 °C 80 % 1015,2 hPa 0,0 mm 4,8 km/h (1 Bft) S-SW 207 ° 0 min 0,000 mm 0,0 UV-I 0 W/m² 11,7 °C 15,1 °C 9,7 km/h (2 Bft)
18.07.2018 04:32 15,2 °C 79 % 1015,2 hPa 0,0 mm 0,7 km/h (0 Bft) S-SW 207 ° 0 min 0,000 mm 0,0 UV-I 0 W/m² 11,6 °C 15,2 °C 1,6 km/h (1 Bft)
18.07.2018 04:33 15,3 °C 79 % 1015,3 hPa 0,0 mm 2,5 km/h (1 Bft) S-SW 200 ° 0 min 0,000 mm 0,0 UV-I 0 W/m² 11,7 °C 15,3 °C 4,8 km/h (1 Bft)
18.07.2018 04:34 15,3 °C 78 % 1015,2 hPa 0,0 mm 5,2 km/h (1 Bft) S-SW 200 ° 0 min 0,000 mm 0,0 UV-I 0 W/m² 11,5 °C 15,3 °C 6,4 km/h (2 Bft)
18.07.2018 04:35 15,4 °C 78 % 1015,3 hPa 0,0 mm 5,7 km/h (1 Bft) SW 215 ° 0 min 0,000 mm 0,0 UV-I 0 W/m² 11,6 °C 15,4 °C 9,7 km/h (2 Bft)
18.07.2018 04:36 15,5 °C 78 % 1015,3 hPa 0,0 mm 4,4 km/h (1 Bft) S-SW 201 ° 0 min 0,000 mm 0,0 UV-I 0 W/m² 11,7 °C 15,5 °C 8,0 km/h (2 Bft)
18.07.2018 04:37 15,6 °C 77 % 1015,3 hPa 0,0 mm 6,9 km/h (2 Bft) S-SW 204 ° 0 min 0,000 mm 0,0 UV-I 0 W/m² 11,6 °C 15,6 °C 9,7 km/h (2 Bft)
18.07.2018 04:38 15,6 °C 77 % 1015,2 hPa 0,0 mm 7,6 km/h (2 Bft) S-SW 194 ° 0 min 0,000 mm 0,0 UV-I 0 W/m² 11,6 °C 15,6 °C 11,3 km/h (2 Bft)
18.07.2018 04:39 15,6 °C 77 % 1015,3 hPa 0,0 mm 6,0 km/h (2 Bft) S 186 ° 0 min 0,000 mm 0,0 UV-I 0 W/m² 11,6 °C 15,6 °C 9,7 km/h (2 Bft)
18.07.2018 04:40 15,5 °C 78 % 1015,3 hPa 0,0 mm 2,5 km/h (1 Bft) S 186 ° 0 min 0,000 mm 0,0 UV-I 0 W/m² 11,7 °C 15,5 °C 4,8 km/h (1 Bft)
18.07.2018 04:41 15,4 °C 78 % 1015,3 hPa 0,0 mm 3,0 km/h (1 Bft) S-SW 194 ° 0 min 0,000 mm 0,0 UV-I 0 W/m² 11,6 °C 15,4 °C 6,4 km/h (2 Bft)
18.07.2018 04:42 15,3 °C 79 % 1015,3 hPa 0,0 mm 6,7 km/h (2 Bft) S 186 ° 0 min 0,000 mm 0,0 UV-I 0 W/m² 11,7 °C 15,3 °C 11,3 km/h (2 Bft)
18.07.2018 04:43 15,2 °C 79 % 1015,3 hPa 0,0 mm 5,1 km/h (1 Bft) S-SO 165 ° 0 min 0,000 mm 0,0 UV-I 0 W/m² 11,6 °C 15,2 °C 8,0 km/h (2 Bft)
18.07.2018 04:44 15,2 °C 79 % 1015,3 hPa 0,0 mm 5,2 km/h (1 Bft) S 190 ° 0 min 0,000 mm 0,0 UV-I 0 W/m² 11,6 °C 15,2 °C 8,0 km/h (2 Bft)
18.07.2018 04:45 15,2 °C 79 % 1015,3 hPa 0,0 mm 4,8 km/h (1 Bft) S-SW 198 ° 0 min 0,000 mm 0,0 UV-I 0 W/m² 11,6 °C 15,2 °C 6,4 km/h (2 Bft)
18.07.2018 04:46 15,1 °C 79 % 1015,3 hPa 0,0 mm 4,8 km/h (1 Bft) S-SW 192 ° 0 min 0,000 mm 0,0 UV-I 0 W/m² 11,5 °C 15,1 °C 6,4 km/h (2 Bft)
18.07.2018 04:47 15,1 °C 80 % 1015,3 hPa 0,0 mm 6,0 km/h (2 Bft) S-SW 210 ° 0 min 0,000 mm 0,0 UV-I 0 W/m² 11,7 °C 15,1 °C 9,7 km/h (2 Bft)
18.07.2018 04:48 15,1 °C 80 % 1015,3 hPa 0,0 mm 7,1 km/h (2 Bft) S 184 ° 0 min 0,000 mm 0,0 UV-I 0 W/m² 11,7 °C 15,1 °C 11,3 km/h (2 Bft)
18.07.2018 04:49 15,0 °C 80 % 1015,3 hPa 0,0 mm 4,1 km/h (1 Bft) S 186 ° 0 min 0,000 mm 0,0 UV-I 0 W/m² 11,6 °C 15,0 °C 12,9 km/h (3 Bft)
18.07.2018 04:50 15,0 °C 80 % 1015,3 hPa 0,0 mm 9,3 km/h (2 Bft) S-SW 196 ° 0 min 0,000 mm 0,0 UV-I 0 W/m² 11,6 °C 15,0 °C 12,9 km/h (3 Bft)
18.07.2018 04:51 15,0 °C 80 % 1015,3 hPa 0,0 mm 6,9 km/h (2 Bft) S 178 ° 0 min 0,000 mm 0,0 UV-I 0 W/m² 11,6 °C 15,0 °C 8,0 km/h (2 Bft)
18.07.2018 04:52 15,1 °C 80 % 1015,3 hPa 0,0 mm 9,9 km/h (2 Bft) S-SW 198 ° 0 min 0,000 mm 0,0 UV-I 0 W/m² 11,7 °C 15,1 °C 16,1 km/h (3 Bft)
18.07.2018 04:53 15,1 °C 80 % 1015,3 hPa 0,0 mm 9,4 km/h (2 Bft) S-SO 163 ° 0 min 0,000 mm 0,0 UV-I 0 W/m² 11,7 °C 15,1 °C 12,9 km/h (3 Bft)
18.07.2018 04:54 15,2 °C 79 % 1015,3 hPa 0,0 mm 6,9 km/h (2 Bft) S 190 ° 0 min 0,000 mm 0,0 UV-I 0 W/m² 11,6 °C 15,2 °C 9,7 km/h (2 Bft)
18.07.2018 04:55 15,2 °C 79 % 1015,3 hPa 0,0 mm 6,1 km/h (2 Bft) SW 222 ° 0 min 0,000 mm 0,0 UV-I 0 W/m² 11,6 °C 15,2 °C 11,3 km/h (2 Bft)
18.07.2018 04:56 15,2 °C 79 % 1015,2 hPa 0,0 mm 6,9 km/h (2 Bft) S-SW 200 ° 0 min 0,000 mm 0,0 UV-I 0 W/m² 11,6 °C 15,2 °C 9,7 km/h (2 Bft)
18.07.2018 04:57 15,3 °C 79 % 1015,3 hPa 0,0 mm 7,6 km/h (2 Bft) S 189 ° 0 min 0,000 mm 0,0 UV-I 0 W/m² 11,7 °C 15,3 °C 11,3 km/h (2 Bft)
18.07.2018 04:58 15,3 °C 79 % 1015,3 hPa 0,0 mm 8,6 km/h (2 Bft) SW 215 ° 0 min 0,000 mm 0,0 UV-I 0 W/m² 11,7 °C 15,3 °C 11,3 km/h (2 Bft)
18.07.2018 04:59 15,4 °C 79 % 1015,3 hPa 0,0 mm 8,4 km/h (2 Bft) S-SW 209 ° 0 min 0,000 mm 0,0 UV-I 0 W/m² 11,8 °C 15,4 °C 11,3 km/h (2 Bft)
18.07.2018 05:00 15,4 °C 79 % 1015,3 hPa 0,0 mm 8,2 km/h (2 Bft) S-SW 209 ° 0 min 0,026 mm 0,0 UV-I 0 W/m² 11,8 °C 15,4 °C 11,3 km/h (2 Bft)
18.07.2018 05:01 15,4 °C 79 % 1015,3 hPa 0,0 mm 7,9 km/h (2 Bft) S-SW 197 ° 0 min 0,000 mm 0,0 UV-I 0 W/m² 11,8 °C 15,4 °C 12,9 km/h (3 Bft)
18.07.2018 05:02 15,4 °C 79 % 1015,2 hPa 0,0 mm 9,0 km/h (2 Bft) S 182 ° 0 min 0,000 mm 0,0 UV-I 0 W/m² 11,8 °C 15,4 °C 12,9 km/h (3 Bft)
18.07.2018 05:03 15,4 °C 79 % 1015,2 hPa 0,0 mm 4,8 km/h (1 Bft) S 178 ° 0 min 0,000 mm 0,0 UV-I 0 W/m² 11,8 °C 15,4 °C 11,3 km/h (2 Bft)
18.07.2018 05:04 15,4 °C 79 % 1015,3 hPa 0,0 mm 6,3 km/h (2 Bft) S-SW 206 ° 0 min 0,000 mm 0,0 UV-I 0 W/m² 11,8 °C 15,4 °C 9,7 km/h (2 Bft)
18.07.2018 05:05 15,3 °C 79 % 1015,2 hPa 0,0 mm 6,1 km/h (2 Bft) S-SW 197 ° 0 min 0,000 mm 0,0 UV-I 0 W/m² 11,7 °C 15,3 °C 8,0 km/h (2 Bft)
18.07.2018 05:06 15,4 °C 79 % 1015,3 hPa 0,0 mm 5,3 km/h (1 Bft) S-SW 202 ° 0 min 0,000 mm 0,0 UV-I 0 W/m² 11,8 °C 15,4 °C 6,4 km/h (2 Bft)
18.07.2018 05:07 15,4 °C 79 % 1015,3 hPa 0,0 mm 4,8 km/h (1 Bft) S-SW 205 ° 0 min 0,000 mm 0,0 UV-I 0 W/m² 11,8 °C 15,4 °C 8,0 km/h (2 Bft)
18.07.2018 05:08 15,3 °C 79 % 1015,3 hPa 0,0 mm 2,7 km/h (1 Bft) S-SW 207 ° 0 min 0,000 mm 0,0 UV-I 0 W/m² 11,7 °C 15,3 °C 4,8 km/h (1 Bft)
18.07.2018 05:09 15,4 °C 79 % 1015,3 hPa 0,0 mm 6,8 km/h (2 Bft) S 189 ° 0 min 0,000 mm 0,0 UV-I 0 W/m² 11,8 °C 15,4 °C 11,3 km/h (2 Bft)
18.07.2018 05:10 15,4 °C 79 % 1015,3 hPa 0,0 mm 6,4 km/h (2 Bft) S-SW 205 ° 0 min 0,000 mm 0,0 UV-I 0 W/m² 11,8 °C 15,4 °C 11,3 km/h (2 Bft)
18.07.2018 05:11 15,4 °C 78 % 1015,3 hPa 0,0 mm 3,6 km/h (1 Bft) S 187 ° 0 min 0,000 mm 0,0 UV-I 0 W/m² 11,6 °C 15,4 °C 8,0 km/h (2 Bft)
18.07.2018 05:12 15,4 °C 78 % 1015,3 hPa 0,0 mm 5,6 km/h (1 Bft) S-SW 194 ° 0 min 0,000 mm 0,0 UV-I 0 W/m² 11,6 °C 15,4 °C 9,7 km/h (2 Bft)
18.07.2018 05:13 15,5 °C 78 % 1015,3 hPa 0,0 mm 6,0 km/h (2 Bft) S 169 ° 0 min 0,000 mm 0,0 UV-I 0 W/m² 11,7 °C 15,5 °C 8,0 km/h (2 Bft)
18.07.2018 05:14 15,5 °C 78 % 1015,3 hPa 0,0 mm 5,4 km/h (1 Bft) S-SW 203 ° 0 min 0,000 mm 0,0 UV-I 0 W/m² 11,7 °C 15,5 °C 8,0 km/h (2 Bft)
18.07.2018 05:15 15,6 °C 78 % 1015,3 hPa 0,0 mm 6,2 km/h (2 Bft) S-SW 198 ° 0 min 0,000 mm 0,0 UV-I 0 W/m² 11,8 °C 15,6 °C 9,7 km/h (2 Bft)
18.07.2018 05:16 15,6 °C 78 % 1015,3 hPa 0,0 mm 5,4 km/h (1 Bft) S 189 ° 0 min 0,000 mm 0,0 UV-I 0 W/m² 11,8 °C 15,6 °C 9,7 km/h (2 Bft)
18.07.2018 05:17 15,6 °C 78 % 1015,3 hPa 0,0 mm 1,4 km/h (1 Bft) S 189 ° 0 min 0,000 mm 0,0 UV-I 0 W/m² 11,8 °C 15,6 °C 4,8 km/h (1 Bft)
18.07.2018 05:18 15,6 °C 78 % 1015,3 hPa 0,0 mm 6,2 km/h (2 Bft) S-SW 192 ° 0 min 0,000 mm 0,0 UV-I 0 W/m² 11,8 °C 15,6 °C 8,0 km/h (2 Bft)
18.07.2018 05:19 15,5 °C 78 % 1015,3 hPa 0,0 mm 2,5 km/h (1 Bft) S-SW 192 ° 0 min 0,000 mm 0,0 UV-I 0 W/m² 11,7 °C 15,5 °C 4,8 km/h (1 Bft)
18.07.2018 05:20 15,4 °C 78 % 1015,3 hPa 0,0 mm 1,7 km/h (1 Bft) S-SW 192 ° 0 min 0,000 mm 0,0 UV-I 0 W/m² 11,6 °C 15,4 °C 4,8 km/h (1 Bft)
18.07.2018 05:21 15,4 °C 78 % 1015,4 hPa 0,0 mm 7,4 km/h (2 Bft) S-SW 196 ° 0 min 0,000 mm 0,0 UV-I 0 W/m² 11,6 °C 15,4 °C 11,3 km/h (2 Bft)
18.07.2018 05:22 15,4 °C 78 % 1015,3 hPa 0,0 mm 5,5 km/h (1 Bft) S-SW 196 ° 0 min 0,000 mm 0,0 UV-I 0 W/m² 11,6 °C 15,4 °C 9,7 km/h (2 Bft)
18.07.2018 05:23 15,3 °C 79 % 1015,3 hPa 0,0 mm 3,9 km/h (1 Bft) W-NW 294 ° 0 min 0,000 mm 0,0 UV-I 0 W/m² 11,7 °C 15,3 °C 6,4 km/h (2 Bft)
18.07.2018 05:24 15,4 °C 79 % 1015,3 hPa 0,0 mm 4,3 km/h (1 Bft) S-SW 207 ° 0 min 0,000 mm 0,0 UV-I 0 W/m² 11,8 °C 15,4 °C 8,0 km/h (2 Bft)
18.07.2018 05:25 15,3 °C 79 % 1015,3 hPa 0,0 mm 4,8 km/h (1 Bft) S-SW 195 ° 0 min 0,000 mm 0,0 UV-I 0 W/m² 11,7 °C 15,3 °C 8,0 km/h (2 Bft)
18.07.2018 05:26 15,3 °C 79 % 1015,3 hPa 0,0 mm 4,4 km/h (1 Bft) S-SW 195 ° 0 min 0,000 mm 0,0 UV-I 0 W/m² 11,7 °C 15,3 °C 6,4 km/h (2 Bft)
18.07.2018 05:27 15,2 °C 80 % 1015,3 hPa 0,0 mm 2,1 km/h (1 Bft) S 178 ° 0 min 0,000 mm 0,0 UV-I 0 W/m² 11,8 °C 15,2 °C 4,8 km/h (1 Bft)
18.07.2018 05:28 15,2 °C 80 % 1015,3 hPa 0,0 mm 1,6 km/h (1 Bft) S 178 ° 0 min 0,000 mm 0,0 UV-I 0 W/m² 11,8 °C 15,2 °C 4,8 km/h (1 Bft)
18.07.2018 05:29 15,1 °C 80 % 1015,3 hPa 0,0 mm 4,0 km/h (1 Bft) S 183 ° 0 min 0,000 mm 0,0 UV-I 0 W/m² 11,7 °C 15,1 °C 6,4 km/h (2 Bft)
18.07.2018 05:30 15,1 °C 81 % 1015,3 hPa 0,0 mm 5,0 km/h (1 Bft) S-SO 162 ° 0 min 0,000 mm 0,0 UV-I 0 W/m² 11,9 °C 15,1 °C 8,0 km/h (2 Bft)
18.07.2018 05:31 15,0 °C 81 % 1015,3 hPa 0,0 mm 3,6 km/h (1 Bft) S-SO 158 ° 0 min 0,000 mm 0,0 UV-I 0 W/m² 11,8 °C 15,0 °C 6,4 km/h (2 Bft)
18.07.2018 05:32 14,9 °C 81 % 1015,3 hPa 0,0 mm 1,8 km/h (1 Bft) S-SO 158 ° 0 min 0,000 mm 0,0 UV-I 0 W/m² 11,7 °C 14,9 °C 3,2 km/h (1 Bft)
18.07.2018 05:33 14,9 °C 81 % 1015,3 hPa 0,0 mm 1,2 km/h (1 Bft) S-SO 158 ° 0 min 0,000 mm 0,0 UV-I 0 W/m² 11,7 °C 14,9 °C 3,2 km/h (1 Bft)
18.07.2018 05:34 14,8 °C 82 % 1015,3 hPa 0,0 mm 1,7 km/h (1 Bft) S-SO 158 ° 0 min 0,000 mm 0,0 UV-I 0 W/m² 11,8 °C 14,8 °C 3,2 km/h (1 Bft)
18.07.2018 05:35 14,8 °C 82 % 1015,3 hPa 0,0 mm 1,5 km/h (1 Bft) S-SO 158 ° 0 min 0,000 mm 0,0 UV-I 0 W/m² 11,8 °C 14,8 °C 3,2 km/h (1 Bft)
18.07.2018 05:36 14,8 °C 82 % 1015,3 hPa 0,0 mm 0,7 km/h (0 Bft) S-SO 159 ° 0 min 0,000 mm 0,0 UV-I 0 W/m² 11,8 °C 14,8 °C 1,6 km/h (1 Bft)
18.07.2018 05:37 14,7 °C 82 % 1015,3 hPa 0,0 mm 1,1 km/h (1 Bft) S-SO 158 ° 0 min 0,000 mm 0,0 UV-I 0 W/m² 11,7 °C 14,7 °C 3,2 km/h (1 Bft)
18.07.2018 05:38 14,7 °C 82 % 1015,3 hPa 0,0 mm 0,5 km/h (0 Bft) S-SO 158 ° 0 min 0,000 mm 0,0 UV-I 0 W/m² 11,7 °C 14,7 °C 3,2 km/h (1 Bft)
18.07.2018 05:39 14,7 °C 83 % 1015,3 hPa 0,0 mm 3,4 km/h (1 Bft) S-SO 158 ° 0 min 0,000 mm 0,0 UV-I 0 W/m² 11,8 °C 14,7 °C 6,4 km/h (2 Bft)
18.07.2018 05:40 14,6 °C 83 % 1015,3 hPa 0,0 mm 0,5 km/h (0 Bft) S-SO 158 ° 0 min 0,000 mm 0,0 UV-I 0 W/m² 11,7 °C 14,6 °C 1,6 km/h (1 Bft)
18.07.2018 05:41 14,6 °C 83 % 1015,3 hPa 0,0 mm 0,0 km/h (0 Bft) S-SO 158 ° 0 min 0,000 mm 0,0 UV-I 0 W/m² 11,7 °C 14,6 °C 0,0 km/h (0 Bft)
18.07.2018 05:42 14,6 °C 83 % 1015,4 hPa 0,0 mm 0,9 km/h (0 Bft) S-SO 158 ° 0 min 0,000 mm 0,0 UV-I 5 W/m² 11,7 °C 14,6 °C 3,2 km/h (1 Bft)
18.07.2018 05:43 14,6 °C 83 % 1015,3 hPa 0,0 mm 1,6 km/h (1 Bft) S-SO 158 ° 0 min 0,000 mm 0,0 UV-I 5 W/m² 11,7 °C 14,6 °C 3,2 km/h (1 Bft)
18.07.2018 05:44 14,6 °C 83 % 1015,3 hPa 0,0 mm 2,5 km/h (1 Bft) S-SO 158 ° 0 min 0,000 mm 0,0 UV-I 5 W/m² 11,7 °C 14,6 °C 4,8 km/h (1 Bft)
18.07.2018 05:45 14,6 °C 84 % 1015,3 hPa 0,0 mm 0,3 km/h (0 Bft) S-SO 158 ° 0 min 0,000 mm 0,0 UV-I 5 W/m² 11,9 °C 14,6 °C 1,6 km/h (1 Bft)
18.07.2018 05:46 14,6 °C 83 % 1015,3 hPa 0,0 mm 0,0 km/h (0 Bft) S-SO 158 ° 0 min 0,000 mm 0,0 UV-I 7 W/m² 11,7 °C 14,6 °C 0,0 km/h (0 Bft)
18.07.2018 05:47 14,6 °C 83 % 1015,3 hPa 0,0 mm 0,0 km/h (0 Bft) S-SO 158 ° 0 min 0,000 mm 0,0 UV-I 7 W/m² 11,7 °C 14,6 °C 0,0 km/h (0 Bft)
18.07.2018 05:48 14,6 °C 83 % 1015,3 hPa 0,0 mm 0,5 km/h (0 Bft) S-SO 158 ° 0 min 0,000 mm 0,0 UV-I 7 W/m² 11,7 °C 14,6 °C 1,6 km/h (1 Bft)
18.07.2018 05:49 14,6 °C 83 % 1015,3 hPa 0,0 mm 0,0 km/h (0 Bft) S-SO 158 ° 0 min 0,000 mm 0,0 UV-I 9 W/m² 11,7 °C 14,6 °C 0,0 km/h (0 Bft)
18.07.2018 05:50 14,6 °C 83 % 1015,3 hPa 0,0 mm 0,1 km/h (0 Bft) S-SO 158 ° 0 min 0,000 mm 0,0 UV-I 9 W/m² 11,7 °C 14,6 °C 1,6 km/h (1 Bft)
18.07.2018 05:51 14,6 °C 83 % 1015,4 hPa 0,0 mm 0,0 km/h (0 Bft) S-SO 158 ° 0 min 0,000 mm 0,0 UV-I 9 W/m² 11,7 °C 14,6 °C 0,0 km/h (0 Bft)
18.07.2018 05:52 14,6 °C 84 % 1015,4 hPa 0,0 mm 0,0 km/h (0 Bft) S-SO 158 ° 0 min 0,000 mm 0,0 UV-I 11 W/m² 11,9 °C 14,6 °C 0,0 km/h (0 Bft)
18.07.2018 05:53 14,6 °C 84 % 1015,4 hPa 0,0 mm 0,8 km/h (0 Bft) W 280 ° 0 min 0,000 mm 0,0 UV-I 11 W/m² 11,9 °C 14,6 °C 3,2 km/h (1 Bft)
18.07.2018 05:54 14,6 °C 84 % 1015,4 hPa 0,0 mm 1,6 km/h (1 Bft) SW 223 ° 0 min 0,000 mm 0,0 UV-I 12 W/m² 11,9 °C 14,6 °C 3,2 km/h (1 Bft)
18.07.2018 05:55 14,6 °C 84 % 1015,3 hPa 0,0 mm 0,9 km/h (0 Bft) SW 223 ° 0 min 0,000 mm 0,0 UV-I 12 W/m² 11,9 °C 14,6 °C 3,2 km/h (1 Bft)
18.07.2018 05:56 14,6 °C 84 % 1015,3 hPa 0,0 mm 0,0 km/h (0 Bft) SW 223 ° 0 min 0,000 mm 0,0 UV-I 12 W/m² 11,9 °C 14,6 °C 0,0 km/h (0 Bft)
18.07.2018 05:57 14,6 °C 84 % 1015,3 hPa 0,0 mm 0,0 km/h (0 Bft) SW 223 ° 0 min 0,000 mm 0,0 UV-I 14 W/m² 11,9 °C 14,6 °C 0,0 km/h (0 Bft)
18.07.2018 05:58 14,6 °C 84 % 1015,3 hPa 0,0 mm 0,0 km/h (0 Bft) SW 223 ° 0 min 0,000 mm 0,0 UV-I 14 W/m² 11,9 °C 14,6 °C 0,0 km/h (0 Bft)
18.07.2018 05:59 14,6 °C 84 % 1015,4 hPa 0,0 mm 0,0 km/h (0 Bft) SW 223 ° 0 min 0,000 mm 0,0 UV-I 16 W/m² 11,9 °C 14,6 °C 0,0 km/h (0 Bft)
18.07.2018 06:00 14,6 °C 84 % 1015,4 hPa 0,0 mm 0,0 km/h (0 Bft) SW 223 ° 0 min 0,000 mm 0,0 UV-I 18 W/m² 11,9 °C 14,6 °C 0,0 km/h (0 Bft)
18.07.2018 06:01 14,6 °C 84 % 1015,4 hPa 0,0 mm 0,0 km/h (0 Bft) SW 223 ° 0 min 0,000 mm 0,0 UV-I 18 W/m² 11,9 °C 14,6 °C 0,0 km/h (0 Bft)
18.07.2018 06:02 14,6 °C 84 % 1015,4 hPa 0,0 mm 0,0 km/h (0 Bft) SW 223 ° 0 min 0,000 mm 0,0 UV-I 19 W/m² 11,9 °C 14,6 °C 0,0 km/h (0 Bft)
18.07.2018 06:03 14,6 °C 84 % 1015,4 hPa 0,0 mm 0,0 km/h (0 Bft) SW 223 ° 0 min 0,000 mm 0,0 UV-I 21 W/m² 11,9 °C 14,6 °C 0,0 km/h (0 Bft)
18.07.2018 06:04 14,6 °C 84 % 1015,4 hPa 0,0 mm 0,0 km/h (0 Bft) SW 223 ° 0 min 0,000 mm 0,0 UV-I 21 W/m² 11,9 °C 14,6 °C 0,0 km/h (0 Bft)
18.07.2018 06:05 14,7 °C 84 % 1015,4 hPa 0,0 mm 0,0 km/h (0 Bft) SW 223 ° 0 min 0,000 mm 0,0 UV-I 23 W/m² 12,0 °C 14,7 °C 0,0 km/h (0 Bft)
18.07.2018 06:06 14,7 °C 84 % 1015,4 hPa 0,0 mm 0,0 km/h (0 Bft) SW 223 ° 0 min 0,000 mm 0,0 UV-I 26 W/m² 12,0 °C 14,7 °C 0,0 km/h (0 Bft)
18.07.2018 06:07 14,7 °C 84 % 1015,4 hPa 0,0 mm 0,0 km/h (0 Bft) SW 223 ° 0 min 0,000 mm 0,0 UV-I 26 W/m² 12,0 °C 14,7 °C 0,0 km/h (0 Bft)
18.07.2018 06:08 14,7 °C 85 % 1015,4 hPa 0,0 mm 0,1 km/h (0 Bft) SW 223 ° 0 min 0,000 mm 0,0 UV-I 28 W/m² 12,2 °C 14,7 °C 1,6 km/h (1 Bft)
18.07.2018 06:09 14,6 °C 85 % 1015,4 hPa 0,0 mm 0,9 km/h (0 Bft) SW 223 ° 0 min 0,000 mm 0,0 UV-I 30 W/m² 12,1 °C 14,6 °C 3,2 km/h (1 Bft)
18.07.2018 06:10 14,5 °C 85 % 1015,4 hPa 0,0 mm 1,3 km/h (1 Bft) NW 315 ° 0 min 0,000 mm 0,0 UV-I 30 W/m² 12,0 °C 14,5 °C 3,2 km/h (1 Bft)
18.07.2018 06:11 14,4 °C 86 % 1015,4 hPa 0,0 mm 1,1 km/h (1 Bft) NW 315 ° 0 min 0,000 mm 0,0 UV-I 32 W/m² 12,1 °C 14,4 °C 4,8 km/h (1 Bft)
18.07.2018 06:12 14,3 °C 85 % 1015,4 hPa 0,0 mm 0,0 km/h (0 Bft) NW 315 ° 0 min 0,000 mm 0,0 UV-I 28 W/m² 11,8 °C 14,3 °C 0,0 km/h (0 Bft)
18.07.2018 06:13 14,3 °C 86 % 1015,4 hPa 0,0 mm 0,0 km/h (0 Bft) NW 315 ° 0 min 0,000 mm 0,0 UV-I 28 W/m² 12,0 °C 14,3 °C 0,0 km/h (0 Bft)
18.07.2018 06:14 14,2 °C 86 % 1015,4 hPa 0,0 mm 0,0 km/h (0 Bft) NW 315 ° 0 min 0,000 mm 0,0 UV-I 28 W/m² 11,9 °C 14,2 °C 0,0 km/h (0 Bft)
18.07.2018 06:15 14,2 °C 86 % 1015,5 hPa 0,0 mm 0,0 km/h (0 Bft) NW 315 ° 0 min 0,000 mm 0,0 UV-I 28 W/m² 11,9 °C 14,2 °C 0,0 km/h (0 Bft)
18.07.2018 06:16 14,1 °C 86 % 1015,5 hPa 0,0 mm 0,0 km/h (0 Bft) NW 315 ° 0 min 0,000 mm 0,0 UV-I 30 W/m² 11,8 °C 14,1 °C 0,0 km/h (0 Bft)
18.07.2018 06:17 14,1 °C 86 % 1015,4 hPa 0,0 mm 0,0 km/h (0 Bft) NW 315 ° 0 min 0,000 mm 0,0 UV-I 30 W/m² 11,8 °C 14,1 °C 0,0 km/h (0 Bft)
18.07.2018 06:18 14,1 °C 87 % 1015,4 hPa 0,0 mm 0,0 km/h (0 Bft) NW 315 ° 0 min 0,000 mm 0,0 UV-I 25 W/m² 12,0 °C 14,1 °C 0,0 km/h (0 Bft)
18.07.2018 06:19 14,1 °C 87 % 1015,4 hPa 0,0 mm 0,0 km/h (0 Bft) NW 315 ° 0 min 0,000 mm 0,0 UV-I 25 W/m² 12,0 °C 14,1 °C 0,0 km/h (0 Bft)
18.07.2018 06:20 14,1 °C 87 % 1015,4 hPa 0,0 mm 0,0 km/h (0 Bft) NW 315 ° 0 min 0,000 mm 0,0 UV-I 25 W/m² 12,0 °C 14,1 °C 0,0 km/h (0 Bft)
18.07.2018 06:21 14,0 °C 87 % 1015,5 hPa 0,0 mm 0,0 km/h (0 Bft) NW 315 ° 0 min 0,000 mm 0,0 UV-I 25 W/m² 11,9 °C 14,0 °C 0,0 km/h (0 Bft)
18.07.2018 06:22 13,9 °C 87 % 1015,5 hPa 0,0 mm 0,0 km/h (0 Bft) NW 315 ° 0 min 0,000 mm 0,0 UV-I 25 W/m² 11,8 °C 13,9 °C 0,0 km/h (0 Bft)
18.07.2018 06:23 13,9 °C 87 % 1015,4 hPa 0,0 mm 0,0 km/h (0 Bft) NW 315 ° 0 min 0,000 mm 0,0 UV-I 28 W/m² 11,8 °C 13,9 °C 0,0 km/h (0 Bft)
18.07.2018 06:24 13,9 °C 87 % 1015,4 hPa 0,0 mm 0,0 km/h (0 Bft) NW 315 ° 0 min 0,000 mm 0,0 UV-I 30 W/m² 11,8 °C 13,9 °C 0,0 km/h (0 Bft)
18.07.2018 06:25 13,9 °C 87 % 1015,5 hPa 0,0 mm 0,0 km/h (0 Bft) NW 315 ° 0 min 0,000 mm 0,0 UV-I 33 W/m² 11,8 °C 13,9 °C 0,0 km/h (0 Bft)
18.07.2018 06:26 14,0 °C 87 % 1015,5 hPa 0,0 mm 0,0 km/h (0 Bft) NW 315 ° 0 min 0,000 mm 0,0 UV-I 35 W/m² 11,9 °C 14,0 °C 0,0 km/h (0 Bft)
18.07.2018 06:27 14,0 °C 87 % 1015,5 hPa 0,0 mm 0,0 km/h (0 Bft) NW 315 ° 0 min 0,000 mm 0,0 UV-I 40 W/m² 11,9 °C 14,0 °C 0,0 km/h (0 Bft)
18.07.2018 06:28 14,0 °C 87 % 1015,5 hPa 0,0 mm 0,0 km/h (0 Bft) NW 315 ° 0 min 0,000 mm 0,0 UV-I 51 W/m² 11,9 °C 14,0 °C 0,0 km/h (0 Bft)
18.07.2018 06:29 13,9 °C 88 % 1015,5 hPa 0,0 mm 0,0 km/h (0 Bft) NW 315 ° 0 min 0,000 mm 0,0 UV-I 54 W/m² 11,9 °C 13,9 °C 0,0 km/h (0 Bft)
18.07.2018 06:30 14,0 °C 88 % 1015,5 hPa 0,0 mm 0,0 km/h (0 Bft) NW 315 ° 0 min 0,000 mm 0,0 UV-I 60 W/m² 12,0 °C 14,0 °C 0,0 km/h (0 Bft)
18.07.2018 06:31 14,1 °C 88 % 1015,5 hPa 0,0 mm 0,0 km/h (0 Bft) NW 315 ° 0 min 0,000 mm 0,0 UV-I 58 W/m² 12,1 °C 14,1 °C 0,0 km/h (0 Bft)
18.07.2018 06:32 14,0 °C 88 % 1015,5 hPa 0,0 mm 0,0 km/h (0 Bft) NW 315 ° 0 min 0,000 mm 0,0 UV-I 56 W/m² 12,0 °C 14,0 °C 0,0 km/h (0 Bft)
18.07.2018 06:33 14,1 °C 88 % 1015,6 hPa 0,0 mm 0,0 km/h (0 Bft) NW 315 ° 0 min 0,000 mm 0,0 UV-I 56 W/m² 12,1 °C 14,1 °C 0,0 km/h (0 Bft)
18.07.2018 06:34 14,1 °C 88 % 1015,5 hPa 0,0 mm 0,0 km/h (0 Bft) NW 315 ° 0 min 0,000 mm 0,0 UV-I 56 W/m² 12,1 °C 14,1 °C 0,0 km/h (0 Bft)
18.07.2018 06:35 14,0 °C 88 % 1015,5 hPa 0,0 mm 0,0 km/h (0 Bft) NW 315 ° 0 min 0,000 mm 0,0 UV-I 58 W/m² 12,0 °C 14,0 °C 0,0 km/h (0 Bft)
18.07.2018 06:36 14,1 °C 88 % 1015,5 hPa 0,0 mm 0,0 km/h (0 Bft) NW 315 ° 0 min 0,000 mm 0,0 UV-I 60 W/m² 12,1 °C 14,1 °C 0,0 km/h (0 Bft)
18.07.2018 06:37 14,0 °C 88 % 1015,5 hPa 0,0 mm 0,0 km/h (0 Bft) NW 315 ° 0 min 0,000 mm 0,0 UV-I 56 W/m² 12,0 °C 14,0 °C 0,0 km/h (0 Bft)
18.07.2018 06:38 14,0 °C 88 % 1015,5 hPa 0,0 mm 0,0 km/h (0 Bft) NW 315 ° 0 min 0,000 mm 0,0 UV-I 54 W/m² 12,0 °C 14,0 °C 0,0 km/h (0 Bft)
18.07.2018 06:39 14,1 °C 88 % 1015,6 hPa 0,0 mm 0,0 km/h (0 Bft) NW 315 ° 0 min 0,000 mm 0,0 UV-I 54 W/m² 12,1 °C 14,1 °C 0,0 km/h (0 Bft)
18.07.2018 06:40 14,1 °C 88 % 1015,6 hPa 0,0 mm 0,0 km/h (0 Bft) NW 315 ° 0 min 0,000 mm 0,0 UV-I 54 W/m² 12,1 °C 14,1 °C 0,0 km/h (0 Bft)
18.07.2018 06:41 14,1 °C 88 % 1015,6 hPa 0,0 mm 0,0 km/h (0 Bft) NW 315 ° 0 min 0,000 mm 0,0 UV-I 56 W/m² 12,1 °C 14,1 °C 0,0 km/h (0 Bft)
18.07.2018 06:42 14,1 °C 88 % 1015,5 hPa 0,0 mm 0,9 km/h (0 Bft) SW 222 ° 0 min 0,000 mm 0,0 UV-I 69 W/m² 12,1 °C 14,1 °C 3,2 km/h (1 Bft)
18.07.2018 06:43 14,2 °C 88 % 1015,6 hPa 0,0 mm 1,0 km/h (0 Bft) SW 222 ° 0 min 0,000 mm 0,0 UV-I 77 W/m² 12,2 °C 14,2 °C 4,8 km/h (1 Bft)
18.07.2018 06:44 14,2 °C 88 % 1015,5 hPa 0,0 mm 0,0 km/h (0 Bft) SW 222 ° 0 min 0,000 mm 0,0 UV-I 76 W/m² 12,2 °C 14,2 °C 0,0 km/h (0 Bft)
18.07.2018 06:45 14,3 °C 89 % 1015,5 hPa 0,0 mm 0,0 km/h (0 Bft) SW 222 ° 0 min 0,000 mm 0,0 UV-I 58 W/m² 12,5 °C 14,3 °C 0,0 km/h (0 Bft)
18.07.2018 06:46 14,3 °C 88 % 1015,5 hPa 0,0 mm 0,0 km/h (0 Bft) SW 222 ° 0 min 0,000 mm 0,0 UV-I 65 W/m² 12,3 °C 14,3 °C 0,0 km/h (0 Bft)
18.07.2018 06:47 14,4 °C 88 % 1015,6 hPa 0,0 mm 0,0 km/h (0 Bft) SW 222 ° 0 min 0,000 mm 0,0 UV-I 63 W/m² 12,4 °C 14,4 °C 0,0 km/h (0 Bft)
18.07.2018 06:48 14,6 °C 88 % 1015,5 hPa 0,0 mm 1,3 km/h (1 Bft) S-SW 212 ° 0 min 0,000 mm 0,0 UV-I 67 W/m² 12,6 °C 14,6 °C 4,8 km/h (1 Bft)
18.07.2018 06:49 14,7 °C 87 % 1015,6 hPa 0,0 mm 1,7 km/h (1 Bft) S-SW 212 ° 0 min 0,000 mm 0,0 UV-I 91 W/m² 12,6 °C 14,7 °C 4,8 km/h (1 Bft)
18.07.2018 06:50 14,8 °C 87 % 1015,5 hPa 0,0 mm 1,4 km/h (1 Bft) S-SW 212 ° 0 min 0,000 mm 0,0 UV-I 70 W/m² 12,7 °C 14,8 °C 4,8 km/h (1 Bft)
18.07.2018 06:51 14,9 °C 86 % 1015,5 hPa 0,0 mm 0,0 km/h (0 Bft) S-SW 212 ° 0 min 0,000 mm 0,0 UV-I 69 W/m² 12,6 °C 14,9 °C 0,0 km/h (0 Bft)
18.07.2018 06:52 15,0 °C 86 % 1015,5 hPa 0,0 mm 0,0 km/h (0 Bft) S-SW 212 ° 0 min 0,000 mm 0,0 UV-I 72 W/m² 12,7 °C 15,0 °C 0,0 km/h (0 Bft)
18.07.2018 06:53 15,1 °C 85 % 1015,5 hPa 0,0 mm 0,8 km/h (0 Bft) S-SW 212 ° 0 min 0,000 mm 0,0 UV-I 72 W/m² 12,6 °C 15,1 °C 3,2 km/h (1 Bft)
18.07.2018 06:54 15,1 °C 85 % 1015,5 hPa 0,0 mm 5,8 km/h (2 Bft) S 188 ° 0 min 0,000 mm 0,0 UV-I 72 W/m² 12,6 °C 15,1 °C 8,0 km/h (2 Bft)
18.07.2018 06:55 15,2 °C 85 % 1015,5 hPa 0,0 mm 2,4 km/h (1 Bft) S 188 ° 0 min 0,000 mm 0,0 UV-I 93 W/m² 12,7 °C 15,2 °C 4,8 km/h (1 Bft)
18.07.2018 06:56 15,3 °C 85 % 1015,5 hPa 0,0 mm 0,4 km/h (0 Bft) S 188 ° 0 min 0,000 mm 0,0 UV-I 63 W/m² 12,8 °C 15,3 °C 1,6 km/h (1 Bft)
18.07.2018 06:57 15,3 °C 84 % 1015,5 hPa 0,0 mm 1,5 km/h (1 Bft) S 188 ° 0 min 0,000 mm 0,5 UV-I 90 W/m² 12,6 °C 15,3 °C 3,2 km/h (1 Bft)
18.07.2018 06:58 15,4 °C 84 % 1015,5 hPa 0,0 mm 5,3 km/h (1 Bft) S-SW 201 ° 0 min 0,000 mm 0,5 UV-I 104 W/m² 12,7 °C 15,4 °C 8,0 km/h (2 Bft)
18.07.2018 06:59 15,5 °C 83 % 1015,4 hPa 0,0 mm 4,5 km/h (1 Bft) S-SW 201 ° 0 min 0,000 mm 0,5 UV-I 114 W/m² 12,6 °C 15,5 °C 6,4 km/h (2 Bft)
18.07.2018 07:00 15,6 °C 83 % 1015,5 hPa 0,0 mm 0,3 km/h (0 Bft) S-SW 201 ° 0 min 0,000 mm 0,5 UV-I 113 W/m² 12,7 °C 15,6 °C 1,6 km/h (1 Bft)
18.07.2018 07:01 15,6 °C 83 % 1015,4 hPa 0,0 mm 0,0 km/h (0 Bft) S-SW 201 ° 0 min 0,025 mm 0,5 UV-I 114 W/m² 12,7 °C 15,6 °C 0,0 km/h (0 Bft)
18.07.2018 07:02 15,7 °C 82 % 1015,4 hPa 0,0 mm 0,0 km/h (0 Bft) S-SW 201 ° 0 min 0,000 mm 0,5 UV-I 114 W/m² 12,6 °C 15,7 °C 0,0 km/h (0 Bft)
18.07.2018 07:03 15,7 °C 83 % 1015,4 hPa 0,0 mm 1,0 km/h (0 Bft) S-SW 201 ° 0 min 0,000 mm 0,5 UV-I 111 W/m² 12,8 °C 15,7 °C 3,2 km/h (1 Bft)
18.07.2018 07:04 15,7 °C 83 % 1015,4 hPa 0,0 mm 0,0 km/h (0 Bft) S-SW 201 ° 0 min 0,000 mm 0,5 UV-I 113 W/m² 12,8 °C 15,7 °C 0,0 km/h (0 Bft)
18.07.2018 07:05 15,7 °C 83 % 1015,4 hPa 0,0 mm 0,0 km/h (0 Bft) S-SW 201 ° 0 min 0,000 mm 0,5 UV-I 113 W/m² 12,8 °C 15,7 °C 0,0 km/h (0 Bft)
18.07.2018 07:06 15,7 °C 83 % 1015,4 hPa 0,0 mm 0,2 km/h (0 Bft) S-SW 201 ° 0 min 0,000 mm 0,5 UV-I 97 W/m² 12,8 °C 15,7 °C 1,6 km/h (1 Bft)
18.07.2018 07:07 15,6 °C 84 % 1015,4 hPa 0,0 mm 0,0 km/h (0 Bft) S-SW 201 ° 0 min 0,000 mm 0,6 UV-I 116 W/m² 12,9 °C 15,6 °C 0,0 km/h (0 Bft)
18.07.2018 07:08 15,7 °C 83 % 1015,5 hPa 0,0 mm 0,0 km/h (0 Bft) S-SW 201 ° 0 min 0,000 mm 0,6 UV-I 104 W/m² 12,8 °C 15,7 °C 0,0 km/h (0 Bft)
18.07.2018 07:09 15,7 °C 83 % 1015,5 hPa 0,0 mm 0,0 km/h (0 Bft) S-SW 201 ° 0 min 0,000 mm 0,6 UV-I 125 W/m² 12,8 °C 15,7 °C 0,0 km/h (0 Bft)
18.07.2018 07:10 15,7 °C 84 % 1015,5 hPa 0,0 mm 0,0 km/h (0 Bft) S-SW 201 ° 0 min 0,000 mm 0,6 UV-I 135 W/m² 13,0 °C 15,7 °C 0,0 km/h (0 Bft)
18.07.2018 07:11 15,6 °C 84 % 1015,6 hPa 0,0 mm 0,0 km/h (0 Bft) S-SW 201 ° 0 min 0,000 mm 0,6 UV-I 139 W/m² 12,9 °C 15,6 °C 0,0 km/h (0 Bft)
18.07.2018 07:12 15,5 °C 84 % 1015,5 hPa 0,0 mm 0,0 km/h (0 Bft) S-SW 201 ° 0 min 0,000 mm 0,6 UV-I 144 W/m² 12,8 °C 15,5 °C 0,0 km/h (0 Bft)
18.07.2018 07:13 15,4 °C 85 % 1015,6 hPa 0,0 mm 0,0 km/h (0 Bft) S-SW 201 ° 0 min 0,000 mm 0,6 UV-I 146 W/m² 12,9 °C 15,4 °C 0,0 km/h (0 Bft)
18.07.2018 07:14 15,4 °C 85 % 1015,6 hPa 0,0 mm 0,0 km/h (0 Bft) S-SW 201 ° 0 min 0,000 mm 0,6 UV-I 148 W/m² 12,9 °C 15,4 °C 0,0 km/h (0 Bft)
18.07.2018 07:15 15,4 °C 85 % 1015,5 hPa 0,0 mm 0,0 km/h (0 Bft) S-SW 201 ° 0 min 0,000 mm 0,7 UV-I 151 W/m² 12,9 °C 15,4 °C 0,0 km/h (0 Bft)
18.07.2018 07:16 15,4 °C 85 % 1015,6 hPa 0,0 mm 0,0 km/h (0 Bft) S-SW 201 ° 0 min 0,000 mm 0,7 UV-I 151 W/m² 12,9 °C 15,4 °C 0,0 km/h (0 Bft)
18.07.2018 07:17 15,3 °C 85 % 1015,6 hPa 0,0 mm 0,0 km/h (0 Bft) S-SW 201 ° 0 min 0,000 mm 0,7 UV-I 155 W/m² 12,8 °C 15,3 °C 0,0 km/h (0 Bft)
18.07.2018 07:18 15,3 °C 85 % 1015,6 hPa 0,0 mm 0,0 km/h (0 Bft) S-SW 201 ° 0 min 0,000 mm 0,7 UV-I 155 W/m² 12,8 °C 15,3 °C 0,0 km/h (0 Bft)
18.07.2018 07:19 15,2 °C 85 % 1015,6 hPa 0,0 mm 0,0 km/h (0 Bft) S-SW 201 ° 0 min 0,000 mm 0,7 UV-I 158 W/m² 12,7 °C 15,2 °C 0,0 km/h (0 Bft)
18.07.2018 07:20 15,2 °C 85 % 1015,6 hPa 0,0 mm 0,0 km/h (0 Bft) S-SW 201 ° 0 min 0,000 mm 0,7 UV-I 163 W/m² 12,7 °C 15,2 °C 0,0 km/h (0 Bft)
18.07.2018 07:21 15,2 °C 85 % 1015,6 hPa 0,0 mm 0,0 km/h (0 Bft) S-SW 201 ° 0 min 0,000 mm 0,7 UV-I 165 W/m² 12,7 °C 15,2 °C 0,0 km/h (0 Bft)
18.07.2018 07:22 15,2 °C 85 % 1015,6 hPa 0,0 mm 0,0 km/h (0 Bft) S-SW 201 ° 0 min 0,000 mm 0,8 UV-I 167 W/m² 12,7 °C 15,2 °C 0,0 km/h (0 Bft)
18.07.2018 07:23 15,2 °C 85 % 1015,6 hPa 0,0 mm 0,0 km/h (0 Bft) S-SW 201 ° 0 min 0,000 mm 0,8 UV-I 169 W/m² 12,7 °C 15,2 °C 0,0 km/h (0 Bft)
18.07.2018 07:24 15,2 °C 85 % 1015,6 hPa 0,0 mm 0,0 km/h (0 Bft) S-SW 201 ° 0 min 0,000 mm 0,8 UV-I 171 W/m² 12,7 °C 15,2 °C 0,0 km/h (0 Bft)
18.07.2018 07:25 15,2 °C 85 % 1015,6 hPa 0,0 mm 0,0 km/h (0 Bft) S-SW 201 ° 0 min 0,000 mm 0,8 UV-I 172 W/m² 12,7 °C 15,2 °C 0,0 km/h (0 Bft)
18.07.2018 07:26 15,2 °C 85 % 1015,6 hPa 0,0 mm 0,0 km/h (0 Bft) S-SW 201 ° 0 min 0,000 mm 0,8 UV-I 174 W/m² 12,7 °C 15,2 °C 0,0 km/h (0 Bft)
18.07.2018 07:27 15,3 °C 85 % 1015,6 hPa 0,0 mm 0,0 km/h (0 Bft) S-SW 201 ° 0 min 0,000 mm 0,8 UV-I 181 W/m² 12,8 °C 15,3 °C 0,0 km/h (0 Bft)
18.07.2018 07:28 15,4 °C 85 % 1015,6 hPa 0,0 mm 0,0 km/h (0 Bft) S-SW 201 ° 0 min 0,000 mm 0,8 UV-I 200 W/m² 12,9 °C 15,4 °C 0,0 km/h (0 Bft)
18.07.2018 07:29 15,4 °C 84 % 1015,7 hPa 0,0 mm 0,0 km/h (0 Bft) S-SW 201 ° 0 min 0,000 mm 0,9 UV-I 209 W/m² 12,7 °C 15,4 °C 0,0 km/h (0 Bft)
18.07.2018 07:30 15,6 °C 85 % 1015,7 hPa 0,0 mm 0,0 km/h (0 Bft) S-SW 201 ° 0 min 0,000 mm 0,9 UV-I 214 W/m² 13,1 °C 15,6 °C 0,0 km/h (0 Bft)
18.07.2018 07:31 15,7 °C 85 % 1015,7 hPa 0,0 mm 0,0 km/h (0 Bft) S-SW 201 ° 0 min 0,000 mm 0,9 UV-I 214 W/m² 13,2 °C 15,7 °C 0,0 km/h (0 Bft)
18.07.2018 07:32 15,7 °C 85 % 1015,7 hPa 0,0 mm 0,0 km/h (0 Bft) S-SW 201 ° 0 min 0,000 mm 0,9 UV-I 199 W/m² 13,2 °C 15,7 °C 0,0 km/h (0 Bft)
18.07.2018 07:33 15,7 °C 85 % 1015,7 hPa 0,0 mm 0,0 km/h (0 Bft) S-SW 201 ° 0 min 0,000 mm 0,9 UV-I 185 W/m² 13,2 °C 15,7 °C 0,0 km/h (0 Bft)
18.07.2018 07:34 15,7 °C 85 % 1015,7 hPa 0,0 mm 0,0 km/h (0 Bft) S-SW 201 ° 0 min 0,000 mm 0,9 UV-I 221 W/m² 13,2 °C 15,7 °C 0,0 km/h (0 Bft)
18.07.2018 07:35 15,8 °C 84 % 1015,7 hPa 0,0 mm 0,0 km/h (0 Bft) S-SW 201 ° 0 min 0,000 mm 0,9 UV-I 220 W/m² 13,1 °C 15,8 °C 0,0 km/h (0 Bft)
18.07.2018 07:36 15,9 °C 85 % 1015,7 hPa 0,0 mm 0,0 km/h (0 Bft) S-SW 201 ° 0 min 0,000 mm 0,9 UV-I 221 W/m² 13,4 °C 15,9 °C 0,0 km/h (0 Bft)
18.07.2018 07:37 16,1 °C 85 % 1015,8 hPa 0,0 mm 0,0 km/h (0 Bft) S-SW 201 ° 0 min 0,000 mm 0,9 UV-I 227 W/m² 13,6 °C 16,1 °C 0,0 km/h (0 Bft)
18.07.2018 07:38 16,2 °C 85 % 1015,7 hPa 0,0 mm 0,0 km/h (0 Bft) S-SW 201 ° 0 min 0,000 mm 1,0 UV-I 229 W/m² 13,7 °C 16,2 °C 0,0 km/h (0 Bft)
18.07.2018 07:39 16,3 °C 84 % 1015,7 hPa 0,0 mm 0,0 km/h (0 Bft) S-SW 201 ° 0 min 0,000 mm 1,0 UV-I 230 W/m² 13,6 °C 16,3 °C 0,0 km/h (0 Bft)
18.07.2018 07:40 16,3 °C 83 % 1015,7 hPa 0,0 mm 0,0 km/h (0 Bft) S-SW 201 ° 0 min 0,000 mm 1,0 UV-I 223 W/m² 13,4 °C 16,3 °C 0,0 km/h (0 Bft)
18.07.2018 07:41 16,3 °C 83 % 1015,7 hPa 0,0 mm 0,0 km/h (0 Bft) S-SW 201 ° 0 min 0,000 mm 1,0 UV-I 221 W/m² 13,4 °C 16,3 °C 0,0 km/h (0 Bft)
18.07.2018 07:42 16,3 °C 82 % 1015,7 hPa 0,0 mm 0,0 km/h (0 Bft) S-SW 201 ° 0 min 0,000 mm 1,0 UV-I 223 W/m² 13,2 °C 16,3 °C 0,0 km/h (0 Bft)
18.07.2018 07:43 16,3 °C 82 % 1015,7 hPa 0,0 mm 0,0 km/h (0 Bft) S-SW 201 ° 0 min 0,000 mm 1,0 UV-I 220 W/m² 13,2 °C 16,3 °C 0,0 km/h (0 Bft)
18.07.2018 07:44 16,3 °C 82 % 1015,8 hPa 0,0 mm 0,0 km/h (0 Bft) S-SW 201 ° 0 min 0,000 mm 1,0 UV-I 158 W/m² 13,2 °C 16,3 °C 0,0 km/h (0 Bft)
18.07.2018 07:45 16,3 °C 83 % 1015,8 hPa 0,0 mm 0,0 km/h (0 Bft) S-SW 201 ° 0 min 0,000 mm 1,0 UV-I 100 W/m² 13,4 °C 16,3 °C 0,0 km/h (0 Bft)
18.07.2018 07:46 16,3 °C 83 % 1015,7 hPa 0,0 mm 0,0 km/h (0 Bft) S-SW 201 ° 0 min 0,000 mm 1,0 UV-I 104 W/m² 13,4 °C 16,3 °C 0,0 km/h (0 Bft)
18.07.2018 07:47 16,3 °C 84 % 1015,7 hPa 0,0 mm 0,0 km/h (0 Bft) S-SW 201 ° 0 min 0,000 mm 1,0 UV-I 132 W/m² 13,6 °C 16,3 °C 0,0 km/h (0 Bft)
18.07.2018 07:48 16,2 °C 83 % 1015,7 hPa 0,0 mm 0,0 km/h (0 Bft) S-SW 201 ° 0 min 0,000 mm 1,0 UV-I 113 W/m² 13,3 °C 16,2 °C 0,0 km/h (0 Bft)
18.07.2018 07:49 16,2 °C 84 % 1015,8 hPa 0,0 mm 0,0 km/h (0 Bft) S-SW 201 ° 0 min 0,000 mm 1,0 UV-I 113 W/m² 13,5 °C 16,2 °C 0,0 km/h (0 Bft)
18.07.2018 07:50 16,2 °C 84 % 1015,7 hPa 0,0 mm 0,0 km/h (0 Bft) S-SW 201 ° 0 min 0,000 mm 1,0 UV-I 97 W/m² 13,5 °C 16,2 °C 0,0 km/h (0 Bft)
18.07.2018 07:51 16,1 °C 84 % 1015,8 hPa 0,0 mm 0,0 km/h (0 Bft) S-SW 201 ° 0 min 0,000 mm 1,0 UV-I 95 W/m² 13,4 °C 16,1 °C 0,0 km/h (0 Bft)
18.07.2018 07:52 16,1 °C 85 % 1015,7 hPa 0,0 mm 0,0 km/h (0 Bft) S-SW 201 ° 0 min 0,000 mm 1,1 UV-I 132 W/m² 13,6 °C 16,1 °C 0,0 km/h (0 Bft)
18.07.2018 07:53 16,1 °C 85 % 1015,8 hPa 0,0 mm 0,0 km/h (0 Bft) S-SW 201 ° 0 min 0,000 mm 1,1 UV-I 197 W/m² 13,6 °C 16,1 °C 0,0 km/h (0 Bft)
18.07.2018 07:54 16,2 °C 86 % 1015,8 hPa 0,0 mm 0,0 km/h (0 Bft) S-SW 201 ° 0 min 0,000 mm 1,2 UV-I 234 W/m² 13,9 °C 16,2 °C 0,0 km/h (0 Bft)
18.07.2018 07:55 16,2 °C 86 % 1015,7 hPa 0,0 mm 0,0 km/h (0 Bft) S-SW 201 ° 0 min 0,000 mm 1,2 UV-I 237 W/m² 13,9 °C 16,2 °C 0,0 km/h (0 Bft)
18.07.2018 07:56 16,2 °C 85 % 1015,7 hPa 0,0 mm 0,0 km/h (0 Bft) S-SW 201 ° 0 min 0,000 mm 1,2 UV-I 236 W/m² 13,7 °C 16,2 °C 0,0 km/h (0 Bft)
18.07.2018 07:57 16,2 °C 87 % 1015,7 hPa 0,0 mm 0,0 km/h (0 Bft) S-SW 201 ° 0 min 0,000 mm 1,2 UV-I 169 W/m² 14,0 °C 16,2 °C 0,0 km/h (0 Bft)
18.07.2018 07:58 16,3 °C 87 % 1015,7 hPa 0,0 mm 0,0 km/h (0 Bft) S-SW 201 ° 0 min 0,000 mm 1,2 UV-I 172 W/m² 14,1 °C 16,3 °C 0,0 km/h (0 Bft)
18.07.2018 07:59 16,3 °C 86 % 1015,7 hPa 0,0 mm 0,0 km/h (0 Bft) S-SW 201 ° 0 min 0,000 mm 1,1 UV-I 141 W/m² 14,0 °C 16,3 °C 0,0 km/h (0 Bft)
18.07.2018 08:00 16,3 °C 86 % 1015,7 hPa 0,0 mm 0,0 km/h (0 Bft) S-SW 201 ° 0 min 0,000 mm 1,2 UV-I 149 W/m² 14,0 °C 16,3 °C 0,0 km/h (0 Bft)
18.07.2018 08:01 16,3 °C 86 % 1015,7 hPa 0,0 mm 0,0 km/h (0 Bft) S-SW 201 ° 0 min 0,076 mm 1,1 UV-I 120 W/m² 14,0 °C 16,3 °C 0,0 km/h (0 Bft)
18.07.2018 08:02 16,3 °C 86 % 1015,7 hPa 0,0 mm 0,0 km/h (0 Bft) S-SW 201 ° 0 min 0,000 mm 1,2 UV-I 120 W/m² 14,0 °C 16,3 °C 0,0 km/h (0 Bft)
18.07.2018 08:03 16,3 °C 86 % 1015,7 hPa 0,0 mm 0,0 km/h (0 Bft) S-SW 201 ° 0 min 0,000 mm 1,1 UV-I 114 W/m² 14,0 °C 16,3 °C 0,0 km/h (0 Bft)
18.07.2018 08:04 16,3 °C 87 % 1015,7 hPa 0,0 mm 0,0 km/h (0 Bft) S-SW 201 ° 0 min 0,000 mm 1,2 UV-I 114 W/m² 14,1 °C 16,3 °C 0,0 km/h (0 Bft)
18.07.2018 08:05 16,2 °C 87 % 1015,8 hPa 0,0 mm 0,0 km/h (0 Bft) S-SW 201 ° 0 min 0,000 mm 1,2 UV-I 109 W/m² 14,0 °C 16,2 °C 0,0 km/h (0 Bft)
18.07.2018 08:06 16,2 °C 86 % 1015,8 hPa 0,0 mm 0,0 km/h (0 Bft) S-SW 201 ° 0 min 0,000 mm 1,1 UV-I 109 W/m² 13,9 °C 16,2 °C 0,0 km/h (0 Bft)
18.07.2018 08:07 16,1 °C 86 % 1015,8 hPa 0,0 mm 0,0 km/h (0 Bft) S-SW 201 ° 0 min 0,000 mm 1,1 UV-I 109 W/m² 13,8 °C 16,1 °C 0,0 km/h (0 Bft)
18.07.2018 08:08 16,1 °C 86 % 1015,8 hPa 0,0 mm 0,0 km/h (0 Bft) S-SW 201 ° 0 min 0,000 mm 1,1 UV-I 104 W/m² 13,8 °C 16,1 °C 0,0 km/h (0 Bft)
18.07.2018 08:09 16,1 °C 86 % 1015,8 hPa 0,0 mm 0,0 km/h (0 Bft) S-SW 201 ° 0 min 0,000 mm 1,1 UV-I 102 W/m² 13,8 °C 16,1 °C 0,0 km/h (0 Bft)
18.07.2018 08:10 16,2 °C 86 % 1015,8 hPa 0,0 mm 0,0 km/h (0 Bft) S-SW 201 ° 0 min 0,000 mm 1,2 UV-I 104 W/m² 13,9 °C 16,2 °C 0,0 km/h (0 Bft)
18.07.2018 08:11 16,2 °C 87 % 1015,8 hPa 0,0 mm 0,0 km/h (0 Bft) S-SW 201 ° 0 min 0,000 mm 1,2 UV-I 107 W/m² 14,0 °C 16,2 °C 0,0 km/h (0 Bft)
18.07.2018 08:12 16,2 °C 87 % 1015,8 hPa 0,0 mm 0,0 km/h (0 Bft) S-SW 201 ° 0 min 0,000 mm 1,2 UV-I 113 W/m² 14,0 °C 16,2 °C 0,0 km/h (0 Bft)
18.07.2018 08:13 16,3 °C 87 % 1015,8 hPa 0,0 mm 0,0 km/h (0 Bft) S-SW 201 ° 0 min 0,000 mm 1,3 UV-I 135 W/m² 14,1 °C 16,3 °C 0,0 km/h (0 Bft)
18.07.2018 08:14 16,2 °C 87 % 1015,8 hPa 0,0 mm 0,0 km/h (0 Bft) S-SW 201 ° 0 min 0,000 mm 1,3 UV-I 163 W/m² 14,0 °C 16,2 °C 0,0 km/h (0 Bft)
18.07.2018 08:15 16,2 °C 88 % 1015,8 hPa 0,0 mm 0,0 km/h (0 Bft) S-SW 201 ° 0 min 0,000 mm 1,3 UV-I 114 W/m² 14,2 °C 16,2 °C 0,0 km/h (0 Bft)
18.07.2018 08:16 16,2 °C 87 % 1015,9 hPa 0,0 mm 0,0 km/h (0 Bft) S-SW 201 ° 0 min 0,000 mm 1,3 UV-I 113 W/m² 14,0 °C 16,2 °C 0,0 km/h (0 Bft)
18.07.2018 08:17 16,2 °C 86 % 1015,8 hPa 0,0 mm 0,0 km/h (0 Bft) S-SW 201 ° 0 min 0,000 mm 1,3 UV-I 113 W/m² 13,9 °C 16,2 °C 0,0 km/h (0 Bft)
18.07.2018 08:18 16,2 °C 86 % 1015,8 hPa 0,0 mm 0,0 km/h (0 Bft) S-SW 201 ° 0 min 0,000 mm 1,4 UV-I 181 W/m² 13,9 °C 16,2 °C 0,0 km/h (0 Bft)
18.07.2018 08:19 16,3 °C 86 % 1015,8 hPa 0,0 mm 0,0 km/h (0 Bft) S-SW 201 ° 0 min 0,000 mm 1,4 UV-I 121 W/m² 14,0 °C 16,3 °C 0,0 km/h (0 Bft)
18.07.2018 08:20 16,3 °C 86 % 1015,8 hPa 0,0 mm 0,0 km/h (0 Bft) S-SW 201 ° 0 min 0,000 mm 1,4 UV-I 128 W/m² 14,0 °C 16,3 °C 0,0 km/h (0 Bft)
18.07.2018 08:21 16,3 °C 87 % 1015,8 hPa 0,0 mm 0,0 km/h (0 Bft) S-SW 201 ° 0 min 0,000 mm 1,4 UV-I 128 W/m² 14,1 °C 16,3 °C 0,0 km/h (0 Bft)
18.07.2018 08:22 16,4 °C 87 % 1015,8 hPa 0,0 mm 0,0 km/h (0 Bft) S-SW 201 ° 0 min 0,000 mm 1,5 UV-I 186 W/m² 14,2 °C 16,4 °C 0,0 km/h (0 Bft)
18.07.2018 08:23 16,4 °C 87 % 1015,8 hPa 0,0 mm 0,0 km/h (0 Bft) S-SW 201 ° 0 min 0,000 mm 1,6 UV-I 279 W/m² 14,2 °C 16,4 °C 0,0 km/h (0 Bft)
18.07.2018 08:24 16,4 °C 87 % 1015,9 hPa 0,0 mm 0,0 km/h (0 Bft) S-SW 201 ° 0 min 0,000 mm 1,6 UV-I 308 W/m² 14,2 °C 16,4 °C 0,0 km/h (0 Bft)
18.07.2018 08:25 16,5 °C 88 % 1015,8 hPa 0,0 mm 0,0 km/h (0 Bft) S-SW 201 ° 0 min 0,000 mm 1,6 UV-I 301 W/m² 14,5 °C 16,5 °C 0,0 km/h (0 Bft)
18.07.2018 08:26 16,7 °C 88 % 1015,8 hPa 0,0 mm 0,0 km/h (0 Bft) S-SW 201 ° 0 min 0,000 mm 1,6 UV-I 292 W/m² 14,7 °C 16,7 °C 0,0 km/h (0 Bft)
18.07.2018 08:27 16,8 °C 88 % 1015,8 hPa 0,0 mm 0,0 km/h (0 Bft) S-SW 201 ° 0 min 0,000 mm 1,6 UV-I 306 W/m² 14,8 °C 16,8 °C 0,0 km/h (0 Bft)
18.07.2018 08:28 16,8 °C 88 % 1015,8 hPa 0,0 mm 0,0 km/h (0 Bft) S-SW 201 ° 0 min 0,000 mm 1,7 UV-I 311 W/m² 14,8 °C 16,8 °C 0,0 km/h (0 Bft)
18.07.2018 08:29 16,9 °C 87 % 1015,8 hPa 0,0 mm 0,0 km/h (0 Bft) S-SW 201 ° 0 min 0,000 mm 1,7 UV-I 323 W/m² 14,7 °C 16,9 °C 0,0 km/h (0 Bft)
18.07.2018 08:30 16,9 °C 88 % 1015,8 hPa 0,0 mm 0,0 km/h (0 Bft) S-SW 201 ° 0 min 0,000 mm 1,8 UV-I 334 W/m² 14,9 °C 16,9 °C 0,0 km/h (0 Bft)
18.07.2018 08:31 17,0 °C 87 % 1015,8 hPa 0,0 mm 0,0 km/h (0 Bft) S-SW 201 ° 0 min 0,000 mm 1,8 UV-I 341 W/m² 14,8 °C 17,0 °C 0,0 km/h (0 Bft)
18.07.2018 08:32 17,1 °C 87 % 1015,8 hPa 0,0 mm 0,0 km/h (0 Bft) S-SW 201 ° 0 min 0,000 mm 1,8 UV-I 345 W/m² 14,9 °C 17,1 °C 0,0 km/h (0 Bft)
18.07.2018 08:33 17,1 °C 86 % 1015,8 hPa 0,0 mm 0,0 km/h (0 Bft) S-SW 201 ° 0 min 0,000 mm 1,9 UV-I 360 W/m² 14,7 °C 17,1 °C 0,0 km/h (0 Bft)
18.07.2018 08:34 17,2 °C 86 % 1015,8 hPa 0,0 mm 0,0 km/h (0 Bft) S-SW 201 ° 0 min 0,000 mm 1,9 UV-I 362 W/m² 14,8 °C 17,2 °C 0,0 km/h (0 Bft)
18.07.2018 08:35 17,3 °C 87 % 1015,8 hPa 0,0 mm 0,0 km/h (0 Bft) S-SW 201 ° 0 min 0,000 mm 1,9 UV-I 362 W/m² 15,1 °C 17,3 °C 0,0 km/h (0 Bft)
18.07.2018 08:36 17,3 °C 86 % 1015,8 hPa 0,0 mm 0,0 km/h (0 Bft) S-SW 201 ° 0 min 0,000 mm 1,9 UV-I 367 W/m² 14,9 °C 17,3 °C 0,0 km/h (0 Bft)
18.07.2018 08:37 17,4 °C 84 % 1015,8 hPa 0,0 mm 0,0 km/h (0 Bft) S-SW 201 ° 0 min 0,000 mm 2,0 UV-I 369 W/m² 14,7 °C 17,4 °C 0,0 km/h (0 Bft)
18.07.2018 08:38 17,5 °C 85 % 1015,8 hPa 0,0 mm 0,0 km/h (0 Bft) S-SW 201 ° 0 min 0,000 mm 2,0 UV-I 376 W/m² 14,9 °C 17,5 °C 0,0 km/h (0 Bft)
18.07.2018 08:39 17,6 °C 84 % 1015,8 hPa 0,0 mm 0,0 km/h (0 Bft) S-SW 201 ° 0 min 0,000 mm 2,0 UV-I 385 W/m² 14,9 °C 17,6 °C 0,0 km/h (0 Bft)
18.07.2018 08:40 17,7 °C 84 % 1015,7 hPa 0,0 mm 0,0 km/h (0 Bft) S-SW 201 ° 0 min 0,000 mm 2,1 UV-I 387 W/m² 15,0 °C 17,7 °C 0,0 km/h (0 Bft)
18.07.2018 08:41 17,9 °C 86 % 1015,8 hPa 0,0 mm 0,0 km/h (0 Bft) S-SW 201 ° 0 min 0,000 mm 2,1 UV-I 387 W/m² 15,5 °C 17,9 °C 0,0 km/h (0 Bft)
18.07.2018 08:42 18,1 °C 82 % 1015,8 hPa 0,0 mm 0,0 km/h (0 Bft) S-SW 201 ° 0 min 0,000 mm 2,1 UV-I 385 W/m² 15,0 °C 18,1 °C 0,0 km/h (0 Bft)
18.07.2018 08:43 18,2 °C 81 % 1015,8 hPa 0,0 mm 0,0 km/h (0 Bft) S-SW 201 ° 0 min 0,000 mm 2,1 UV-I 385 W/m² 14,9 °C 18,2 °C 0,0 km/h (0 Bft)
18.07.2018 08:44 18,4 °C 83 % 1015,7 hPa 0,0 mm 0,0 km/h (0 Bft) S-SW 201 ° 0 min 0,000 mm 2,1 UV-I 383 W/m² 15,5 °C 18,4 °C 0,0 km/h (0 Bft)
18.07.2018 08:45 18,4 °C 80 % 1015,7 hPa 0,0 mm 0,0 km/h (0 Bft) S-SW 201 ° 0 min 0,000 mm 2,1 UV-I 388 W/m² 14,9 °C 18,4 °C 0,0 km/h (0 Bft)
18.07.2018 08:46 18,5 °C 80 % 1015,7 hPa 0,0 mm 0,0 km/h (0 Bft) S-SW 201 ° 0 min 0,000 mm 2,2 UV-I 394 W/m² 15,0 °C 18,5 °C 0,0 km/h (0 Bft)
18.07.2018 08:47 18,5 °C 80 % 1015,7 hPa 0,0 mm 0,0 km/h (0 Bft) S-SW 201 ° 0 min 0,000 mm 2,2 UV-I 399 W/m² 15,0 °C 18,5 °C 0,0 km/h (0 Bft)
18.07.2018 08:48 18,6 °C 80 % 1015,7 hPa 0,0 mm 0,0 km/h (0 Bft) S-SW 201 ° 0 min 0,000 mm 2,2 UV-I 406 W/m² 15,1 °C 18,6 °C 0,0 km/h (0 Bft)
18.07.2018 08:49 18,6 °C 80 % 1015,7 hPa 0,0 mm 0,0 km/h (0 Bft) S-SW 201 ° 0 min 0,000 mm 2,2 UV-I 411 W/m² 15,1 °C 18,6 °C 0,0 km/h (0 Bft)
18.07.2018 08:50 18,7 °C 80 % 1015,8 hPa 0,0 mm 0,0 km/h (0 Bft) S-SW 201 ° 0 min 0,000 mm 2,2 UV-I 415 W/m² 15,2 °C 18,7 °C 0,0 km/h (0 Bft)
18.07.2018 08:51 18,7 °C 81 % 1015,8 hPa 0,0 mm 0,0 km/h (0 Bft) S-SW 201 ° 0 min 0,000 mm 2,2 UV-I 411 W/m² 15,4 °C 18,7 °C 0,0 km/h (0 Bft)
18.07.2018 08:52 18,8 °C 81 % 1015,8 hPa 0,0 mm 0,0 km/h (0 Bft) S-SW 201 ° 0 min 0,000 mm 2,3 UV-I 415 W/m² 15,5 °C 18,8 °C 0,0 km/h (0 Bft)
18.07.2018 08:53 18,9 °C 80 % 1015,8 hPa 0,0 mm 0,0 km/h (0 Bft) S-SW 201 ° 0 min 0,000 mm 2,3 UV-I 422 W/m² 15,4 °C 18,9 °C 0,0 km/h (0 Bft)
18.07.2018 08:54 19,1 °C 79 % 1015,8 hPa 0,0 mm 0,0 km/h (0 Bft) S-SW 201 ° 0 min 0,000 mm 2,3 UV-I 434 W/m² 15,4 °C 19,1 °C 0,0 km/h (0 Bft)
18.07.2018 08:55 19,2 °C 78 % 1015,8 hPa 0,0 mm 0,0 km/h (0 Bft) S-SW 201 ° 0 min 0,000 mm 2,4 UV-I 443 W/m² 15,3 °C 19,2 °C 0,0 km/h (0 Bft)
18.07.2018 08:56 19,2 °C 77 % 1015,8 hPa 0,0 mm 0,0 km/h (0 Bft) S-SW 201 ° 0 min 0,000 mm 2,4 UV-I 448 W/m² 15,1 °C 19,2 °C 0,0 km/h (0 Bft)
18.07.2018 08:57 19,2 °C 76 % 1015,8 hPa 0,0 mm 0,0 km/h (0 Bft) S-SW 201 ° 0 min 0,000 mm 2,4 UV-I 452 W/m² 14,9 °C 19,2 °C 0,0 km/h (0 Bft)
18.07.2018 08:58 19,4 °C 75 % 1015,8 hPa 0,0 mm 0,0 km/h (0 Bft) S-SW 201 ° 0 min 0,000 mm 2,5 UV-I 461 W/m² 14,8 °C 19,4 °C 0,0 km/h (0 Bft)
18.07.2018 08:59 19,6 °C 74 % 1015,7 hPa 0,0 mm 0,0 km/h (0 Bft) S-SW 201 ° 0 min 0,000 mm 2,5 UV-I 468 W/m² 14,8 °C 19,6 °C 0,0 km/h (0 Bft)
18.07.2018 09:00 19,6 °C 78 % 1015,8 hPa 0,0 mm 0,0 km/h (0 Bft) S-SW 201 ° 0 min 0,153 mm 2,5 UV-I 476 W/m² 15,7 °C 19,6 °C 0,0 km/h (0 Bft)
18.07.2018 09:01 19,5 °C 75 % 1015,7 hPa 0,0 mm 0,0 km/h (0 Bft) S-SW 201 ° 0 min 0,000 mm 2,6 UV-I 483 W/m² 14,9 °C 19,5 °C 0,0 km/h (0 Bft)
18.07.2018 09:02 19,5 °C 76 % 1015,7 hPa 0,0 mm 0,0 km/h (0 Bft) S-SW 201 ° 0 min 0,000 mm 2,5 UV-I 490 W/m² 15,2 °C 19,5 °C 0,0 km/h (0 Bft)
18.07.2018 09:03 19,6 °C 77 % 1015,8 hPa 0,0 mm 0,0 km/h (0 Bft) S-SW 201 ° 0 min 0,000 mm 2,4 UV-I 499 W/m² 15,5 °C 19,6 °C 0,0 km/h (0 Bft)
18.07.2018 09:04 19,5 °C 76 % 1015,8 hPa 0,0 mm 0,0 km/h (0 Bft) S-SW 201 ° 0 min 0,000 mm 2,5 UV-I 499 W/m² 15,2 °C 19,5 °C 0,0 km/h (0 Bft)
18.07.2018 09:05 19,7 °C 76 % 1015,7 hPa 0,0 mm 0,0 km/h (0 Bft) S-SW 201 ° 0 min 0,000 mm 2,5 UV-I 499 W/m² 15,3 °C 19,7 °C 0,0 km/h (0 Bft)
18.07.2018 09:06 19,8 °C 73 % 1015,8 hPa 0,0 mm 0,0 km/h (0 Bft) S-SW 201 ° 0 min 0,000 mm 2,4 UV-I 499 W/m² 14,8 °C 19,8 °C 0,0 km/h (0 Bft)
18.07.2018 09:07 19,9 °C 73 % 1015,7 hPa 0,0 mm 0,0 km/h (0 Bft) S-SW 201 ° 0 min 0,000 mm 2,0 UV-I 214 W/m² 14,9 °C 19,9 °C 0,0 km/h (0 Bft)
18.07.2018 09:08 19,9 °C 71 % 1015,7 hPa 0,0 mm 0,0 km/h (0 Bft) S-SW 201 ° 0 min 0,000 mm 2,1 UV-I 223 W/m² 14,5 °C 19,9 °C 0,0 km/h (0 Bft)
18.07.2018 09:09 19,9 °C 72 % 1015,7 hPa 0,0 mm 0,0 km/h (0 Bft) S-SW 201 ° 0 min 0,000 mm 2,4 UV-I 255 W/m² 14,7 °C 19,9 °C 0,0 km/h (0 Bft)
18.07.2018 09:10 20,0 °C 73 % 1015,7 hPa 0,0 mm 0,0 km/h (0 Bft) S-SW 201 ° 0 min 0,000 mm 2,1 UV-I 230 W/m² 15,0 °C 20,0 °C 0,0 km/h (0 Bft)
18.07.2018 09:11 19,9 °C 73 % 1015,7 hPa 0,0 mm 0,0 km/h (0 Bft) S-SW 201 ° 0 min 0,000 mm 2,6 UV-I 230 W/m² 14,9 °C 19,9 °C 0,0 km/h (0 Bft)
18.07.2018 09:12 19,9 °C 75 % 1015,7 hPa 0,0 mm 0,0 km/h (0 Bft) S-SW 201 ° 0 min 0,000 mm 2,1 UV-I 230 W/m² 15,3 °C 19,9 °C 0,0 km/h (0 Bft)
18.07.2018 09:13 19,8 °C 76 % 1015,8 hPa 0,0 mm 0,0 km/h (0 Bft) S-SW 201 ° 0 min 0,000 mm 2,0 UV-I 218 W/m² 15,4 °C 19,8 °C 0,0 km/h (0 Bft)
18.07.2018 09:14 19,8 °C 71 % 1015,7 hPa 0,0 mm 0,0 km/h (0 Bft) S-SW 201 ° 0 min 0,000 mm 2,1 UV-I 287 W/m² 14,4 °C 19,8 °C 0,0 km/h (0 Bft)
18.07.2018 09:15 19,8 °C 71 % 1015,7 hPa 0,0 mm 0,0 km/h (0 Bft) S-SW 201 ° 0 min 0,000 mm 2,7 UV-I 287 W/m² 14,4 °C 19,8 °C 0,0 km/h (0 Bft)
18.07.2018 09:16 19,8 °C 74 % 1015,7 hPa 0,0 mm 0,1 km/h (0 Bft) W-SW 239 ° 0 min 0,000 mm 2,8 UV-I 554 W/m² 15,0 °C 19,8 °C 1,6 km/h (1 Bft)
18.07.2018 09:17 19,9 °C 70 % 1015,7 hPa 0,0 mm 2,9 km/h (1 Bft) NW 326 ° 0 min 0,000 mm 2,8 UV-I 563 W/m² 14,3 °C 19,9 °C 4,8 km/h (1 Bft)
18.07.2018 09:18 20,1 °C 71 % 1015,7 hPa 0,0 mm 0,4 km/h (0 Bft) NW 326 ° 0 min 0,000 mm 2,7 UV-I 584 W/m² 14,7 °C 20,1 °C 1,6 km/h (1 Bft)
18.07.2018 09:19 20,2 °C 70 % 1015,7 hPa 0,0 mm 0,5 km/h (0 Bft) W 261 ° 0 min 0,000 mm 2,8 UV-I 550 W/m² 14,5 °C 20,2 °C 3,2 km/h (1 Bft)
18.07.2018 09:20 20,3 °C 68 % 1015,7 hPa 0,0 mm 3,9 km/h (1 Bft) NW 315 ° 0 min 0,000 mm 2,7 UV-I 550 W/m² 14,2 °C 20,3 °C 6,4 km/h (2 Bft)
18.07.2018 09:21 20,4 °C 67 % 1015,7 hPa 0,0 mm 4,0 km/h (1 Bft) W-NW 301 ° 0 min 0,000 mm 2,1 UV-I 550 W/m² 14,1 °C 20,4 °C 6,4 km/h (2 Bft)
18.07.2018 09:22 20,4 °C 67 % 1015,8 hPa 0,0 mm 1,4 km/h (1 Bft) W-NW 301 ° 0 min 0,000 mm 2,1 UV-I 211 W/m² 14,1 °C 20,4 °C 3,2 km/h (1 Bft)
18.07.2018 09:23 20,3 °C 68 % 1015,7 hPa 0,0 mm 0,9 km/h (0 Bft) W-NW 302 ° 0 min 0,000 mm 2,1 UV-I 243 W/m² 14,2 °C 20,3 °C 3,2 km/h (1 Bft)
18.07.2018 09:24 20,3 °C 69 % 1015,7 hPa 0,0 mm 1,9 km/h (1 Bft) W-NW 302 ° 0 min 0,000 mm 2,1 UV-I 243 W/m² 14,4 °C 20,3 °C 3,2 km/h (1 Bft)
18.07.2018 09:25 20,2 °C 71 % 1015,7 hPa 0,0 mm 0,9 km/h (0 Bft) W-NW 302 ° 0 min 0,000 mm 2,2 UV-I 243 W/m² 14,8 °C 20,2 °C 1,6 km/h (1 Bft)
18.07.2018 09:26 20,3 °C 70 % 1015,7 hPa 0,0 mm 0,1 km/h (0 Bft) W-NW 302 ° 0 min 0,000 mm 2,2 UV-I 243 W/m² 14,6 °C 20,3 °C 1,6 km/h (1 Bft)
18.07.2018 09:27 20,2 °C 70 % 1015,7 hPa 0,0 mm 2,2 km/h (1 Bft) NW 306 ° 0 min 0,000 mm 2,2 UV-I 230 W/m² 14,5 °C 20,2 °C 4,8 km/h (1 Bft)
18.07.2018 09:28 20,2 °C 69 % 1015,7 hPa 0,0 mm 0,8 km/h (0 Bft) NW 306 ° 0 min 0,000 mm 2,3 UV-I 257 W/m² 14,3 °C 20,2 °C 3,2 km/h (1 Bft)
18.07.2018 09:29 20,2 °C 73 % 1015,8 hPa 0,0 mm 2,2 km/h (1 Bft) NW 306 ° 0 min 0,000 mm 3,0 UV-I 257 W/m² 15,2 °C 20,2 °C 3,2 km/h (1 Bft)
18.07.2018 09:30 20,2 °C 71 % 1015,7 hPa 0,0 mm 1,7 km/h (1 Bft) NW 306 ° 0 min 0,000 mm 2,6 UV-I 534 W/m² 14,8 °C 20,2 °C 3,2 km/h (1 Bft)
18.07.2018 09:31 20,2 °C 70 % 1015,8 hPa 0,0 mm 1,1 km/h (1 Bft) NW 306 ° 0 min 0,000 mm 2,2 UV-I 204 W/m² 14,5 °C 20,2 °C 3,2 km/h (1 Bft)
18.07.2018 09:32 20,1 °C 69 % 1015,7 hPa 0,0 mm 1,5 km/h (1 Bft) NW 306 ° 0 min 0,000 mm 2,2 UV-I 207 W/m² 14,2 °C 20,1 °C 3,2 km/h (1 Bft)
18.07.2018 09:33 20,0 °C 69 % 1015,7 hPa 0,0 mm 2,1 km/h (1 Bft) NW 306 ° 0 min 0,000 mm 2,2 UV-I 227 W/m² 14,1 °C 20,0 °C 3,2 km/h (1 Bft)
18.07.2018 09:34 19,9 °C 69 % 1015,7 hPa 0,0 mm 0,4 km/h (0 Bft) NW 306 ° 0 min 0,000 mm 2,2 UV-I 193 W/m² 14,0 °C 19,9 °C 1,6 km/h (1 Bft)
18.07.2018 09:35 19,9 °C 68 % 1015,8 hPa 0,0 mm 1,2 km/h (1 Bft) NW 306 ° 0 min 0,000 mm 2,2 UV-I 193 W/m² 13,8 °C 19,9 °C 3,2 km/h (1 Bft)
18.07.2018 09:36 19,8 °C 69 % 1015,8 hPa 0,0 mm 0,6 km/h (0 Bft) NW 306 ° 0 min 0,000 mm 2,2 UV-I 200 W/m² 13,9 °C 19,8 °C 3,2 km/h (1 Bft)
18.07.2018 09:37 19,8 °C 69 % 1015,8 hPa 0,0 mm 0,4 km/h (0 Bft) NW 306 ° 0 min 0,000 mm 2,3 UV-I 206 W/m² 13,9 °C 19,8 °C 1,6 km/h (1 Bft)
18.07.2018 09:38 19,8 °C 71 % 1015,8 hPa 0,0 mm 0,5 km/h (0 Bft) NW 306 ° 0 min 0,000 mm 2,3 UV-I 199 W/m² 14,4 °C 19,8 °C 3,2 km/h (1 Bft)
18.07.2018 09:39 19,8 °C 72 % 1015,7 hPa 0,0 mm 1,1 km/h (1 Bft) NW 306 ° 0 min 0,000 mm 2,9 UV-I 272 W/m² 14,6 °C 19,8 °C 3,2 km/h (1 Bft)
18.07.2018 09:40 19,9 °C 69 % 1015,8 hPa 0,0 mm 1,2 km/h (1 Bft) NW 306 ° 0 min 0,000 mm 2,5 UV-I 214 W/m² 14,0 °C 19,9 °C 3,2 km/h (1 Bft)
18.07.2018 09:41 19,9 °C 70 % 1015,7 hPa 0,0 mm 0,0 km/h (0 Bft) NW 306 ° 0 min 0,000 mm 3,2 UV-I 214 W/m² 14,3 °C 19,9 °C 0,0 km/h (0 Bft)
18.07.2018 09:42 20,0 °C 71 % 1015,7 hPa 0,0 mm 0,6 km/h (0 Bft) NW 306 ° 0 min 0,000 mm 3,1 UV-I 469 W/m² 14,6 °C 20,0 °C 1,6 km/h (1 Bft)
18.07.2018 09:43 20,1 °C 72 % 1015,7 hPa 0,0 mm 1,0 km/h (0 Bft) NW 306 ° 0 min 0,000 mm 3,2 UV-I 520 W/m² 14,9 °C 20,1 °C 1,6 km/h (1 Bft)
18.07.2018 09:44 20,2 °C 69 % 1015,7 hPa 0,0 mm 0,0 km/h (0 Bft) NW 306 ° 1 min 0,000 mm 3,3 UV-I 608 W/m² 14,3 °C 20,2 °C 0,0 km/h (0 Bft)
18.07.2018 09:45 20,3 °C 71 % 1015,7 hPa 0,0 mm 0,3 km/h (0 Bft) NW 306 ° 0 min 0,000 mm 3,4 UV-I 589 W/m² 14,9 °C 20,3 °C 3,2 km/h (1 Bft)
18.07.2018 09:46 20,3 °C 67 % 1015,7 hPa 0,0 mm 1,4 km/h (1 Bft) NW 306 ° 0 min 0,000 mm 3,3 UV-I 589 W/m² 14,0 °C 20,3 °C 3,2 km/h (1 Bft)
18.07.2018 09:47 20,3 °C 66 % 1015,7 hPa 0,0 mm 2,8 km/h (1 Bft) NW 306 ° 0 min 0,000 mm 3,6 UV-I 589 W/m² 13,7 °C 20,3 °C 4,8 km/h (1 Bft)
18.07.2018 09:48 20,4 °C 66 % 1015,7 hPa 0,0 mm 3,1 km/h (1 Bft) N-NW 336 ° 1 min 0,000 mm 3,6 UV-I 613 W/m² 13,8 °C 20,4 °C 4,8 km/h (1 Bft)
18.07.2018 09:49 20,5 °C 65 % 1015,7 hPa 0,0 mm 1,6 km/h (1 Bft) N-NW 336 ° 1 min 0,000 mm 3,7 UV-I 617 W/m² 13,7 °C 20,5 °C 4,8 km/h (1 Bft)
18.07.2018 09:50 20,7 °C 68 % 1015,6 hPa 0,0 mm 2,4 km/h (1 Bft) NW 325 ° 1 min 0,000 mm 3,8 UV-I 617 W/m² 14,6 °C 20,7 °C 3,2 km/h (1 Bft)
18.07.2018 09:51 20,8 °C 66 % 1015,6 hPa 0,0 mm 3,4 km/h (1 Bft) N-NW 343 ° 1 min 0,000 mm 3,8 UV-I 617 W/m² 14,2 °C 20,8 °C 4,8 km/h (1 Bft)
18.07.2018 09:52 20,9 °C 69 % 1015,6 hPa 0,0 mm 3,4 km/h (1 Bft) N-NW 339 ° 1 min 0,000 mm 3,8 UV-I 615 W/m² 15,0 °C 20,9 °C 4,8 km/h (1 Bft)
18.07.2018 09:53 21,0 °C 66 % 1015,6 hPa 0,0 mm 3,8 km/h (1 Bft) N-NW 338 ° 1 min 0,000 mm 3,8 UV-I 615 W/m² 14,4 °C 21,0 °C 4,8 km/h (1 Bft)
18.07.2018 09:54 21,1 °C 67 % 1015,6 hPa 0,0 mm 4,8 km/h (1 Bft) NW 321 ° 1 min 0,000 mm 3,8 UV-I 610 W/m² 14,7 °C 21,1 °C 6,4 km/h (2 Bft)
18.07.2018 09:55 21,1 °C 63 % 1015,6 hPa 0,0 mm 3,2 km/h (1 Bft) N-NW 342 ° 0 min 0,000 mm 3,8 UV-I 596 W/m² 13,8 °C 21,1 °C 6,4 km/h (2 Bft)
18.07.2018 09:56 21,1 °C 66 % 1015,6 hPa 0,0 mm 1,9 km/h (1 Bft) N-NW 342 ° 1 min 0,000 mm 3,9 UV-I 610 W/m² 14,5 °C 21,1 °C 3,2 km/h (1 Bft)
18.07.2018 09:57 21,2 °C 67 % 1015,6 hPa 0,0 mm 3,8 km/h (1 Bft) NW 304 ° 1 min 0,000 mm 3,9 UV-I 610 W/m² 14,8 °C 21,2 °C 6,4 km/h (2 Bft)
18.07.2018 09:58 21,2 °C 62 % 1015,5 hPa 0,0 mm 3,0 km/h (1 Bft) W-NW 303 ° 1 min 0,000 mm 3,9 UV-I 612 W/m² 13,6 °C 21,2 °C 6,4 km/h (2 Bft)
18.07.2018 09:59 21,2 °C 63 % 1015,5 hPa 0,0 mm 0,9 km/h (0 Bft) W-NW 303 ° 1 min 0,000 mm 3,9 UV-I 612 W/m² 13,9 °C 21,2 °C 3,2 km/h (1 Bft)
18.07.2018 10:00 21,3 °C 67 % 1015,5 hPa 0,0 mm 1,5 km/h (1 Bft) W-NW 303 ° 1 min 0,000 mm 4,0 UV-I 613 W/m² 14,9 °C 21,3 °C 3,2 km/h (1 Bft)
18.07.2018 10:01 21,3 °C 63 % 1015,5 hPa 0,0 mm 2,3 km/h (1 Bft) NW 309 ° 1 min 0,254 mm 4,0 UV-I 617 W/m² 14,0 °C 21,3 °C 4,8 km/h (1 Bft)
18.07.2018 10:02 21,4 °C 64 % 1015,5 hPa 0,0 mm 3,8 km/h (1 Bft) N-NW 335 ° 1 min 0,000 mm 4,0 UV-I 617 W/m² 14,3 °C 21,4 °C 4,8 km/h (1 Bft)
18.07.2018 10:03 21,4 °C 64 % 1015,5 hPa 0,0 mm 4,4 km/h (1 Bft) NW 325 ° 1 min 0,000 mm 4,0 UV-I 622 W/m² 14,3 °C 21,4 °C 6,4 km/h (2 Bft)
18.07.2018 10:04 21,5 °C 66 % 1015,5 hPa 0,0 mm 3,1 km/h (1 Bft) NW 322 ° 1 min 0,000 mm 4,1 UV-I 622 W/m² 14,9 °C 21,5 °C 8,0 km/h (2 Bft)
18.07.2018 10:05 21,6 °C 66 % 1015,5 hPa 0,0 mm 4,3 km/h (1 Bft) N 9 ° 1 min 0,000 mm 4,1 UV-I 626 W/m² 15,0 °C 21,6 °C 6,4 km/h (2 Bft)
18.07.2018 10:06 21,8 °C 65 % 1015,5 hPa 0,0 mm 1,2 km/h (1 Bft) W-NW 288 ° 1 min 0,000 mm 4,1 UV-I 629 W/m² 14,9 °C 21,8 °C 6,4 km/h (2 Bft)
18.07.2018 10:07 21,7 °C 63 % 1015,5 hPa 0,0 mm 8,4 km/h (2 Bft) W-NW 291 ° 1 min 0,000 mm 4,1 UV-I 628 W/m² 14,3 °C 21,7 °C 12,9 km/h (3 Bft)
18.07.2018 10:08 21,8 °C 63 % 1015,5 hPa 0,0 mm 5,3 km/h (1 Bft) W 276 ° 1 min 0,000 mm 4,1 UV-I 629 W/m² 14,4 °C 21,8 °C 6,4 km/h (2 Bft)
18.07.2018 10:09 21,8 °C 62 % 1015,5 hPa 0,0 mm 6,4 km/h (2 Bft) W 261 ° 1 min 0,000 mm 4,1 UV-I 628 W/m² 14,2 °C 21,8 °C 9,7 km/h (2 Bft)
18.07.2018 10:10 21,7 °C 61 % 1015,5 hPa 0,0 mm 7,0 km/h (2 Bft) W-NW 294 ° 1 min 0,000 mm 4,2 UV-I 643 W/m² 13,8 °C 21,7 °C 11,3 km/h (2 Bft)
18.07.2018 10:11 21,8 °C 63 % 1015,5 hPa 0,0 mm 5,7 km/h (1 Bft) NW 319 ° 1 min 0,000 mm 4,2 UV-I 656 W/m² 14,4 °C 21,8 °C 8,0 km/h (2 Bft)
18.07.2018 10:12 21,7 °C 62 % 1015,5 hPa 0,0 mm 1,7 km/h (1 Bft) W-NW 285 ° 1 min 0,000 mm 4,2 UV-I 650 W/m² 14,1 °C 21,7 °C 4,8 km/h (1 Bft)
18.07.2018 10:13 21,7 °C 60 % 1015,5 hPa 0,0 mm 1,6 km/h (1 Bft) W-NW 297 ° 1 min 0,000 mm 4,2 UV-I 663 W/m² 13,6 °C 21,7 °C 3,2 km/h (1 Bft)
18.07.2018 10:14 21,7 °C 62 % 1015,4 hPa 0,0 mm 1,8 km/h (1 Bft) W-NW 298 ° 1 min 0,000 mm 4,3 UV-I 673 W/m² 14,1 °C 21,7 °C 4,8 km/h (1 Bft)
18.07.2018 10:15 21,8 °C 64 % 1015,4 hPa 0,0 mm 2,3 km/h (1 Bft) NW 305 ° 1 min 0,000 mm 4,3 UV-I 680 W/m² 14,7 °C 21,8 °C 4,8 km/h (1 Bft)
18.07.2018 10:16 21,8 °C 62 % 1015,4 hPa 0,0 mm 4,0 km/h (1 Bft) W-NW 293 ° 1 min 0,000 mm 4,2 UV-I 619 W/m² 14,2 °C 21,8 °C 4,8 km/h (1 Bft)
18.07.2018 10:17 21,7 °C 59 % 1015,5 hPa 0,0 mm 5,9 km/h (2 Bft) W-NW 292 ° 1 min 0,000 mm 4,2 UV-I 661 W/m² 13,3 °C 21,7 °C 8,0 km/h (2 Bft)
18.07.2018 10:18 21,6 °C 57 % 1015,4 hPa 0,0 mm 0,7 km/h (0 Bft) W-NW 292 ° 1 min 0,000 mm 4,2 UV-I 643 W/m² 12,7 °C 21,6 °C 3,2 km/h (1 Bft)
18.07.2018 10:19 21,4 °C 59 % 1015,4 hPa 0,0 mm 2,0 km/h (1 Bft) W-NW 292 ° 0 min 0,000 mm 4,2 UV-I 584 W/m² 13,0 °C 21,4 °C 3,2 km/h (1 Bft)
18.07.2018 10:20 21,3 °C 60 % 1015,4 hPa 0,0 mm 2,3 km/h (1 Bft) W 276 ° 1 min 0,000 mm 4,3 UV-I 643 W/m² 13,2 °C 21,3 °C 4,8 km/h (1 Bft)
18.07.2018 10:21 21,4 °C 63 % 1015,5 hPa 0,0 mm 3,8 km/h (1 Bft) W-NW 300 ° 1 min 0,000 mm 4,4 UV-I 650 W/m² 14,1 °C 21,4 °C 4,8 km/h (1 Bft)
18.07.2018 10:22 21,4 °C 61 % 1015,5 hPa 0,0 mm 2,7 km/h (1 Bft) W-NW 295 ° 1 min 0,000 mm 4,4 UV-I 650 W/m² 13,6 °C 21,4 °C 4,8 km/h (1 Bft)
18.07.2018 10:23 21,3 °C 60 % 1015,4 hPa 0,0 mm 5,1 km/h (1 Bft) W-NW 283 ° 1 min 0,000 mm 4,4 UV-I 654 W/m² 13,2 °C 21,3 °C 11,3 km/h (2 Bft)
18.07.2018 10:24 21,4 °C 63 % 1015,4 hPa 0,0 mm 6,8 km/h (2 Bft) W 277 ° 1 min 0,000 mm 4,4 UV-I 661 W/m² 14,1 °C 21,4 °C 11,3 km/h (2 Bft)
18.07.2018 10:25 21,6 °C 66 % 1015,4 hPa 0,0 mm 5,7 km/h (1 Bft) W 268 ° 1 min 0,000 mm 4,5 UV-I 661 W/m² 15,0 °C 21,6 °C 9,7 km/h (2 Bft)
18.07.2018 10:26 21,7 °C 65 % 1015,4 hPa 0,0 mm 4,4 km/h (1 Bft) W 268 ° 1 min 0,000 mm 4,5 UV-I 663 W/m² 14,8 °C 21,7 °C 6,4 km/h (2 Bft)
18.07.2018 10:27 21,8 °C 68 % 1015,4 hPa 0,0 mm 5,7 km/h (1 Bft) W 267 ° 1 min 0,000 mm 4,5 UV-I 666 W/m² 15,6 °C 21,8 °C 9,7 km/h (2 Bft)
18.07.2018 10:28 21,8 °C 61 % 1015,4 hPa 0,0 mm 7,5 km/h (2 Bft) W-SW 256 ° 1 min 0,000 mm 4,5 UV-I 668 W/m² 13,9 °C 21,8 °C 11,3 km/h (2 Bft)
18.07.2018 10:29 21,7 °C 60 % 1015,4 hPa 0,0 mm 4,2 km/h (1 Bft) W-SW 256 ° 1 min 0,000 mm 4,6 UV-I 673 W/m² 13,6 °C 21,7 °C 6,4 km/h (2 Bft)
18.07.2018 10:30 21,6 °C 62 % 1015,3 hPa 0,0 mm 2,7 km/h (1 Bft) W-SW 256 ° 1 min 0,000 mm 4,6 UV-I 673 W/m² 14,0 °C 21,6 °C 4,8 km/h (1 Bft)
18.07.2018 10:31 21,6 °C 63 % 1015,4 hPa 0,0 mm 1,7 km/h (1 Bft) W-SW 256 ° 1 min 0,000 mm 4,7 UV-I 679 W/m² 14,2 °C 21,6 °C 3,2 km/h (1 Bft)
18.07.2018 10:32 21,6 °C 59 % 1015,3 hPa 0,0 mm 3,8 km/h (1 Bft) NW 323 ° 1 min 0,000 mm 4,7 UV-I 680 W/m² 13,2 °C 21,6 °C 9,7 km/h (2 Bft)
18.07.2018 10:33 21,6 °C 62 % 1015,4 hPa 0,0 mm 5,8 km/h (2 Bft) NW 317 ° 1 min 0,000 mm 4,7 UV-I 682 W/m² 14,0 °C 21,6 °C 12,9 km/h (3 Bft)
18.07.2018 10:34 21,6 °C 62 % 1015,4 hPa 0,0 mm 5,5 km/h (1 Bft) N-NW 329 ° 1 min 0,000 mm 4,7 UV-I 682 W/m² 14,0 °C 21,6 °C 11,3 km/h (2 Bft)
18.07.2018 10:35 21,7 °C 63 % 1015,4 hPa 0,0 mm 5,6 km/h (1 Bft) N-NW 327 ° 1 min 0,000 mm 4,8 UV-I 687 W/m² 14,3 °C 21,7 °C 9,7 km/h (2 Bft)
18.07.2018 10:36 21,8 °C 64 % 1015,3 hPa 0,0 mm 3,6 km/h (1 Bft) NW 304 ° 1 min 0,000 mm 4,8 UV-I 691 W/m² 14,7 °C 21,8 °C 8,0 km/h (2 Bft)
18.07.2018 10:37 21,9 °C 62 % 1015,3 hPa 0,0 mm 4,0 km/h (1 Bft) W 280 ° 1 min 0,000 mm 4,8 UV-I 694 W/m² 14,3 °C 21,9 °C 9,7 km/h (2 Bft)
18.07.2018 10:38 21,9 °C 61 % 1015,3 hPa 0,0 mm 4,1 km/h (1 Bft) N 355 ° 1 min 0,000 mm 4,9 UV-I 696 W/m² 14,0 °C 21,9 °C 6,4 km/h (2 Bft)
18.07.2018 10:39 22,0 °C 60 % 1015,2 hPa 0,0 mm 6,3 km/h (2 Bft) N-NO 16 ° 1 min 0,000 mm 4,9 UV-I 696 W/m² 13,9 °C 22,0 °C 12,9 km/h (3 Bft)
18.07.2018 10:40 22,0 °C 62 % 1015,3 hPa 0,0 mm 6,0 km/h (2 Bft) N 355 ° 1 min 0,000 mm 4,9 UV-I 698 W/m² 14,4 °C 22,0 °C 8,0 km/h (2 Bft)
18.07.2018 10:41 22,0 °C 61 % 1015,3 hPa 0,0 mm 5,2 km/h (1 Bft) W-NW 294 ° 1 min 0,000 mm 4,9 UV-I 700 W/m² 14,1 °C 22,0 °C 11,3 km/h (2 Bft)
18.07.2018 10:42 22,1 °C 62 % 1015,3 hPa 0,0 mm 6,2 km/h (2 Bft) NW 304 ° 1 min 0,000 mm 4,9 UV-I 701 W/m² 14,5 °C 22,1 °C 9,7 km/h (2 Bft)
18.07.2018 10:43 22,1 °C 61 % 1015,3 hPa 0,0 mm 9,3 km/h (2 Bft) N-NW 341 ° 1 min 0,000 mm 4,9 UV-I 705 W/m² 14,2 °C 22,1 °C 12,9 km/h (3 Bft)
18.07.2018 10:44 22,1 °C 62 % 1015,3 hPa 0,0 mm 7,6 km/h (2 Bft) NW 326 ° 1 min 0,000 mm 5,0 UV-I 708 W/m² 14,5 °C 22,1 °C 11,3 km/h (2 Bft)
18.07.2018 10:45 22,2 °C 65 % 1015,3 hPa 0,0 mm 4,4 km/h (1 Bft) W-NW 300 ° 1 min 0,000 mm 5,0 UV-I 710 W/m² 15,3 °C 22,2 °C 8,0 km/h (2 Bft)
18.07.2018 10:46 22,2 °C 65 % 1015,3 hPa 0,0 mm 4,2 km/h (1 Bft) W-NW 302 ° 1 min 0,000 mm 5,0 UV-I 714 W/m² 15,3 °C 22,2 °C 9,7 km/h (2 Bft)
18.07.2018 10:47 22,1 °C 59 % 1015,3 hPa 0,0 mm 6,3 km/h (2 Bft) NW 323 ° 1 min 0,000 mm 5,0 UV-I 714 W/m² 13,7 °C 22,1 °C 8,0 km/h (2 Bft)
18.07.2018 10:48 22,0 °C 60 % 1015,3 hPa 0,0 mm 6,4 km/h (2 Bft) N-NW 348 ° 1 min 0,000 mm 5,0 UV-I 715 W/m² 13,9 °C 22,0 °C 9,7 km/h (2 Bft)
18.07.2018 10:49 21,9 °C 62 % 1015,3 hPa 0,0 mm 2,8 km/h (1 Bft) N-NW 329 ° 1 min 0,000 mm 5,1 UV-I 724 W/m² 14,3 °C 21,9 °C 6,4 km/h (2 Bft)
18.07.2018 10:50 21,9 °C 60 % 1015,3 hPa 0,0 mm 8,7 km/h (2 Bft) N 355 ° 1 min 0,000 mm 5,1 UV-I 726 W/m² 13,8 °C 21,9 °C 17,7 km/h (3 Bft)
18.07.2018 10:51 21,9 °C 63 % 1015,2 hPa 0,0 mm 9,3 km/h (2 Bft) W 266 ° 1 min 0,000 mm 5,1 UV-I 726 W/m² 14,5 °C 21,9 °C 16,1 km/h (3 Bft)
18.07.2018 10:52 21,9 °C 61 % 1015,3 hPa 0,0 mm 8,0 km/h (2 Bft) NW 321 ° 1 min 0,000 mm 5,1 UV-I 726 W/m² 14,0 °C 21,9 °C 9,7 km/h (2 Bft)
18.07.2018 10:53 22,0 °C 63 % 1015,3 hPa 0,0 mm 6,2 km/h (2 Bft) N-NW 327 ° 1 min 0,000 mm 5,2 UV-I 726 W/m² 14,6 °C 22,0 °C 8,0 km/h (2 Bft)
18.07.2018 10:54 22,0 °C 62 % 1015,3 hPa 0,0 mm 4,1 km/h (1 Bft) W-NW 301 ° 1 min 0,000 mm 5,1 UV-I 726 W/m² 14,4 °C 22,0 °C 8,0 km/h (2 Bft)
18.07.2018 10:55 22,0 °C 60 % 1015,3 hPa 0,0 mm 4,8 km/h (1 Bft) NW 317 ° 1 min 0,000 mm 5,2 UV-I 728 W/m² 13,9 °C 22,0 °C 6,4 km/h (2 Bft)
18.07.2018 10:56 21,9 °C 58 % 1015,3 hPa 0,0 mm 7,5 km/h (2 Bft) N-NW 329 ° 1 min 0,000 mm 5,2 UV-I 731 W/m² 13,3 °C 21,9 °C 12,9 km/h (3 Bft)
18.07.2018 10:57 22,1 °C 61 % 1015,3 hPa 0,0 mm 5,6 km/h (1 Bft) N 360 ° 1 min 0,000 mm 5,2 UV-I 735 W/m² 14,2 °C 22,1 °C 8,0 km/h (2 Bft)
18.07.2018 10:58 22,1 °C 60 % 1015,4 hPa 0,0 mm 6,5 km/h (2 Bft) N-NO 30 ° 1 min 0,000 mm 5,2 UV-I 737 W/m² 14,0 °C 22,1 °C 8,0 km/h (2 Bft)
18.07.2018 10:59 22,1 °C 59 % 1015,3 hPa 0,0 mm 5,4 km/h (1 Bft) N 355 ° 1 min 0,000 mm 5,3 UV-I 742 W/m² 13,7 °C 22,1 °C 6,4 km/h (2 Bft)
18.07.2018 11:00 21,9 °C 59 % 1015,3 hPa 0,0 mm 5,0 km/h (1 Bft) N-NW 342 ° 1 min 0,000 mm 5,3 UV-I 744 W/m² 13,5 °C 21,9 °C 8,0 km/h (2 Bft)
18.07.2018 11:01 22,0 °C 60 % 1015,2 hPa 0,0 mm 2,7 km/h (1 Bft) NW 313 ° 1 min 0,431 mm 5,3 UV-I 744 W/m² 13,9 °C 22,0 °C 4,8 km/h (1 Bft)
18.07.2018 11:02 22,0 °C 59 % 1015,2 hPa 0,0 mm 2,8 km/h (1 Bft) NW 313 ° 1 min 0,000 mm 5,3 UV-I 745 W/m² 13,6 °C 22,0 °C 4,8 km/h (1 Bft)
18.07.2018 11:03 21,9 °C 61 % 1015,3 hPa 0,0 mm 5,7 km/h (1 Bft) N-NW 327 ° 1 min 0,000 mm 5,3 UV-I 747 W/m² 14,0 °C 21,9 °C 9,7 km/h (2 Bft)
18.07.2018 11:04 21,9 °C 60 % 1015,3 hPa 0,0 mm 1,9 km/h (1 Bft) N 351 ° 1 min 0,000 mm 5,3 UV-I 747 W/m² 13,8 °C 21,9 °C 6,4 km/h (2 Bft)
18.07.2018 11:05 22,0 °C 60 % 1015,2 hPa 0,0 mm 1,2 km/h (1 Bft) N 351 ° 1 min 0,000 mm 5,4 UV-I 756 W/m² 13,9 °C 22,0 °C 3,2 km/h (1 Bft)
18.07.2018 11:06 22,1 °C 61 % 1015,2 hPa 0,0 mm 1,5 km/h (1 Bft) N-NW 338 ° 1 min 0,000 mm 5,4 UV-I 756 W/m² 14,2 °C 22,1 °C 6,4 km/h (2 Bft)
18.07.2018 11:07 22,1 °C 61 % 1015,2 hPa 0,0 mm 4,5 km/h (1 Bft) W-NW 298 ° 1 min 0,000 mm 5,5 UV-I 758 W/m² 14,2 °C 22,1 °C 11,3 km/h (2 Bft)
18.07.2018 11:08 22,2 °C 63 % 1015,2 hPa 0,0 mm 6,2 km/h (2 Bft) NW 316 ° 1 min 0,000 mm 5,5 UV-I 763 W/m² 14,8 °C 22,2 °C 11,3 km/h (2 Bft)
18.07.2018 11:09 22,3 °C 61 % 1015,2 hPa 0,0 mm 3,1 km/h (1 Bft) NW 309 ° 1 min 0,000 mm 5,6 UV-I 765 W/m² 14,4 °C 22,3 °C 4,8 km/h (1 Bft)
18.07.2018 11:10 22,4 °C 62 % 1015,2 hPa 0,0 mm 5,8 km/h (2 Bft) NW 324 ° 1 min 0,000 mm 5,6 UV-I 765 W/m² 14,8 °C 22,4 °C 8,0 km/h (2 Bft)
18.07.2018 11:11 22,5 °C 61 % 1015,2 hPa 0,0 mm 5,6 km/h (1 Bft) NW 306 ° 1 min 0,000 mm 5,6 UV-I 768 W/m² 14,6 °C 22,5 °C 8,0 km/h (2 Bft)
18.07.2018 11:12 22,6 °C 61 % 1015,2 hPa 0,0 mm 6,3 km/h (2 Bft) N-NW 330 ° 1 min 0,000 mm 5,6 UV-I 768 W/m² 14,7 °C 22,6 °C 12,9 km/h (3 Bft)
18.07.2018 11:13 22,6 °C 62 % 1015,2 hPa 0,0 mm 1,8 km/h (1 Bft) N-NW 336 ° 1 min 0,000 mm 5,6 UV-I 766 W/m² 14,9 °C 22,6 °C 3,2 km/h (1 Bft)
18.07.2018 11:14 22,4 °C 57 % 1015,2 hPa 0,0 mm 0,1 km/h (0 Bft) N-NW 336 ° 1 min 0,000 mm 5,6 UV-I 768 W/m² 13,5 °C 22,4 °C 1,6 km/h (1 Bft)
18.07.2018 11:15 22,2 °C 62 % 1015,1 hPa 0,0 mm 1,3 km/h (1 Bft) NW 325 ° 1 min 0,000 mm 5,6 UV-I 770 W/m² 14,6 °C 22,2 °C 3,2 km/h (1 Bft)
18.07.2018 11:16 22,3 °C 60 % 1015,2 hPa 0,0 mm 5,1 km/h (1 Bft) W 273 ° 1 min 0,000 mm 5,6 UV-I 768 W/m² 14,2 °C 22,3 °C 8,0 km/h (2 Bft)
18.07.2018 11:17 22,3 °C 61 % 1015,1 hPa 0,0 mm 5,3 km/h (1 Bft) NW 320 ° 1 min 0,000 mm 5,6 UV-I 770 W/m² 14,4 °C 22,3 °C 8,0 km/h (2 Bft)
18.07.2018 11:18 22,4 °C 60 % 1015,1 hPa 0,0 mm 5,2 km/h (1 Bft) W 274 ° 1 min 0,000 mm 5,7 UV-I 772 W/m² 14,2 °C 22,4 °C 9,7 km/h (2 Bft)
18.07.2018 11:19 22,5 °C 61 % 1015,1 hPa 0,0 mm 3,6 km/h (1 Bft) W-NW 283 ° 1 min 0,000 mm 5,7 UV-I 775 W/m² 14,6 °C 22,5 °C 6,4 km/h (2 Bft)
18.07.2018 11:20 22,5 °C 61 % 1015,1 hPa 0,0 mm 5,4 km/h (1 Bft) W-SW 257 ° 1 min 0,000 mm 5,7 UV-I 775 W/m² 14,6 °C 22,5 °C 9,7 km/h (2 Bft)
18.07.2018 11:21 22,4 °C 59 % 1015,1 hPa 0,0 mm 8,9 km/h (2 Bft) W-NW 288 ° 1 min 0,000 mm 5,7 UV-I 779 W/m² 14,0 °C 22,4 °C 11,3 km/h (2 Bft)
18.07.2018 11:22 22,4 °C 60 % 1015,1 hPa 0,0 mm 5,8 km/h (2 Bft) W-NW 293 ° 1 min 0,000 mm 5,8 UV-I 780 W/m² 14,2 °C 22,4 °C 11,3 km/h (2 Bft)
18.07.2018 11:23 22,5 °C 59 % 1015,1 hPa 0,0 mm 4,2 km/h (1 Bft) W-NW 294 ° 1 min 0,000 mm 5,8 UV-I 782 W/m² 14,1 °C 22,5 °C 4,8 km/h (1 Bft)
18.07.2018 11:24 22,5 °C 59 % 1015,1 hPa 0,0 mm 4,2 km/h (1 Bft) N-NW 337 ° 1 min 0,000 mm 5,8 UV-I 782 W/m² 14,1 °C 22,5 °C 6,4 km/h (2 Bft)
18.07.2018 11:25 22,4 °C 60 % 1015,1 hPa 0,0 mm 5,6 km/h (1 Bft) W-NW 296 ° 1 min 0,000 mm 5,8 UV-I 782 W/m² 14,2 °C 22,4 °C 9,7 km/h (2 Bft)
18.07.2018 11:26 22,4 °C 59 % 1015,1 hPa 0,0 mm 0,3 km/h (0 Bft) W-NW 296 ° 1 min 0,000 mm 5,8 UV-I 784 W/m² 14,0 °C 22,4 °C 3,2 km/h (1 Bft)
18.07.2018 11:27 22,4 °C 58 % 1015,0 hPa 0,0 mm 0,2 km/h (0 Bft) W-NW 296 ° 1 min 0,000 mm 5,8 UV-I 786 W/m² 13,7 °C 22,4 °C 1,6 km/h (1 Bft)
18.07.2018 11:28 22,4 °C 56 % 1015,1 hPa 0,0 mm 1,6 km/h (1 Bft) W-NW 296 ° 1 min 0,000 mm 5,8 UV-I 789 W/m² 13,2 °C 22,4 °C 3,2 km/h (1 Bft)
18.07.2018 11:29 22,4 °C 60 % 1015,1 hPa 0,0 mm 0,4 km/h (0 Bft) W-NW 296 ° 1 min 0,000 mm 5,8 UV-I 791 W/m² 14,2 °C 22,4 °C 1,6 km/h (1 Bft)
18.07.2018 11:30 22,6 °C 62 % 1015,1 hPa 0,0 mm 3,8 km/h (1 Bft) NW 308 ° 1 min 0,000 mm 5,9 UV-I 793 W/m² 14,9 °C 22,6 °C 6,4 km/h (2 Bft)
18.07.2018 11:31 22,7 °C 60 % 1015,1 hPa 0,0 mm 4,6 km/h (1 Bft) W-SW 246 ° 1 min 0,000 mm 5,9 UV-I 795 W/m² 14,5 °C 22,7 °C 6,4 km/h (2 Bft)
18.07.2018 11:32 22,7 °C 63 % 1015,1 hPa 0,0 mm 4,1 km/h (1 Bft) W 281 ° 1 min 0,000 mm 6,0 UV-I 802 W/m² 15,3 °C 22,7 °C 6,4 km/h (2 Bft)
18.07.2018 11:33 22,7 °C 61 % 1015,1 hPa 0,0 mm 1,8 km/h (1 Bft) W 281 ° 1 min 0,000 mm 5,9 UV-I 798 W/m² 14,8 °C 22,7 °C 3,2 km/h (1 Bft)
18.07.2018 11:34 22,7 °C 59 % 1015,1 hPa 0,0 mm 3,4 km/h (1 Bft) W-NW 290 ° 1 min 0,000 mm 5,9 UV-I 805 W/m² 14,3 °C 22,7 °C 6,4 km/h (2 Bft)
18.07.2018 11:35 22,6 °C 59 % 1015,1 hPa 0,0 mm 2,9 km/h (1 Bft) NW 310 ° 1 min 0,000 mm 6,0 UV-I 807 W/m² 14,2 °C 22,6 °C 3,2 km/h (1 Bft)
18.07.2018 11:36 22,7 °C 61 % 1015,1 hPa 0,0 mm 5,2 km/h (1 Bft) NW 324 ° 1 min 0,000 mm 6,0 UV-I 805 W/m² 14,8 °C 22,7 °C 8,0 km/h (2 Bft)
18.07.2018 11:37 22,8 °C 59 % 1015,1 hPa 0,0 mm 5,9 km/h (2 Bft) W-NW 300 ° 1 min 0,000 mm 6,1 UV-I 807 W/m² 14,4 °C 22,8 °C 9,7 km/h (2 Bft)
18.07.2018 11:38 22,9 °C 60 % 1015,1 hPa 0,0 mm 7,2 km/h (2 Bft) W-NW 286 ° 1 min 0,000 mm 6,1 UV-I 809 W/m² 14,7 °C 22,9 °C 12,9 km/h (3 Bft)
18.07.2018 11:39 22,9 °C 59 % 1015,1 hPa 0,0 mm 8,2 km/h (2 Bft) W-NW 283 ° 1 min 0,000 mm 6,1 UV-I 814 W/m² 14,5 °C 22,9 °C 11,3 km/h (2 Bft)
18.07.2018 11:40 22,9 °C 57 % 1015,2 hPa 0,0 mm 6,0 km/h (2 Bft) N-NW 342 ° 1 min 0,000 mm 6,1 UV-I 809 W/m² 13,9 °C 22,9 °C 11,3 km/h (2 Bft)
18.07.2018 11:41 22,8 °C 60 % 1015,1 hPa 0,0 mm 6,9 km/h (2 Bft) W-NW 286 ° 1 min 0,000 mm 6,0 UV-I 814 W/m² 14,6 °C 22,8 °C 9,7 km/h (2 Bft)
18.07.2018 11:42 22,9 °C 62 % 1015,2 hPa 0,0 mm 3,8 km/h (1 Bft) NW 323 ° 1 min 0,000 mm 6,1 UV-I 814 W/m² 15,2 °C 22,9 °C 9,7 km/h (2 Bft)
18.07.2018 11:43 23,0 °C 60 % 1015,2 hPa 0,0 mm 11,3 km/h (2 Bft) NW 323 ° 1 min 0,000 mm 6,1 UV-I 816 W/m² 14,8 °C 23,0 °C 16,1 km/h (3 Bft)
18.07.2018 11:44 23,1 °C 59 % 1015,2 hPa 0,0 mm 5,6 km/h (1 Bft) N-NW 337 ° 1 min 0,000 mm 6,2 UV-I 821 W/m² 14,6 °C 23,1 °C 8,0 km/h (2 Bft)
18.07.2018 11:45 23,1 °C 57 % 1015,2 hPa 0,0 mm 2,9 km/h (1 Bft) N 355 ° 1 min 0,000 mm 6,2 UV-I 826 W/m² 14,1 °C 23,1 °C 4,8 km/h (1 Bft)
18.07.2018 11:46 23,1 °C 62 % 1015,1 hPa 0,0 mm 3,4 km/h (1 Bft) N-NW 331 ° 1 min 0,000 mm 6,2 UV-I 824 W/m² 15,4 °C 23,1 °C 6,4 km/h (2 Bft)
18.07.2018 11:47 23,2 °C 61 % 1015,1 hPa 0,0 mm 4,0 km/h (1 Bft) N-NW 329 ° 1 min 0,000 mm 6,2 UV-I 828 W/m² 15,3 °C 23,2 °C 6,4 km/h (2 Bft)
18.07.2018 11:48 23,2 °C 58 % 1015,1 hPa 0,0 mm 6,0 km/h (2 Bft) N-NW 345 ° 1 min 0,000 mm 6,2 UV-I 830 W/m² 14,5 °C 23,2 °C 8,0 km/h (2 Bft)
18.07.2018 11:49 23,2 °C 57 % 1015,1 hPa 0,0 mm 5,6 km/h (1 Bft) N-NW 327 ° 1 min 0,000 mm 6,3 UV-I 842 W/m² 14,2 °C 23,2 °C 8,0 km/h (2 Bft)
18.07.2018 11:50 23,3 °C 61 % 1015,1 hPa 0,0 mm 6,8 km/h (2 Bft) NW 314 ° 1 min 0,000 mm 6,3 UV-I 851 W/m² 15,3 °C 23,3 °C 9,7 km/h (2 Bft)
18.07.2018 11:51 23,3 °C 57 % 1015,2 hPa 0,0 mm 6,3 km/h (2 Bft) NW 321 ° 1 min 0,000 mm 6,3 UV-I 858 W/m² 14,3 °C 23,3 °C 14,5 km/h (3 Bft)
18.07.2018 11:52 23,3 °C 59 % 1015,2 hPa 0,0 mm 8,0 km/h (2 Bft) W-NW 294 ° 1 min 0,000 mm 6,3 UV-I 858 W/m² 14,8 °C 23,3 °C 11,3 km/h (2 Bft)
18.07.2018 11:53 23,2 °C 55 % 1015,2 hPa 0,0 mm 4,7 km/h (1 Bft) NW 304 ° 1 min 0,000 mm 6,4 UV-I 875 W/m² 13,6 °C 23,2 °C 9,7 km/h (2 Bft)
18.07.2018 11:54 23,1 °C 56 % 1015,2 hPa 0,0 mm 2,9 km/h (1 Bft) W-NW 288 ° 1 min 0,000 mm 6,4 UV-I 875 W/m² 13,8 °C 23,1 °C 4,8 km/h (1 Bft)
18.07.2018 11:55 23,1 °C 56 % 1015,2 hPa 0,0 mm 6,0 km/h (2 Bft) W 281 ° 1 min 0,000 mm 6,4 UV-I 865 W/m² 13,8 °C 23,1 °C 9,7 km/h (2 Bft)
18.07.2018 11:56 22,9 °C 56 % 1015,2 hPa 0,0 mm 3,6 km/h (1 Bft) NW 319 ° 1 min 0,000 mm 6,4 UV-I 858 W/m² 13,6 °C 22,9 °C 6,4 km/h (2 Bft)
18.07.2018 11:57 23,0 °C 56 % 1015,2 hPa 0,0 mm 4,2 km/h (1 Bft) W-NW 302 ° 1 min 0,000 mm 6,3 UV-I 858 W/m² 13,7 °C 23,0 °C 6,4 km/h (2 Bft)
18.07.2018 11:58 22,9 °C 56 % 1015,2 hPa 0,0 mm 1,8 km/h (1 Bft) NW 326 ° 1 min 0,000 mm 6,1 UV-I 865 W/m² 13,6 °C 22,9 °C 3,2 km/h (1 Bft)
18.07.2018 11:59 22,8 °C 56 % 1015,1 hPa 0,0 mm 2,5 km/h (1 Bft) NW 326 ° 1 min 0,000 mm 3,7 UV-I 865 W/m² 13,6 °C 22,8 °C 4,8 km/h (1 Bft)
18.07.2018 12:00 22,8 °C 58 % 1015,2 hPa 0,0 mm 6,2 km/h (2 Bft) W-NW 284 ° 1 min 0,000 mm 4,6 UV-I 865 W/m² 14,1 °C 22,8 °C 11,3 km/h (2 Bft)
18.07.2018 12:01 22,8 °C 62 % 1015,1 hPa 0,0 mm 6,0 km/h (2 Bft) W 260 ° 1 min 0,508 mm 6,4 UV-I 865 W/m² 15,1 °C 22,8 °C 9,7 km/h (2 Bft)
18.07.2018 12:02 22,8 °C 61 % 1015,1 hPa 0,0 mm 9,7 km/h (2 Bft) W 272 ° 1 min 0,000 mm 6,5 UV-I 865 W/m² 14,9 °C 22,8 °C 12,9 km/h (3 Bft)
18.07.2018 12:03 22,8 °C 56 % 1015,2 hPa 0,0 mm 6,0 km/h (2 Bft) W-NW 290 ° 1 min 0,000 mm 6,5 UV-I 865 W/m² 13,6 °C 22,8 °C 11,3 km/h (2 Bft)
18.07.2018 12:04 22,8 °C 59 % 1015,1 hPa 0,0 mm 4,1 km/h (1 Bft) W 279 ° 1 min 0,000 mm 6,5 UV-I 860 W/m² 14,4 °C 22,8 °C 6,4 km/h (2 Bft)
18.07.2018 12:05 23,0 °C 58 % 1015,1 hPa 0,0 mm 2,1 km/h (1 Bft) W-SW 250 ° 1 min 0,000 mm 6,5 UV-I 856 W/m² 14,3 °C 23,0 °C 4,8 km/h (1 Bft)
18.07.2018 12:06 23,2 °C 60 % 1015,1 hPa 0,0 mm 7,4 km/h (2 Bft) W 275 ° 1 min 0,000 mm 6,5 UV-I 860 W/m² 15,0 °C 23,2 °C 9,7 km/h (2 Bft)
18.07.2018 12:07 23,2 °C 58 % 1015,1 hPa 0,0 mm 3,8 km/h (1 Bft) W 268 ° 1 min 0,000 mm 6,5 UV-I 858 W/m² 14,5 °C 23,2 °C 11,3 km/h (2 Bft)
18.07.2018 12:08 23,3 °C 58 % 1015,1 hPa 0,0 mm 7,0 km/h (2 Bft) W-NW 286 ° 1 min 0,000 mm 6,5 UV-I 863 W/m² 14,6 °C 23,3 °C 11,3 km/h (2 Bft)
18.07.2018 12:09 23,4 °C 56 % 1015,1 hPa 0,0 mm 6,8 km/h (2 Bft) W-NW 287 ° 1 min 0,000 mm 6,6 UV-I 879 W/m² 14,1 °C 23,4 °C 11,3 km/h (2 Bft)
18.07.2018 12:10 23,4 °C 59 % 1015,1 hPa 0,0 mm 5,4 km/h (1 Bft) W-NW 293 ° 1 min 0,000 mm 6,7 UV-I 888 W/m² 14,9 °C 23,4 °C 8,0 km/h (2 Bft)
18.07.2018 12:11 23,4 °C 56 % 1015,1 hPa 0,0 mm 7,1 km/h (2 Bft) W-SW 246 ° 1 min 0,000 mm 6,7 UV-I 898 W/m² 14,1 °C 23,4 °C 11,3 km/h (2 Bft)
18.07.2018 12:12 23,4 °C 56 % 1015,1 hPa 0,0 mm 6,0 km/h (2 Bft) W-SW 249 ° 1 min 0,000 mm 6,8 UV-I 900 W/m² 14,1 °C 23,4 °C 8,0 km/h (2 Bft)
18.07.2018 12:13 23,4 °C 55 % 1015,1 hPa 0,0 mm 6,3 km/h (2 Bft) W 259 ° 1 min 0,000 mm 6,8 UV-I 911 W/m² 13,8 °C 23,4 °C 9,7 km/h (2 Bft)
18.07.2018 12:14 23,3 °C 55 % 1015,1 hPa 0,0 mm 1,9 km/h (1 Bft) W 259 ° 1 min 0,000 mm 6,9 UV-I 921 W/m² 13,7 °C 23,3 °C 3,2 km/h (1 Bft)
18.07.2018 12:15 23,3 °C 58 % 1015,1 hPa 0,0 mm 3,0 km/h (1 Bft) W 259 ° 1 min 0,000 mm 6,9 UV-I 932 W/m² 14,6 °C 23,3 °C 4,8 km/h (1 Bft)
18.07.2018 12:16 23,3 °C 56 % 1015,1 hPa 0,0 mm 1,4 km/h (1 Bft) W 278 ° 1 min 0,000 mm 7,0 UV-I 939 W/m² 14,0 °C 23,3 °C 3,2 km/h (1 Bft)
18.07.2018 12:17 23,2 °C 57 % 1015,0 hPa 0,0 mm 3,1 km/h (1 Bft) W 278 ° 1 min 0,000 mm 7,0 UV-I 942 W/m² 14,2 °C 23,2 °C 4,8 km/h (1 Bft)
18.07.2018 12:18 23,3 °C 58 % 1015,1 hPa 0,0 mm 2,3 km/h (1 Bft) W 278 ° 1 min 0,000 mm 7,0 UV-I 942 W/m² 14,6 °C 23,3 °C 3,2 km/h (1 Bft)
18.07.2018 12:19 23,3 °C 57 % 1015,1 hPa 0,0 mm 0,9 km/h (0 Bft) W 278 ° 1 min 0,000 mm 6,9 UV-I 958 W/m² 14,3 °C 23,3 °C 3,2 km/h (1 Bft)
18.07.2018 12:20 23,3 °C 58 % 1015,1 hPa 0,0 mm 3,5 km/h (1 Bft) N-NW 341 ° 1 min 0,000 mm 5,7 UV-I 958 W/m² 14,6 °C 23,3 °C 4,8 km/h (1 Bft)
18.07.2018 12:21 23,3 °C 58 % 1015,1 hPa 0,0 mm 2,7 km/h (1 Bft) NW 309 ° 1 min 0,000 mm 6,6 UV-I 958 W/m² 14,6 °C 23,3 °C 6,4 km/h (2 Bft)
18.07.2018 12:22 23,3 °C 57 % 1015,1 hPa 0,0 mm 5,5 km/h (1 Bft) NW 319 ° 1 min 0,000 mm 3,3 UV-I 958 W/m² 14,3 °C 23,3 °C 8,0 km/h (2 Bft)
18.07.2018 12:23 23,2 °C 57 % 1015,1 hPa 0,0 mm 3,6 km/h (1 Bft) NW 309 ° 0 min 0,000 mm 3,3 UV-I 172 W/m² 14,2 °C 23,2 °C 4,8 km/h (1 Bft)
18.07.2018 12:24 23,0 °C 55 % 1015,0 hPa 0,0 mm 2,9 km/h (1 Bft) W-NW 294 ° 0 min 0,000 mm 3,4 UV-I 183 W/m² 13,5 °C 23,0 °C 4,8 km/h (1 Bft)
18.07.2018 12:25 22,7 °C 56 % 1015,0 hPa 0,0 mm 1,6 km/h (1 Bft) W-NW 294 ° 0 min 0,000 mm 3,5 UV-I 199 W/m² 13,5 °C 22,7 °C 3,2 km/h (1 Bft)
18.07.2018 12:26 22,6 °C 58 % 1015,0 hPa 0,0 mm 0,0 km/h (0 Bft) W-NW 294 ° 0 min 0,000 mm 6,0 UV-I 239 W/m² 13,9 °C 22,6 °C 0,0 km/h (0 Bft)
18.07.2018 12:27 22,6 °C 59 % 1015,0 hPa 0,0 mm 0,1 km/h (0 Bft) W-NW 294 ° 0 min 0,000 mm 6,9 UV-I 239 W/m² 14,2 °C 22,6 °C 1,6 km/h (1 Bft)
18.07.2018 12:28 22,6 °C 56 % 1015,0 hPa 0,0 mm 1,7 km/h (1 Bft) W 281 ° 0 min 0,000 mm 4,1 UV-I 239 W/m² 13,4 °C 22,6 °C 4,8 km/h (1 Bft)
18.07.2018 12:29 22,5 °C 57 % 1015,0 hPa 0,0 mm 1,1 km/h (1 Bft) NW 307 ° 0 min 0,000 mm 3,8 UV-I 239 W/m² 13,5 °C 22,5 °C 3,2 km/h (1 Bft)
18.07.2018 12:30 22,5 °C 59 % 1015,0 hPa 0,0 mm 3,4 km/h (1 Bft) N-NW 346 ° 0 min 0,000 mm 6,8 UV-I 239 W/m² 14,1 °C 22,5 °C 4,8 km/h (1 Bft)
18.07.2018 12:31 22,7 °C 59 % 1015,0 hPa 0,0 mm 7,0 km/h (2 Bft) N 5 ° 0 min 0,000 mm 6,7 UV-I 239 W/m² 14,3 °C 22,7 °C 9,7 km/h (2 Bft)
18.07.2018 12:32 22,9 °C 58 % 1015,0 hPa 0,0 mm 5,9 km/h (2 Bft) W-NW 292 ° 1 min 0,000 mm 6,5 UV-I 986 W/m² 14,2 °C 22,9 °C 8,0 km/h (2 Bft)
18.07.2018 12:33 23,1 °C 57 % 1015,0 hPa 0,0 mm 3,7 km/h (1 Bft) W-NW 297 ° 1 min 0,000 mm 3,7 UV-I 986 W/m² 14,1 °C 23,1 °C 6,4 km/h (2 Bft)
18.07.2018 12:34 23,0 °C 55 % 1015,0 hPa 0,0 mm 7,8 km/h (2 Bft) NW 310 ° 0 min 0,000 mm 3,0 UV-I 158 W/m² 13,5 °C 23,0 °C 14,5 km/h (3 Bft)
18.07.2018 12:35 22,8 °C 54 % 1015,0 hPa 0,0 mm 3,2 km/h (1 Bft) NW 315 ° 0 min 0,000 mm 3,0 UV-I 151 W/m² 13,0 °C 22,8 °C 8,0 km/h (2 Bft)
18.07.2018 12:36 22,7 °C 55 % 1015,0 hPa 0,0 mm 5,0 km/h (1 Bft) W-NW 292 ° 0 min 0,000 mm 3,1 UV-I 151 W/m² 13,2 °C 22,7 °C 11,3 km/h (2 Bft)
18.07.2018 12:37 22,5 °C 54 % 1015,0 hPa 0,0 mm 6,4 km/h (2 Bft) W-NW 296 ° 0 min 0,000 mm 3,1 UV-I 146 W/m² 12,7 °C 22,5 °C 11,3 km/h (2 Bft)
18.07.2018 12:38 22,3 °C 56 % 1015,1 hPa 0,0 mm 6,7 km/h (2 Bft) W 265 ° 0 min 0,000 mm 3,5 UV-I 162 W/m² 13,1 °C 22,3 °C 9,7 km/h (2 Bft)
18.07.2018 12:39 22,3 °C 57 % 1015,1 hPa 0,0 mm 5,0 km/h (1 Bft) W-NW 286 ° 1 min 0,000 mm 6,7 UV-I 940 W/m² 13,4 °C 22,3 °C 6,4 km/h (2 Bft)
18.07.2018 12:40 22,4 °C 57 % 1015,1 hPa 0,0 mm 3,6 km/h (1 Bft) W-NW 286 ° 1 min 0,000 mm 7,0 UV-I 937 W/m² 13,5 °C 22,4 °C 6,4 km/h (2 Bft)
18.07.2018 12:41 22,6 °C 58 % 1015,0 hPa 0,0 mm 5,8 km/h (2 Bft) NW 315 ° 1 min 0,000 mm 7,1 UV-I 937 W/m² 13,9 °C 22,6 °C 6,4 km/h (2 Bft)
18.07.2018 12:42 22,8 °C 59 % 1015,0 hPa 0,0 mm 4,9 km/h (1 Bft) NW 315 ° 1 min 0,000 mm 7,1 UV-I 939 W/m² 14,4 °C 22,8 °C 8,0 km/h (2 Bft)
18.07.2018 12:43 23,0 °C 57 % 1015,1 hPa 0,0 mm 3,5 km/h (1 Bft) NW 315 ° 1 min 0,000 mm 7,1 UV-I 940 W/m² 14,0 °C 23,0 °C 8,0 km/h (2 Bft)
18.07.2018 12:44 23,0 °C 53 % 1015,0 hPa 0,0 mm 0,1 km/h (0 Bft) NW 315 ° 1 min 0,000 mm 7,1 UV-I 944 W/m² 12,9 °C 23,0 °C 1,6 km/h (1 Bft)
18.07.2018 12:45 22,9 °C 55 % 1015,0 hPa 0,0 mm 0,0 km/h (0 Bft) NW 315 ° 1 min 0,000 mm 7,1 UV-I 944 W/m² 13,4 °C 22,9 °C 0,0 km/h (0 Bft)
18.07.2018 12:46 22,9 °C 58 % 1015,0 hPa 0,0 mm 0,5 km/h (0 Bft) NW 315 ° 1 min 0,000 mm 7,1 UV-I 947 W/m² 14,2 °C 22,9 °C 1,6 km/h (1 Bft)
18.07.2018 12:47 22,9 °C 58 % 1015,0 hPa 0,0 mm 1,7 km/h (1 Bft) W-NW 302 ° 1 min 0,000 mm 7,1 UV-I 949 W/m² 14,2 °C 22,9 °C 3,2 km/h (1 Bft)
18.07.2018 12:48 23,0 °C 55 % 1014,9 hPa 0,0 mm 1,7 km/h (1 Bft) W-NW 302 ° 1 min 0,000 mm 6,9 UV-I 954 W/m² 13,5 °C 23,0 °C 4,8 km/h (1 Bft)
18.07.2018 12:49 23,1 °C 54 % 1014,9 hPa 0,0 mm 0,0 km/h (0 Bft) W-NW 302 ° 1 min 0,000 mm 6,8 UV-I 960 W/m² 13,3 °C 23,1 °C 0,0 km/h (0 Bft)
18.07.2018 12:50 23,1 °C 54 % 1014,9 hPa 0,0 mm 0,1 km/h (0 Bft) W-NW 302 ° 1 min 0,000 mm 6,3 UV-I 933 W/m² 13,3 °C 23,1 °C 1,6 km/h (1 Bft)
18.07.2018 12:51 23,1 °C 55 % 1014,9 hPa 0,0 mm 2,7 km/h (1 Bft) W 281 ° 1 min 0,000 mm 3,8 UV-I 933 W/m² 13,6 °C 23,1 °C 4,8 km/h (1 Bft)
18.07.2018 12:52 23,1 °C 56 % 1014,9 hPa 0,0 mm 5,5 km/h (1 Bft) NW 306 ° 1 min 0,000 mm 7,2 UV-I 958 W/m² 13,8 °C 23,1 °C 11,3 km/h (2 Bft)
18.07.2018 12:53 23,2 °C 53 % 1014,9 hPa 0,0 mm 5,0 km/h (1 Bft) NW 313 ° 1 min 0,000 mm 7,4 UV-I 963 W/m² 13,1 °C 23,2 °C 9,7 km/h (2 Bft)
18.07.2018 12:54 23,4 °C 60 % 1015,0 hPa 0,0 mm 6,7 km/h (2 Bft) W 268 ° 1 min 0,000 mm 7,4 UV-I 963 W/m² 15,2 °C 23,4 °C 9,7 km/h (2 Bft)
18.07.2018 12:55 23,5 °C 54 % 1015,0 hPa 0,0 mm 6,6 km/h (2 Bft) N-NW 329 ° 1 min 0,000 mm 7,4 UV-I 962 W/m² 13,6 °C 23,5 °C 9,7 km/h (2 Bft)
18.07.2018 12:56 23,6 °C 54 % 1014,9 hPa 0,0 mm 2,2 km/h (1 Bft) W-NW 298 ° 1 min 0,000 mm 7,3 UV-I 963 W/m² 13,7 °C 23,6 °C 6,4 km/h (2 Bft)
18.07.2018 12:57 23,8 °C 57 % 1014,9 hPa 0,0 mm 7,5 km/h (2 Bft) W-NW 294 ° 1 min 0,000 mm 7,3 UV-I 965 W/m² 14,8 °C 23,8 °C 11,3 km/h (2 Bft)
18.07.2018 12:58 23,8 °C 56 % 1014,9 hPa 0,0 mm 6,2 km/h (2 Bft) NW 320 ° 1 min 0,000 mm 7,4 UV-I 967 W/m² 14,5 °C 23,8 °C 11,3 km/h (2 Bft)
18.07.2018 12:59 23,9 °C 52 % 1014,9 hPa 0,0 mm 5,3 km/h (1 Bft) N-NW 338 ° 1 min 0,000 mm 7,4 UV-I 970 W/m² 13,4 °C 23,9 °C 9,7 km/h (2 Bft)
18.07.2018 13:00 23,9 °C 51 % 1015,0 hPa 0,0 mm 3,7 km/h (1 Bft) NW 309 ° 1 min 0,000 mm 7,3 UV-I 969 W/m² 13,1 °C 23,9 °C 8,0 km/h (2 Bft)
18.07.2018 13:01 23,9 °C 53 % 1015,0 hPa 0,0 mm 0,3 km/h (0 Bft) NW 309 ° 1 min 0,483 mm 7,3 UV-I 962 W/m² 13,7 °C 23,9 °C 1,6 km/h (1 Bft)
18.07.2018 13:02 23,7 °C 50 % 1014,9 hPa 0,0 mm 1,0 km/h (0 Bft) NW 309 ° 1 min 0,000 mm 7,2 UV-I 958 W/m² 12,6 °C 23,7 °C 3,2 km/h (1 Bft)
18.07.2018 13:03 23,7 °C 53 % 1014,9 hPa 0,0 mm 4,8 km/h (1 Bft) NW 309 ° 1 min 0,000 mm 7,3 UV-I 956 W/m² 13,5 °C 23,7 °C 6,4 km/h (2 Bft)
18.07.2018 13:04 23,8 °C 55 % 1014,9 hPa 0,0 mm 4,4 km/h (1 Bft) N 355 ° 1 min 0,000 mm 7,4 UV-I 958 W/m² 14,2 °C 23,8 °C 6,4 km/h (2 Bft)
18.07.2018 13:05 23,9 °C 54 % 1014,8 hPa 0,0 mm 3,8 km/h (1 Bft) N 355 ° 1 min 0,000 mm 7,4 UV-I 965 W/m² 14,0 °C 23,9 °C 6,4 km/h (2 Bft)
18.07.2018 13:06 23,9 °C 53 % 1014,8 hPa 0,0 mm 2,0 km/h (1 Bft) N 355 ° 1 min 0,000 mm 3,7 UV-I 965 W/m² 13,7 °C 23,9 °C 6,4 km/h (2 Bft)
18.07.2018 13:07 23,8 °C 52 % 1014,8 hPa 0,0 mm 6,9 km/h (2 Bft) N-NW 338 ° 1 min 0,000 mm 3,9 UV-I 965 W/m² 13,3 °C 23,8 °C 11,3 km/h (2 Bft)
18.07.2018 13:08 23,8 °C 55 % 1014,8 hPa 0,0 mm 3,5 km/h (1 Bft) W 280 ° 1 min 0,000 mm 7,1 UV-I 965 W/m² 14,2 °C 23,8 °C 4,8 km/h (1 Bft)
18.07.2018 13:09 23,7 °C 52 % 1014,9 hPa 0,0 mm 0,9 km/h (0 Bft) W 280 ° 1 min 0,000 mm 7,3 UV-I 954 W/m² 13,2 °C 23,7 °C 3,2 km/h (1 Bft)
18.07.2018 13:10 23,7 °C 54 % 1014,8 hPa 0,0 mm 3,0 km/h (1 Bft) W 264 ° 1 min 0,000 mm 7,3 UV-I 960 W/m² 13,8 °C 23,7 °C 4,8 km/h (1 Bft)
18.07.2018 13:11 23,8 °C 53 % 1014,9 hPa 0,0 mm 4,2 km/h (1 Bft) W 263 ° 1 min 0,000 mm 7,4 UV-I 967 W/m² 13,6 °C 23,8 °C 9,7 km/h (2 Bft)
18.07.2018 13:12 23,9 °C 57 % 1014,8 hPa 0,0 mm 2,2 km/h (1 Bft) W 280 ° 1 min 0,000 mm 7,4 UV-I 967 W/m² 14,9 °C 23,9 °C 9,7 km/h (2 Bft)
18.07.2018 13:13 23,9 °C 52 % 1014,8 hPa 0,0 mm 1,7 km/h (1 Bft) W 280 ° 1 min 0,000 mm 7,4 UV-I 972 W/m² 13,4 °C 23,9 °C 6,4 km/h (2 Bft)
18.07.2018 13:14 24,0 °C 55 % 1014,8 hPa 0,0 mm 0,9 km/h (0 Bft) W 280 ° 1 min 0,000 mm 7,4 UV-I 962 W/m² 14,4 °C 24,0 °C 3,2 km/h (1 Bft)
18.07.2018 13:15 23,9 °C 51 % 1014,8 hPa 0,0 mm 1,3 km/h (1 Bft) W 280 ° 1 min 0,000 mm 7,3 UV-I 962 W/m² 13,1 °C 23,9 °C 4,8 km/h (1 Bft)
18.07.2018 13:16 23,9 °C 53 % 1014,8 hPa 0,0 mm 7,0 km/h (2 Bft) W-NW 286 ° 1 min 0,000 mm 7,4 UV-I 963 W/m² 13,7 °C 23,9 °C 12,9 km/h (3 Bft)
18.07.2018 13:17 24,2 °C 56 % 1014,8 hPa 0,0 mm 8,9 km/h (2 Bft) W 279 ° 1 min 0,000 mm 7,4 UV-I 969 W/m² 14,9 °C 24,2 °C 12,9 km/h (3 Bft)
18.07.2018 13:18 24,2 °C 54 % 1014,8 hPa 0,0 mm 7,4 km/h (2 Bft) N-NW 336 ° 1 min 0,000 mm 7,4 UV-I 977 W/m² 14,3 °C 24,2 °C 12,9 km/h (3 Bft)
18.07.2018 13:19 24,3 °C 55 % 1014,8 hPa 0,0 mm 9,8 km/h (2 Bft) N-NW 332 ° 1 min 0,000 mm 7,4 UV-I 1007 W/m² 14,7 °C 24,3 °C 12,9 km/h (3 Bft)
18.07.2018 13:20 24,3 °C 57 % 1014,8 hPa 0,0 mm 4,8 km/h (1 Bft) W-NW 294 ° 1 min 0,000 mm 7,3 UV-I 933 W/m² 15,2 °C 24,3 °C 6,4 km/h (2 Bft)
18.07.2018 13:21 24,3 °C 53 % 1014,8 hPa 0,0 mm 5,2 km/h (1 Bft) N-NW 345 ° 1 min 0,000 mm 3,5 UV-I 933 W/m² 14,1 °C 24,3 °C 9,7 km/h (2 Bft)
18.07.2018 13:22 24,0 °C 54 % 1014,8 hPa 0,0 mm 5,2 km/h (1 Bft) NW 316 ° 0 min 0,000 mm 3,5 UV-I 190 W/m² 14,1 °C 24,0 °C 8,0 km/h (2 Bft)
18.07.2018 13:23 23,8 °C 52 % 1014,8 hPa 0,0 mm 1,2 km/h (1 Bft) NW 316 ° 0 min 0,000 mm 3,6 UV-I 209 W/m² 13,3 °C 23,8 °C 4,8 km/h (1 Bft)
18.07.2018 13:24 23,6 °C 52 % 1014,8 hPa 0,0 mm 3,0 km/h (1 Bft) N-NW 328 ° 0 min 0,000 mm 4,2 UV-I 301 W/m² 13,2 °C 23,6 °C 4,8 km/h (1 Bft)
18.07.2018 13:25 23,5 °C 54 % 1014,8 hPa 0,0 mm 4,4 km/h (1 Bft) N 11 ° 0 min 0,000 mm 7,1 UV-I 301 W/m² 13,6 °C 23,5 °C 6,4 km/h (2 Bft)
18.07.2018 13:26 23,4 °C 53 % 1014,8 hPa 0,0 mm 3,9 km/h (1 Bft) N-NO 16 ° 1 min 0,000 mm 7,2 UV-I 1013 W/m² 13,3 °C 23,4 °C 6,4 km/h (2 Bft)
18.07.2018 13:27 23,5 °C 53 % 1014,8 hPa 0,0 mm 2,7 km/h (1 Bft) N-NW 342 ° 1 min 0,000 mm 4,3 UV-I 1013 W/m² 13,4 °C 23,5 °C 4,8 km/h (1 Bft)
18.07.2018 13:28 23,6 °C 57 % 1014,8 hPa 0,0 mm 5,0 km/h (1 Bft) NW 304 ° 1 min 0,000 mm 5,6 UV-I 747 W/m² 14,6 °C 23,6 °C 8,0 km/h (2 Bft)
18.07.2018 13:29 23,7 °C 51 % 1014,8 hPa 0,0 mm 3,5 km/h (1 Bft) NW 318 ° 1 min 0,000 mm 7,3 UV-I 747 W/m² 13,0 °C 23,7 °C 6,4 km/h (2 Bft)
18.07.2018 13:30 23,7 °C 54 % 1014,8 hPa 0,0 mm 2,2 km/h (1 Bft) NW 318 ° 1 min 0,000 mm 7,4 UV-I 747 W/m² 13,8 °C 23,7 °C 3,2 km/h (1 Bft)
18.07.2018 13:31 23,8 °C 54 % 1014,8 hPa 0,0 mm 5,9 km/h (2 Bft) W-NW 294 ° 1 min 0,000 mm 7,3 UV-I 1000 W/m² 13,9 °C 23,8 °C 9,7 km/h (2 Bft)
18.07.2018 13:32 23,8 °C 53 % 1014,8 hPa 0,0 mm 6,0 km/h (2 Bft) W 281 ° 1 min 0,000 mm 3,6 UV-I 1000 W/m² 13,6 °C 23,8 °C 9,7 km/h (2 Bft)
18.07.2018 13:33 23,7 °C 50 % 1014,8 hPa 0,0 mm 2,9 km/h (1 Bft) NW 316 ° 1 min 0,000 mm 3,6 UV-I 1000 W/m² 12,6 °C 23,7 °C 4,8 km/h (1 Bft)
18.07.2018 13:34 23,7 °C 53 % 1014,8 hPa 0,0 mm 6,7 km/h (2 Bft) N-NO 30 ° 1 min 0,000 mm 5,3 UV-I 972 W/m² 13,5 °C 23,7 °C 9,7 km/h (2 Bft)
18.07.2018 13:35 23,6 °C 48 % 1014,8 hPa 0,0 mm 6,0 km/h (2 Bft) N-NO 21 ° 1 min 0,000 mm 3,7 UV-I 972 W/m² 11,9 °C 23,6 °C 8,0 km/h (2 Bft)
18.07.2018 13:36 23,5 °C 50 % 1014,8 hPa 0,0 mm 2,0 km/h (1 Bft) NW 316 ° 1 min 0,000 mm 7,3 UV-I 972 W/m² 12,5 °C 23,5 °C 4,8 km/h (1 Bft)
18.07.2018 13:37 23,6 °C 54 % 1014,8 hPa 0,0 mm 5,4 km/h (1 Bft) N-NO 14 ° 1 min 0,000 mm 7,3 UV-I 983 W/m² 13,7 °C 23,6 °C 11,3 km/h (2 Bft)
18.07.2018 13:38 23,7 °C 52 % 1014,7 hPa 0,0 mm 5,0 km/h (1 Bft) NO 42 ° 1 min 0,000 mm 6,7 UV-I 983 W/m² 13,2 °C 23,7 °C 8,0 km/h (2 Bft)
18.07.2018 13:39 23,8 °C 52 % 1014,8 hPa 0,0 mm 7,7 km/h (2 Bft) O-NO 65 ° 1 min 0,000 mm 7,1 UV-I 983 W/m² 13,3 °C 23,8 °C 12,9 km/h (3 Bft)
18.07.2018 13:40 23,8 °C 55 % 1014,8 hPa 0,0 mm 5,6 km/h (1 Bft) O 91 ° 1 min 0,000 mm 7,3 UV-I 953 W/m² 14,2 °C 23,8 °C 9,7 km/h (2 Bft)
18.07.2018 13:41 23,7 °C 52 % 1014,7 hPa 0,0 mm 0,3 km/h (0 Bft) O 91 ° 1 min 0,000 mm 7,3 UV-I 954 W/m² 13,2 °C 23,7 °C 1,6 km/h (1 Bft)
18.07.2018 13:42 23,5 °C 54 % 1014,7 hPa 0,0 mm 2,5 km/h (1 Bft) O 82 ° 1 min 0,000 mm 7,3 UV-I 954 W/m² 13,6 °C 23,5 °C 3,2 km/h (1 Bft)
18.07.2018 13:43 23,5 °C 56 % 1014,7 hPa 0,0 mm 4,2 km/h (1 Bft) O-NO 63 ° 1 min 0,000 mm 7,3 UV-I 954 W/m² 14,2 °C 23,5 °C 6,4 km/h (2 Bft)
18.07.2018 13:44 23,7 °C 54 % 1014,7 hPa 0,0 mm 9,8 km/h (2 Bft) N-NW 329 ° 1 min 0,000 mm 7,3 UV-I 956 W/m² 13,8 °C 23,7 °C 17,7 km/h (3 Bft)
18.07.2018 13:45 23,8 °C 52 % 1014,7 hPa 0,0 mm 6,8 km/h (2 Bft) N-NW 331 ° 1 min 0,000 mm 7,2 UV-I 953 W/m² 13,3 °C 23,8 °C 12,9 km/h (3 Bft)
18.07.2018 13:46 24,1 °C 53 % 1014,7 hPa 0,0 mm 5,2 km/h (1 Bft) N-NW 333 ° 1 min 0,000 mm 7,2 UV-I 949 W/m² 13,9 °C 24,1 °C 9,7 km/h (2 Bft)
18.07.2018 13:47 24,2 °C 49 % 1014,7 hPa 0,0 mm 4,6 km/h (1 Bft) N 355 ° 1 min 0,000 mm 7,2 UV-I 946 W/m² 12,8 °C 24,2 °C 6,4 km/h (2 Bft)
18.07.2018 13:48 24,2 °C 49 % 1014,6 hPa 0,0 mm 6,6 km/h (2 Bft) NW 306 ° 1 min 0,000 mm 7,3 UV-I 946 W/m² 12,8 °C 24,2 °C 14,5 km/h (3 Bft)
18.07.2018 13:49 24,3 °C 53 % 1014,7 hPa 0,0 mm 9,0 km/h (2 Bft) W-NW 295 ° 1 min 0,000 mm 7,2 UV-I 925 W/m² 14,1 °C 24,3 °C 12,9 km/h (3 Bft)
18.07.2018 13:50 24,3 °C 48 % 1014,7 hPa 0,0 mm 4,2 km/h (1 Bft) N 11 ° 1 min 0,000 mm 7,1 UV-I 918 W/m² 12,6 °C 24,3 °C 6,4 km/h (2 Bft)
18.07.2018 13:51 24,4 °C 51 % 1014,7 hPa 0,0 mm 5,7 km/h (1 Bft) N 360 ° 1 min 0,000 mm 7,1 UV-I 911 W/m² 13,6 °C 24,4 °C 8,0 km/h (2 Bft)
18.07.2018 13:52 24,6 °C 49 % 1014,7 hPa 0,0 mm 5,7 km/h (1 Bft) NO 34 ° 1 min 0,000 mm 7,1 UV-I 909 W/m² 13,2 °C 24,6 °C 8,0 km/h (2 Bft)
18.07.2018 13:53 24,5 °C 48 % 1014,7 hPa 0,0 mm 5,8 km/h (2 Bft) N-NO 15 ° 1 min 0,000 mm 7,1 UV-I 909 W/m² 12,8 °C 24,5 °C 8,0 km/h (2 Bft)
18.07.2018 13:54 24,4 °C 48 % 1014,7 hPa 0,0 mm 5,7 km/h (1 Bft) N-NW 344 ° 1 min 0,000 mm 6,9 UV-I 900 W/m² 12,7 °C 24,4 °C 8,0 km/h (2 Bft)
18.07.2018 13:55 24,3 °C 50 % 1014,7 hPa 0,0 mm 7,4 km/h (2 Bft) W-NW 300 ° 1 min 0,000 mm 7,0 UV-I 900 W/m² 13,2 °C 24,3 °C 9,7 km/h (2 Bft)
18.07.2018 13:56 24,3 °C 49 % 1014,7 hPa 0,0 mm 5,8 km/h (2 Bft) W 267 ° 1 min 0,000 mm 7,0 UV-I 900 W/m² 12,9 °C 24,3 °C 8,0 km/h (2 Bft)
18.07.2018 13:57 24,3 °C 52 % 1014,7 hPa 0,0 mm 6,4 km/h (2 Bft) W-SW 245 ° 1 min 0,000 mm 7,0 UV-I 904 W/m² 13,8 °C 24,3 °C 9,7 km/h (2 Bft)
18.07.2018 13:58 24,2 °C 51 % 1014,7 hPa 0,0 mm 2,9 km/h (1 Bft) W 281 ° 1 min 0,000 mm 7,0 UV-I 907 W/m² 13,4 °C 24,2 °C 4,8 km/h (1 Bft)
18.07.2018 13:59 24,2 °C 49 % 1014,7 hPa 0,0 mm 2,5 km/h (1 Bft) W 280 ° 1 min 0,000 mm 7,0 UV-I 905 W/m² 12,8 °C 24,2 °C 4,8 km/h (1 Bft)
18.07.2018 14:00 24,2 °C 53 % 1014,7 hPa 0,0 mm 4,0 km/h (1 Bft) W 281 ° 1 min 0,000 mm 7,0 UV-I 904 W/m² 14,0 °C 24,2 °C 6,4 km/h (2 Bft)
18.07.2018 14:01 24,4 °C 56 % 1014,6 hPa 0,0 mm 5,0 km/h (1 Bft) W-SW 255 ° 1 min 0,559 mm 7,0 UV-I 907 W/m² 15,0 °C 24,4 °C 9,7 km/h (2 Bft)
18.07.2018 14:02 24,4 °C 52 % 1014,6 hPa 0,0 mm 6,5 km/h (2 Bft) W 260 ° 1 min 0,000 mm 7,1 UV-I 911 W/m² 13,9 °C 24,4 °C 8,0 km/h (2 Bft)
18.07.2018 14:03 24,4 °C 52 % 1014,6 hPa 0,0 mm 2,5 km/h (1 Bft) W 260 ° 1 min 0,000 mm 7,1 UV-I 914 W/m² 13,9 °C 24,4 °C 4,8 km/h (1 Bft)
18.07.2018 14:04 24,2 °C 47 % 1014,6 hPa 0,0 mm 0,3 km/h (0 Bft) W 260 ° 1 min 0,000 mm 7,1 UV-I 923 W/m² 12,2 °C 24,2 °C 1,6 km/h (1 Bft)
18.07.2018 14:05 24,1 °C 49 % 1014,6 hPa 0,0 mm 0,1 km/h (0 Bft) W 260 ° 1 min 0,000 mm 7,2 UV-I 930 W/m² 12,7 °C 24,1 °C 1,6 km/h (1 Bft)
18.07.2018 14:06 24,1 °C 49 % 1014,6 hPa 0,0 mm 2,9 km/h (1 Bft) W 265 ° 1 min 0,000 mm 7,2 UV-I 942 W/m² 12,7 °C 24,1 °C 6,4 km/h (2 Bft)
18.07.2018 14:07 24,1 °C 50 % 1014,6 hPa 0,0 mm 7,3 km/h (2 Bft) W 277 ° 1 min 0,000 mm 7,2 UV-I 947 W/m² 13,0 °C 24,1 °C 12,9 km/h (3 Bft)
18.07.2018 14:08 24,2 °C 52 % 1014,6 hPa 0,0 mm 5,5 km/h (1 Bft) W 263 ° 1 min 0,000 mm 7,2 UV-I 956 W/m² 13,7 °C 24,2 °C 9,7 km/h (2 Bft)
18.07.2018 14:09 24,4 °C 53 % 1014,5 hPa 0,0 mm 5,1 km/h (1 Bft) W 273 ° 1 min 0,000 mm 7,2 UV-I 962 W/m² 14,2 °C 24,4 °C 9,7 km/h (2 Bft)
18.07.2018 14:10 24,7 °C 53 % 1014,5 hPa 0,0 mm 5,5 km/h (1 Bft) W-NW 288 ° 1 min 0,000 mm 7,2 UV-I 969 W/m² 14,5 °C 24,7 °C 8,0 km/h (2 Bft)
18.07.2018 14:11 24,8 °C 49 % 1014,5 hPa 0,0 mm 7,0 km/h (2 Bft) N-NW 340 ° 1 min 0,000 mm 7,2 UV-I 963 W/m² 13,3 °C 24,8 °C 9,7 km/h (2 Bft)
18.07.2018 14:12 24,9 °C 53 % 1014,6 hPa 0,0 mm 9,5 km/h (2 Bft) N-NW 348 ° 1 min 0,000 mm 7,1 UV-I 954 W/m² 14,6 °C 24,9 °C 12,9 km/h (3 Bft)
18.07.2018 14:13 24,9 °C 53 % 1014,5 hPa 0,0 mm 5,5 km/h (1 Bft) N-NW 346 ° 1 min 0,000 mm 7,2 UV-I 963 W/m² 14,6 °C 24,9 °C 8,0 km/h (2 Bft)
18.07.2018 14:14 24,8 °C 48 % 1014,5 hPa 0,0 mm 4,1 km/h (1 Bft) NW 326 ° 1 min 0,000 mm 7,2 UV-I 956 W/m² 13,0 °C 24,8 °C 8,0 km/h (2 Bft)
18.07.2018 14:15 24,8 °C 48 % 1014,5 hPa 0,0 mm 3,1 km/h (1 Bft) N-NW 348 ° 1 min 0,000 mm 7,1 UV-I 953 W/m² 13,0 °C 24,8 °C 6,4 km/h (2 Bft)
18.07.2018 14:16 24,7 °C 49 % 1014,5 hPa 0,0 mm 2,4 km/h (1 Bft) NO 38 ° 1 min 0,000 mm 7,1 UV-I 953 W/m² 13,3 °C 24,7 °C 4,8 km/h (1 Bft)
18.07.2018 14:17 24,6 °C 51 % 1014,5 hPa 0,0 mm 1,7 km/h (1 Bft) NO 35 ° 1 min 0,000 mm 7,1 UV-I 937 W/m² 13,8 °C 24,6 °C 3,2 km/h (1 Bft)
18.07.2018 14:18 24,7 °C 54 % 1014,4 hPa 0,0 mm 0,9 km/h (0 Bft) NO 35 ° 1 min 0,000 mm 7,0 UV-I 916 W/m² 14,8 °C 24,7 °C 3,2 km/h (1 Bft)
18.07.2018 14:19 24,8 °C 50 % 1014,4 hPa 0,0 mm 2,0 km/h (1 Bft) W-NW 300 ° 1 min 0,000 mm 6,9 UV-I 907 W/m² 13,7 °C 24,8 °C 3,2 km/h (1 Bft)
18.07.2018 14:20 24,7 °C 48 % 1014,4 hPa 0,0 mm 1,9 km/h (1 Bft) S-SO 149 ° 1 min 0,000 mm 6,9 UV-I 900 W/m² 12,9 °C 24,7 °C 4,8 km/h (1 Bft)
18.07.2018 14:21 24,6 °C 49 % 1014,4 hPa 0,0 mm 0,5 km/h (0 Bft) S-SO 149 ° 1 min 0,000 mm 6,9 UV-I 898 W/m² 13,2 °C 24,6 °C 1,6 km/h (1 Bft)
18.07.2018 14:22 24,6 °C 54 % 1014,3 hPa 0,0 mm 4,6 km/h (1 Bft) N-NW 327 ° 1 min 0,000 mm 6,8 UV-I 895 W/m² 14,7 °C 24,6 °C 8,0 km/h (2 Bft)
18.07.2018 14:23 24,7 °C 50 % 1014,4 hPa 0,0 mm 5,2 km/h (1 Bft) NW 324 ° 1 min 0,000 mm 6,9 UV-I 898 W/m² 13,6 °C 24,7 °C 6,4 km/h (2 Bft)
18.07.2018 14:24 24,8 °C 51 % 1014,4 hPa 0,0 mm 9,5 km/h (2 Bft) N-NW 334 ° 1 min 0,000 mm 6,9 UV-I 912 W/m² 14,0 °C 24,8 °C 14,5 km/h (3 Bft)
18.07.2018 14:25 24,8 °C 49 % 1014,4 hPa 0,0 mm 5,8 km/h (2 Bft) O-NO 66 ° 1 min 0,000 mm 6,9 UV-I 923 W/m² 13,3 °C 24,8 °C 9,7 km/h (2 Bft)
18.07.2018 14:26 24,7 °C 51 % 1014,3 hPa 0,0 mm 6,1 km/h (2 Bft) N-NO 24 ° 1 min 0,000 mm 6,8 UV-I 923 W/m² 13,9 °C 24,7 °C 8,0 km/h (2 Bft)
18.07.2018 14:27 24,7 °C 52 % 1014,3 hPa 0,0 mm 8,0 km/h (2 Bft) N-NO 22 ° 1 min 0,000 mm 6,8 UV-I 923 W/m² 14,2 °C 24,7 °C 16,1 km/h (3 Bft)
18.07.2018 14:28 24,7 °C 49 % 1014,3 hPa 0,0 mm 10,9 km/h (2 Bft) N-NO 17 ° 1 min 0,000 mm 6,7 UV-I 925 W/m² 13,3 °C 24,7 °C 16,1 km/h (3 Bft)
18.07.2018 14:29 24,8 °C 47 % 1014,3 hPa 0,0 mm 7,5 km/h (2 Bft) N 10 ° 1 min 0,000 mm 6,7 UV-I 918 W/m² 12,7 °C 24,8 °C 11,3 km/h (2 Bft)
18.07.2018 14:30 24,8 °C 51 % 1014,3 hPa 0,0 mm 7,1 km/h (2 Bft) NW 314 ° 1 min 0,000 mm 6,8 UV-I 926 W/m² 14,0 °C 24,8 °C 9,7 km/h (2 Bft)
18.07.2018 14:31 24,8 °C 49 % 1014,4 hPa 0,0 mm 4,6 km/h (1 Bft) N-NW 329 ° 1 min 0,000 mm 6,8 UV-I 925 W/m² 13,3 °C 24,8 °C 8,0 km/h (2 Bft)
18.07.2018 14:32 24,7 °C 50 % 1014,3 hPa 0,0 mm 5,2 km/h (1 Bft) N 355 ° 1 min 0,000 mm 6,8 UV-I 919 W/m² 13,6 °C 24,7 °C 8,0 km/h (2 Bft)
18.07.2018 14:33 24,8 °C 52 % 1014,4 hPa 0,0 mm 5,0 km/h (1 Bft) NW 323 ° 1 min 0,000 mm 6,8 UV-I 914 W/m² 14,3 °C 24,8 °C 8,0 km/h (2 Bft)
18.07.2018 14:34 24,9 °C 52 % 1014,4 hPa 0,0 mm 5,2 km/h (1 Bft) N-NW 335 ° 1 min 0,000 mm 6,7 UV-I 911 W/m² 14,4 °C 24,9 °C 9,7 km/h (2 Bft)
18.07.2018 14:35 24,9 °C 50 % 1014,3 hPa 0,0 mm 7,3 km/h (2 Bft) NW 312 ° 1 min 0,000 mm 6,7 UV-I 907 W/m² 13,7 °C 24,9 °C 12,9 km/h (3 Bft)
18.07.2018 14:36 25,0 °C 51 % 1014,4 hPa 0,0 mm 6,2 km/h (2 Bft) N-NW 329 ° 1 min 0,000 mm 6,7 UV-I 902 W/m² 14,1 °C 25,0 °C 9,7 km/h (2 Bft)
18.07.2018 14:37 25,0 °C 49 % 1014,3 hPa 0,0 mm 6,5 km/h (2 Bft) NW 320 ° 1 min 0,000 mm 6,6 UV-I 902 W/m² 13,5 °C 25,0 °C 9,7 km/h (2 Bft)
18.07.2018 14:38 24,9 °C 49 % 1014,3 hPa 0,0 mm 3,2 km/h (1 Bft) NW 317 ° 1 min 0,000 mm 5,8 UV-I 881 W/m² 13,4 °C 24,9 °C 6,4 km/h (2 Bft)
18.07.2018 14:39 24,8 °C 48 % 1014,2 hPa 0,0 mm 2,1 km/h (1 Bft) W-NW 296 ° 1 min 0,000 mm 6,4 UV-I 889 W/m² 13,0 °C 24,8 °C 6,4 km/h (2 Bft)
18.07.2018 14:40 24,7 °C 48 % 1014,2 hPa 0,0 mm 4,7 km/h (1 Bft) W-NW 290 ° 1 min 0,000 mm 6,4 UV-I 902 W/m² 12,9 °C 24,7 °C 6,4 km/h (2 Bft)
18.07.2018 14:41 24,6 °C 48 % 1014,2 hPa 0,0 mm 6,2 km/h (2 Bft) NW 314 ° 1 min 0,000 mm 6,4 UV-I 893 W/m² 12,8 °C 24,6 °C 9,7 km/h (2 Bft)
18.07.2018 14:42 24,6 °C 49 % 1014,2 hPa 0,0 mm 6,8 km/h (2 Bft) N 355 ° 1 min 0,000 mm 6,5 UV-I 893 W/m² 13,2 °C 24,6 °C 11,3 km/h (2 Bft)
18.07.2018 14:43 24,7 °C 52 % 1014,3 hPa 0,0 mm 5,4 km/h (1 Bft) W-NW 301 ° 1 min 0,000 mm 5,4 UV-I 893 W/m² 14,2 °C 24,7 °C 8,0 km/h (2 Bft)
18.07.2018 14:44 24,6 °C 49 % 1014,2 hPa 0,0 mm 4,6 km/h (1 Bft) NW 316 ° 1 min 0,000 mm 4,3 UV-I 893 W/m² 13,2 °C 24,6 °C 8,0 km/h (2 Bft)
18.07.2018 14:45 24,5 °C 50 % 1014,3 hPa 0,0 mm 5,6 km/h (1 Bft) W-NW 303 ° 0 min 0,000 mm 4,3 UV-I 111 W/m² 13,4 °C 24,5 °C 8,0 km/h (2 Bft)
18.07.2018 14:46 24,4 °C 48 % 1014,2 hPa 0,0 mm 4,7 km/h (1 Bft) W-NW 287 ° 0 min 0,000 mm 4,3 UV-I 111 W/m² 12,7 °C 24,4 °C 8,0 km/h (2 Bft)
18.07.2018 14:47 24,2 °C 50 % 1014,2 hPa 0,0 mm 4,2 km/h (1 Bft) W 269 ° 1 min 0,000 mm 6,4 UV-I 881 W/m² 13,1 °C 24,2 °C 9,7 km/h (2 Bft)
18.07.2018 14:48 24,2 °C 49 % 1014,2 hPa 0,0 mm 7,8 km/h (2 Bft) W-NW 300 ° 1 min 0,000 mm 6,6 UV-I 875 W/m² 12,8 °C 24,2 °C 14,5 km/h (3 Bft)
18.07.2018 14:49 24,2 °C 48 % 1014,2 hPa 0,0 mm 6,6 km/h (2 Bft) N-NW 331 ° 1 min 0,000 mm 6,6 UV-I 874 W/m² 12,5 °C 24,2 °C 12,9 km/h (3 Bft)
18.07.2018 14:50 24,2 °C 50 % 1014,2 hPa 0,0 mm 4,4 km/h (1 Bft) NW 325 ° 1 min 0,000 mm 6,5 UV-I 861 W/m² 13,1 °C 24,2 °C 8,0 km/h (2 Bft)
18.07.2018 14:51 24,4 °C 50 % 1014,2 hPa 0,0 mm 4,1 km/h (1 Bft) NW 316 ° 1 min 0,000 mm 6,4 UV-I 856 W/m² 13,3 °C 24,4 °C 8,0 km/h (2 Bft)
18.07.2018 14:52 24,6 °C 52 % 1014,2 hPa 0,0 mm 5,4 km/h (1 Bft) N 349 ° 1 min 0,000 mm 6,4 UV-I 849 W/m² 14,1 °C 24,6 °C 9,7 km/h (2 Bft)
18.07.2018 14:53 24,6 °C 47 % 1014,1 hPa 0,0 mm 4,4 km/h (1 Bft) NO 40 ° 1 min 0,000 mm 6,4 UV-I 846 W/m² 12,5 °C 24,6 °C 8,0 km/h (2 Bft)
18.07.2018 14:54 24,6 °C 48 % 1014,1 hPa 0,0 mm 4,0 km/h (1 Bft) NO 47 ° 1 min 0,000 mm 6,3 UV-I 844 W/m² 12,8 °C 24,6 °C 8,0 km/h (2 Bft)
18.07.2018 14:55 24,4 °C 49 % 1014,0 hPa 0,0 mm 3,3 km/h (1 Bft) N-NO 15 ° 1 min 0,000 mm 6,3 UV-I 838 W/m² 13,0 °C 24,4 °C 4,8 km/h (1 Bft)
18.07.2018 14:56 24,4 °C 49 % 1014,0 hPa 0,0 mm 4,5 km/h (1 Bft) N-NO 17 ° 1 min 0,000 mm 6,2 UV-I 835 W/m² 13,0 °C 24,4 °C 8,0 km/h (2 Bft)
18.07.2018 14:57 24,3 °C 50 % 1014,0 hPa 0,0 mm 5,6 km/h (1 Bft) W-NW 293 ° 1 min 0,000 mm 6,3 UV-I 837 W/m² 13,2 °C 24,3 °C 12,9 km/h (3 Bft)
18.07.2018 14:58 24,3 °C 49 % 1014,0 hPa 0,0 mm 4,5 km/h (1 Bft) NW 319 ° 1 min 0,000 mm 6,2 UV-I 833 W/m² 12,9 °C 24,3 °C 11,3 km/h (2 Bft)
18.07.2018 14:59 24,3 °C 49 % 1014,0 hPa 0,0 mm 7,0 km/h (2 Bft) W-NW 301 ° 1 min 0,000 mm 6,2 UV-I 835 W/m² 12,9 °C 24,3 °C 14,5 km/h (3 Bft)
18.07.2018 15:00 24,3 °C 50 % 1014,0 hPa 0,0 mm 5,4 km/h (1 Bft) N-NW 342 ° 1 min 0,000 mm 6,2 UV-I 833 W/m² 13,2 °C 24,3 °C 9,7 km/h (2 Bft)
18.07.2018 15:01 24,4 °C 52 % 1014,0 hPa 0,0 mm 5,6 km/h (1 Bft) W-NW 295 ° 1 min 0,584 mm 6,2 UV-I 835 W/m² 13,9 °C 24,4 °C 8,0 km/h (2 Bft)
18.07.2018 15:02 24,5 °C 50 % 1014,0 hPa 0,0 mm 2,4 km/h (1 Bft) W-NW 295 ° 1 min 0,000 mm 6,2 UV-I 830 W/m² 13,4 °C 24,5 °C 4,8 km/h (1 Bft)
18.07.2018 15:03 24,6 °C 54 % 1014,0 hPa 0,0 mm 4,0 km/h (1 Bft) N-NW 348 ° 1 min 0,000 mm 6,2 UV-I 830 W/m² 14,7 °C 24,6 °C 6,4 km/h (2 Bft)
18.07.2018 15:04 24,8 °C 51 % 1014,0 hPa 0,0 mm 4,8 km/h (1 Bft) N 5 ° 1 min 0,000 mm 6,2 UV-I 828 W/m² 14,0 °C 24,8 °C 8,0 km/h (2 Bft)
18.07.2018 15:05 24,9 °C 50 % 1013,9 hPa 0,0 mm 5,2 km/h (1 Bft) N-NO 15 ° 1 min 0,000 mm 6,2 UV-I 826 W/m² 13,7 °C 24,9 °C 8,0 km/h (2 Bft)
18.07.2018 15:06 24,9 °C 50 % 1013,9 hPa 0,0 mm 5,5 km/h (1 Bft) N 355 ° 1 min 0,000 mm 6,2 UV-I 830 W/m² 13,7 °C 24,9 °C 11,3 km/h (2 Bft)
18.07.2018 15:07 25,1 °C 49 % 1014,0 hPa 0,0 mm 8,4 km/h (2 Bft) NW 317 ° 1 min 0,000 mm 6,2 UV-I 833 W/m² 13,6 °C 25,1 °C 11,3 km/h (2 Bft)
18.07.2018 15:08 25,1 °C 51 % 1014,0 hPa 0,0 mm 2,9 km/h (1 Bft) N-NW 338 ° 1 min 0,000 mm 3,5 UV-I 833 W/m² 14,2 °C 25,1 °C 6,4 km/h (2 Bft)
18.07.2018 15:09 24,9 °C 46 % 1014,0 hPa 0,0 mm 3,2 km/h (1 Bft) N 9 ° 0 min 0,000 mm 3,5 UV-I 158 W/m² 12,5 °C 24,9 °C 8,0 km/h (2 Bft)
18.07.2018 15:10 24,7 °C 50 % 1014,0 hPa 0,0 mm 5,3 km/h (1 Bft) NW 326 ° 0 min 0,000 mm 5,7 UV-I 158 W/m² 13,6 °C 24,7 °C 8,0 km/h (2 Bft)
18.07.2018 15:11 24,7 °C 51 % 1014,0 hPa 0,0 mm 5,0 km/h (1 Bft) N 355 ° 1 min 0,000 mm 5,6 UV-I 786 W/m² 13,9 °C 24,7 °C 6,4 km/h (2 Bft)
18.07.2018 15:12 24,7 °C 50 % 1013,9 hPa 0,0 mm 4,2 km/h (1 Bft) N 350 ° 1 min 0,000 mm 3,1 UV-I 786 W/m² 13,6 °C 24,7 °C 8,0 km/h (2 Bft)
18.07.2018 15:13 24,7 °C 50 % 1013,9 hPa 0,0 mm 1,7 km/h (1 Bft) N-NW 344 ° 1 min 0,000 mm 5,9 UV-I 786 W/m² 13,6 °C 24,7 °C 4,8 km/h (1 Bft)
18.07.2018 15:14 24,7 °C 49 % 1013,9 hPa 0,0 mm 2,5 km/h (1 Bft) N-NW 340 ° 1 min 0,000 mm 5,9 UV-I 810 W/m² 13,3 °C 24,7 °C 4,8 km/h (1 Bft)
18.07.2018 15:15 24,7 °C 50 % 1013,9 hPa 0,0 mm 1,2 km/h (1 Bft) NO 49 ° 1 min 0,000 mm 5,9 UV-I 810 W/m² 13,6 °C 24,7 °C 4,8 km/h (1 Bft)
18.07.2018 15:16 24,8 °C 52 % 1013,9 hPa 0,0 mm 7,1 km/h (2 Bft) O-NO 63 ° 1 min 0,000 mm 5,9 UV-I 810 W/m² 14,3 °C 24,8 °C 11,3 km/h (2 Bft)
18.07.2018 15:17 24,7 °C 49 % 1013,9 hPa 0,0 mm 8,0 km/h (2 Bft) O 96 ° 1 min 0,000 mm 5,9 UV-I 810 W/m² 13,3 °C 24,7 °C 12,9 km/h (3 Bft)
18.07.2018 15:18 24,6 °C 47 % 1013,9 hPa 0,0 mm 5,2 km/h (1 Bft) O 99 ° 1 min 0,000 mm 5,9 UV-I 809 W/m² 12,5 °C 24,6 °C 12,9 km/h (3 Bft)
18.07.2018 15:19 24,6 °C 52 % 1013,9 hPa 0,0 mm 3,9 km/h (1 Bft) O-NO 65 ° 1 min 0,000 mm 5,9 UV-I 807 W/m² 14,1 °C 24,6 °C 4,8 km/h (1 Bft)
18.07.2018 15:20 24,6 °C 49 % 1013,9 hPa 0,0 mm 3,1 km/h (1 Bft) N-NO 12 ° 1 min 0,000 mm 5,8 UV-I 803 W/m² 13,2 °C 24,6 °C 8,0 km/h (2 Bft)
18.07.2018 15:21 24,7 °C 48 % 1013,9 hPa 0,0 mm 5,7 km/h (1 Bft) N 360 ° 1 min 0,000 mm 5,8 UV-I 803 W/m² 12,9 °C 24,7 °C 11,3 km/h (2 Bft)
18.07.2018 15:22 24,8 °C 47 % 1013,9 hPa 0,0 mm 8,4 km/h (2 Bft) O 94 ° 1 min 0,000 mm 5,8 UV-I 800 W/m² 12,7 °C 24,8 °C 14,5 km/h (3 Bft)
18.07.2018 15:23 24,8 °C 53 % 1013,9 hPa 0,0 mm 5,1 km/h (1 Bft) N-NO 31 ° 1 min 0,000 mm 5,8 UV-I 802 W/m² 14,6 °C 24,8 °C 8,0 km/h (2 Bft)
18.07.2018 15:24 24,9 °C 49 % 1013,9 hPa 0,0 mm 7,0 km/h (2 Bft) N 350 ° 1 min 0,000 mm 5,8 UV-I 802 W/m² 13,4 °C 24,9 °C 11,3 km/h (2 Bft)
18.07.2018 15:25 25,1 °C 49 % 1013,9 hPa 0,0 mm 5,6 km/h (1 Bft) N-NO 28 ° 1 min 0,000 mm 5,7 UV-I 800 W/m² 13,6 °C 25,1 °C 11,3 km/h (2 Bft)
18.07.2018 15:26 25,1 °C 47 % 1013,9 hPa 0,0 mm 6,6 km/h (2 Bft) NO 34 ° 1 min 0,000 mm 5,8 UV-I 802 W/m² 13,0 °C 25,1 °C 9,7 km/h (2 Bft)
18.07.2018 15:27 25,1 °C 47 % 1013,8 hPa 0,0 mm 4,3 km/h (1 Bft) N 355 ° 1 min 0,000 mm 5,7 UV-I 798 W/m² 13,0 °C 25,1 °C 6,4 km/h (2 Bft)
18.07.2018 15:28 25,1 °C 48 % 1013,9 hPa 0,0 mm 6,8 km/h (2 Bft) N 360 ° 1 min 0,000 mm 5,6 UV-I 798 W/m² 13,3 °C 25,1 °C 12,9 km/h (3 Bft)
18.07.2018 15:29 25,2 °C 51 % 1013,9 hPa 0,0 mm 7,4 km/h (2 Bft) NW 319 ° 1 min 0,000 mm 5,6 UV-I 795 W/m² 14,3 °C 25,2 °C 12,9 km/h (3 Bft)
18.07.2018 15:30 25,1 °C 49 % 1013,9 hPa 0,0 mm 3,1 km/h (1 Bft) NW 313 ° 1 min 0,000 mm 5,6 UV-I 793 W/m² 13,6 °C 25,1 °C 4,8 km/h (1 Bft)
18.07.2018 15:31 25,0 °C 47 % 1013,9 hPa 0,0 mm 4,1 km/h (1 Bft) W-SW 241 ° 1 min 0,000 mm 5,6 UV-I 793 W/m² 12,9 °C 25,0 °C 4,8 km/h (1 Bft)
18.07.2018 15:32 24,8 °C 48 % 1013,9 hPa 0,0 mm 2,9 km/h (1 Bft) W-SW 239 ° 1 min 0,000 mm 5,6 UV-I 795 W/m² 13,0 °C 24,8 °C 4,8 km/h (1 Bft)
18.07.2018 15:33 24,7 °C 50 % 1013,9 hPa 0,0 mm 0,9 km/h (0 Bft) W-SW 240 ° 1 min 0,000 mm 5,6 UV-I 791 W/m² 13,6 °C 24,7 °C 1,6 km/h (1 Bft)
18.07.2018 15:34 24,7 °C 51 % 1013,9 hPa 0,0 mm 3,3 km/h (1 Bft) NW 313 ° 1 min 0,000 mm 5,6 UV-I 793 W/m² 13,9 °C 24,7 °C 4,8 km/h (1 Bft)
18.07.2018 15:35 24,7 °C 49 % 1013,8 hPa 0,0 mm 0,6 km/h (0 Bft) NW 313 ° 1 min 0,000 mm 5,6 UV-I 793 W/m² 13,3 °C 24,7 °C 1,6 km/h (1 Bft)
18.07.2018 15:36 24,7 °C 49 % 1013,8 hPa 0,0 mm 3,9 km/h (1 Bft) N-NW 330 ° 1 min 0,000 mm 5,5 UV-I 777 W/m² 13,3 °C 24,7 °C 6,4 km/h (2 Bft)
18.07.2018 15:37 24,7 °C 47 % 1013,8 hPa 0,0 mm 3,8 km/h (1 Bft) N 355 ° 1 min 0,000 mm 5,5 UV-I 775 W/m² 12,6 °C 24,7 °C 4,8 km/h (1 Bft)
18.07.2018 15:38 24,8 °C 49 % 1013,8 hPa 0,0 mm 5,2 km/h (1 Bft) NW 321 ° 1 min 0,000 mm 5,4 UV-I 772 W/m² 13,3 °C 24,8 °C 8,0 km/h (2 Bft)
18.07.2018 15:39 24,8 °C 48 % 1013,7 hPa 0,0 mm 2,6 km/h (1 Bft) N-NO 15 ° 1 min 0,000 mm 5,4 UV-I 768 W/m² 13,0 °C 24,8 °C 8,0 km/h (2 Bft)
18.07.2018 15:40 24,9 °C 47 % 1013,9 hPa 0,0 mm 12,7 km/h (3 Bft) N-NO 30 ° 1 min 0,000 mm 5,3 UV-I 754 W/m² 12,8 °C 24,9 °C 17,7 km/h (3 Bft)
18.07.2018 15:41 25,0 °C 48 % 1013,8 hPa 0,0 mm 7,8 km/h (2 Bft) NO 36 ° 1 min 0,000 mm 5,2 UV-I 756 W/m² 13,2 °C 25,0 °C 12,9 km/h (3 Bft)
18.07.2018 15:42 25,1 °C 48 % 1013,8 hPa 0,0 mm 8,1 km/h (2 Bft) N-NO 26 ° 1 min 0,000 mm 5,3 UV-I 763 W/m² 13,3 °C 25,1 °C 11,3 km/h (2 Bft)
18.07.2018 15:43 24,9 °C 46 % 1013,8 hPa 0,0 mm 6,9 km/h (2 Bft) NO 38 ° 1 min 0,000 mm 5,2 UV-I 759 W/m² 12,5 °C 24,9 °C 12,9 km/h (3 Bft)
18.07.2018 15:44 24,9 °C 48 % 1013,8 hPa 0,0 mm 2,3 km/h (1 Bft) N-NO 21 ° 1 min 0,000 mm 5,3 UV-I 758 W/m² 13,1 °C 24,9 °C 4,8 km/h (1 Bft)
18.07.2018 15:45 24,9 °C 45 % 1013,7 hPa 0,0 mm 0,1 km/h (0 Bft) N-NO 21 ° 1 min 0,000 mm 5,2 UV-I 756 W/m² 12,1 °C 24,9 °C 1,6 km/h (1 Bft)
18.07.2018 15:46 24,7 °C 46 % 1013,8 hPa 0,0 mm 2,7 km/h (1 Bft) N-NW 342 ° 1 min 0,000 mm 5,2 UV-I 754 W/m² 12,3 °C 24,7 °C 4,8 km/h (1 Bft)
18.07.2018 15:47 24,8 °C 48 % 1013,7 hPa 0,0 mm 2,7 km/h (1 Bft) N-NW 331 ° 1 min 0,000 mm 5,2 UV-I 752 W/m² 13,0 °C 24,8 °C 6,4 km/h (2 Bft)
18.07.2018 15:48 24,8 °C 48 % 1013,7 hPa 0,0 mm 5,2 km/h (1 Bft) N-NO 13 ° 1 min 0,000 mm 5,2 UV-I 752 W/m² 13,0 °C 24,8 °C 6,4 km/h (2 Bft)
18.07.2018 15:49 25,0 °C 51 % 1013,7 hPa 0,0 mm 6,2 km/h (2 Bft) N-NO 22 ° 1 min 0,000 mm 5,2 UV-I 754 W/m² 14,1 °C 25,0 °C 9,7 km/h (2 Bft)
18.07.2018 15:50 25,1 °C 51 % 1013,8 hPa 0,0 mm 7,9 km/h (2 Bft) NO 34 ° 1 min 0,000 mm 5,1 UV-I 754 W/m² 14,2 °C 25,1 °C 11,3 km/h (2 Bft)
18.07.2018 15:51 25,0 °C 44 % 1013,7 hPa 0,0 mm 1,9 km/h (1 Bft) NO 34 ° 1 min 0,000 mm 5,1 UV-I 752 W/m² 11,9 °C 25,0 °C 4,8 km/h (1 Bft)
18.07.2018 15:52 24,8 °C 45 % 1013,7 hPa 0,0 mm 4,4 km/h (1 Bft) NO 50 ° 1 min 0,000 mm 5,0 UV-I 749 W/m² 12,0 °C 24,8 °C 6,4 km/h (2 Bft)
18.07.2018 15:53 24,7 °C 46 % 1013,7 hPa 0,0 mm 4,5 km/h (1 Bft) N 355 ° 1 min 0,000 mm 4,9 UV-I 744 W/m² 12,3 °C 24,7 °C 6,4 km/h (2 Bft)
18.07.2018 15:54 24,7 °C 47 % 1013,6 hPa 0,0 mm 2,8 km/h (1 Bft) NO 39 ° 1 min 0,000 mm 4,8 UV-I 740 W/m² 12,6 °C 24,7 °C 6,4 km/h (2 Bft)
18.07.2018 15:55 24,7 °C 50 % 1013,7 hPa 0,0 mm 5,4 km/h (1 Bft) N-NW 338 ° 1 min 0,000 mm 4,7 UV-I 735 W/m² 13,6 °C 24,7 °C 8,0 km/h (2 Bft)
18.07.2018 15:56 24,9 °C 49 % 1013,6 hPa 0,0 mm 6,4 km/h (2 Bft) W 270 ° 1 min 0,000 mm 4,7 UV-I 729 W/m² 13,4 °C 24,9 °C 14,5 km/h (3 Bft)
18.07.2018 15:57 24,9 °C 47 % 1013,7 hPa 0,0 mm 8,4 km/h (2 Bft) NW 320 ° 1 min 0,000 mm 4,7 UV-I 731 W/m² 12,8 °C 24,9 °C 12,9 km/h (3 Bft)
18.07.2018 15:58 24,9 °C 47 % 1013,7 hPa 0,0 mm 8,2 km/h (2 Bft) W 268 ° 1 min 0,000 mm 4,6 UV-I 731 W/m² 12,8 °C 24,9 °C 12,9 km/h (3 Bft)
18.07.2018 15:59 24,9 °C 46 % 1013,7 hPa 0,0 mm 4,4 km/h (1 Bft) W 281 ° 1 min 0,000 mm 4,5 UV-I 729 W/m² 12,5 °C 24,9 °C 8,0 km/h (2 Bft)
18.07.2018 16:00 24,8 °C 47 % 1013,6 hPa 0,0 mm 7,1 km/h (2 Bft) NW 310 ° 1 min 0,000 mm 4,5 UV-I 724 W/m² 12,7 °C 24,8 °C 9,7 km/h (2 Bft)
18.07.2018 16:01 24,8 °C 47 % 1013,7 hPa 0,0 mm 7,6 km/h (2 Bft) N-NW 333 ° 1 min 0,508 mm 4,5 UV-I 722 W/m² 12,7 °C 24,8 °C 9,7 km/h (2 Bft)
18.07.2018 16:02 24,8 °C 45 % 1013,6 hPa 0,0 mm 2,9 km/h (1 Bft) NW 305 ° 1 min 0,000 mm 4,5 UV-I 722 W/m² 12,0 °C 24,8 °C 4,8 km/h (1 Bft)
18.07.2018 16:03 24,7 °C 46 % 1013,6 hPa 0,0 mm 4,8 km/h (1 Bft) NW 313 ° 1 min 0,000 mm 4,4 UV-I 721 W/m² 12,3 °C 24,7 °C 8,0 km/h (2 Bft)
18.07.2018 16:04 24,8 °C 48 % 1013,6 hPa 0,0 mm 4,6 km/h (1 Bft) NW 307 ° 1 min 0,000 mm 4,4 UV-I 717 W/m² 13,0 °C 24,8 °C 8,0 km/h (2 Bft)
18.07.2018 16:05 24,8 °C 47 % 1013,6 hPa 0,0 mm 6,7 km/h (2 Bft) NW 315 ° 1 min 0,000 mm 4,4 UV-I 719 W/m² 12,7 °C 24,8 °C 9,7 km/h (2 Bft)
18.07.2018 16:06 24,9 °C 49 % 1013,6 hPa 0,0 mm 3,7 km/h (1 Bft) W-NW 288 ° 1 min 0,000 mm 4,5 UV-I 721 W/m² 13,4 °C 24,9 °C 6,4 km/h (2 Bft)
18.07.2018 16:07 24,9 °C 46 % 1013,6 hPa 0,0 mm 3,6 km/h (1 Bft) W-NW 295 ° 1 min 0,000 mm 4,5 UV-I 721 W/m² 12,5 °C 24,9 °C 4,8 km/h (1 Bft)
18.07.2018 16:08 24,9 °C 46 % 1013,6 hPa 0,0 mm 6,8 km/h (2 Bft) W 280 ° 1 min 0,000 mm 4,4 UV-I 721 W/m² 12,5 °C 24,9 °C 11,3 km/h (2 Bft)
18.07.2018 16:09 24,8 °C 46 % 1013,5 hPa 0,0 mm 5,0 km/h (1 Bft) NW 304 ° 1 min 0,000 mm 4,4 UV-I 719 W/m² 12,4 °C 24,8 °C 11,3 km/h (2 Bft)
18.07.2018 16:10 24,8 °C 47 % 1013,5 hPa 0,0 mm 3,8 km/h (1 Bft) W-NW 284 ° 1 min 0,000 mm 4,4 UV-I 712 W/m² 12,7 °C 24,8 °C 9,7 km/h (2 Bft)
18.07.2018 16:11 24,8 °C 46 % 1013,5 hPa 0,0 mm 3,6 km/h (1 Bft) W-NW 298 ° 1 min 0,000 mm 4,3 UV-I 710 W/m² 12,4 °C 24,8 °C 8,0 km/h (2 Bft)
18.07.2018 16:12 24,8 °C 46 % 1013,5 hPa 0,0 mm 7,6 km/h (2 Bft) W 275 ° 1 min 0,000 mm 4,3 UV-I 707 W/m² 12,4 °C 24,8 °C 12,9 km/h (3 Bft)
18.07.2018 16:13 24,8 °C 43 % 1013,6 hPa 0,0 mm 3,4 km/h (1 Bft) NW 314 ° 1 min 0,000 mm 4,3 UV-I 707 W/m² 11,4 °C 24,8 °C 4,8 km/h (1 Bft)
18.07.2018 16:14 24,7 °C 44 % 1013,5 hPa 0,0 mm 1,4 km/h (1 Bft) NW 321 ° 1 min 0,000 mm 4,3 UV-I 708 W/m² 11,6 °C 24,7 °C 4,8 km/h (1 Bft)
18.07.2018 16:15 24,7 °C 48 % 1013,5 hPa 0,0 mm 5,0 km/h (1 Bft) NW 311 ° 1 min 0,000 mm 4,3 UV-I 694 W/m² 12,9 °C 24,7 °C 6,4 km/h (2 Bft)
18.07.2018 16:16 24,8 °C 49 % 1013,5 hPa 0,0 mm 6,2 km/h (2 Bft) NW 322 ° 1 min 0,000 mm 3,1 UV-I 694 W/m² 13,3 °C 24,8 °C 9,7 km/h (2 Bft)
18.07.2018 16:17 24,8 °C 47 % 1013,6 hPa 0,0 mm 10,6 km/h (2 Bft) NW 318 ° 0 min 0,000 mm 2,7 UV-I 174 W/m² 12,7 °C 24,8 °C 14,5 km/h (3 Bft)
18.07.2018 16:18 24,8 °C 49 % 1013,6 hPa 0,0 mm 9,7 km/h (2 Bft) NW 309 ° 0 min 0,000 mm 2,7 UV-I 199 W/m² 13,3 °C 24,8 °C 17,7 km/h (3 Bft)
18.07.2018 16:19 24,8 °C 47 % 1013,5 hPa 0,0 mm 6,0 km/h (2 Bft) NW 319 ° 0 min 0,000 mm 2,5 UV-I 130 W/m² 12,7 °C 24,8 °C 9,7 km/h (2 Bft)
18.07.2018 16:20 24,8 °C 46 % 1013,6 hPa 0,0 mm 3,4 km/h (1 Bft) N-NW 337 ° 0 min 0,000 mm 2,3 UV-I 67 W/m² 12,4 °C 24,8 °C 8,0 km/h (2 Bft)
18.07.2018 16:21 24,8 °C 48 % 1013,5 hPa 0,0 mm 4,0 km/h (1 Bft) NW 315 ° 0 min 0,000 mm 2,3 UV-I 63 W/m² 13,0 °C 24,8 °C 8,0 km/h (2 Bft)
18.07.2018 16:22 24,8 °C 46 % 1013,5 hPa 0,0 mm 5,5 km/h (1 Bft) W-NW 287 ° 0 min 0,000 mm 2,3 UV-I 63 W/m² 12,4 °C 24,8 °C 8,0 km/h (2 Bft)
18.07.2018 16:23 24,8 °C 48 % 1013,5 hPa 0,0 mm 3,1 km/h (1 Bft) W 268 ° 0 min 0,000 mm 2,2 UV-I 63 W/m² 13,0 °C 24,8 °C 6,4 km/h (2 Bft)
18.07.2018 16:24 24,8 °C 47 % 1013,5 hPa 0,0 mm 5,9 km/h (2 Bft) NW 312 ° 0 min 0,000 mm 2,2 UV-I 63 W/m² 12,7 °C 24,8 °C 11,3 km/h (2 Bft)
18.07.2018 16:25 24,8 °C 46 % 1013,5 hPa 0,0 mm 3,1 km/h (1 Bft) NO 39 ° 0 min 0,000 mm 2,2 UV-I 62 W/m² 12,4 °C 24,8 °C 8,0 km/h (2 Bft)
18.07.2018 16:26 24,8 °C 48 % 1013,5 hPa 0,0 mm 4,2 km/h (1 Bft) N 355 ° 0 min 0,000 mm 2,2 UV-I 62 W/m² 13,0 °C 24,8 °C 6,4 km/h (2 Bft)
18.07.2018 16:27 24,8 °C 50 % 1013,5 hPa 0,0 mm 3,2 km/h (1 Bft) N-NW 343 ° 0 min 0,000 mm 2,2 UV-I 62 W/m² 13,7 °C 24,8 °C 6,4 km/h (2 Bft)
18.07.2018 16:28 24,9 °C 48 % 1013,5 hPa 0,0 mm 7,2 km/h (2 Bft) NW 314 ° 0 min 0,000 mm 2,2 UV-I 62 W/m² 13,1 °C 24,9 °C 14,5 km/h (3 Bft)
18.07.2018 16:29 24,9 °C 46 % 1013,5 hPa 0,0 mm 6,0 km/h (2 Bft) N-NW 327 ° 0 min 0,000 mm 2,2 UV-I 62 W/m² 12,5 °C 24,9 °C 12,9 km/h (3 Bft)
18.07.2018 16:30 24,9 °C 45 % 1013,5 hPa 0,0 mm 5,4 km/h (1 Bft) N-NW 331 ° 0 min 0,000 mm 2,2 UV-I 62 W/m² 12,1 °C 24,9 °C 11,3 km/h (2 Bft)
18.07.2018 16:31 24,9 °C 47 % 1013,5 hPa 0,0 mm 7,3 km/h (2 Bft) NW 311 ° 0 min 0,000 mm 2,2 UV-I 60 W/m² 12,8 °C 24,9 °C 12,9 km/h (3 Bft)
18.07.2018 16:32 24,9 °C 48 % 1013,6 hPa 0,0 mm 9,0 km/h (2 Bft) N-NW 327 ° 0 min 0,000 mm 2,2 UV-I 60 W/m² 13,1 °C 24,9 °C 12,9 km/h (3 Bft)
18.07.2018 16:33 24,9 °C 48 % 1013,5 hPa 0,0 mm 6,8 km/h (2 Bft) W-NW 289 ° 0 min 0,000 mm 2,2 UV-I 60 W/m² 13,1 °C 24,9 °C 14,5 km/h (3 Bft)
18.07.2018 16:34 24,9 °C 48 % 1013,5 hPa 0,0 mm 3,7 km/h (1 Bft) W-NW 298 ° 0 min 0,000 mm 2,1 UV-I 60 W/m² 13,1 °C 24,9 °C 6,4 km/h (2 Bft)
18.07.2018 16:35 24,8 °C 46 % 1013,5 hPa 0,0 mm 2,0 km/h (1 Bft) W-NW 299 ° 0 min 0,000 mm 2,1 UV-I 60 W/m² 12,4 °C 24,8 °C 4,8 km/h (1 Bft)
18.07.2018 16:36 24,8 °C 47 % 1013,5 hPa 0,0 mm 2,5 km/h (1 Bft) W-NW 300 ° 0 min 0,000 mm 2,1 UV-I 60 W/m² 12,7 °C 24,8 °C 4,8 km/h (1 Bft)
18.07.2018 16:37 24,8 °C 47 % 1013,5 hPa 0,0 mm 3,7 km/h (1 Bft) W 265 ° 0 min 0,000 mm 2,1 UV-I 60 W/m² 12,7 °C 24,8 °C 6,4 km/h (2 Bft)
18.07.2018 16:38 24,7 °C 46 % 1013,4 hPa 0,0 mm 4,5 km/h (1 Bft) W-SW 257 ° 0 min 0,000 mm 2,1 UV-I 60 W/m² 12,3 °C 24,7 °C 6,4 km/h (2 Bft)
18.07.2018 16:39 24,7 °C 44 % 1013,4 hPa 0,0 mm 3,4 km/h (1 Bft) W-SW 257 ° 0 min 0,000 mm 2,1 UV-I 60 W/m² 11,6 °C 24,7 °C 4,8 km/h (1 Bft)
18.07.2018 16:40 24,6 °C 44 % 1013,4 hPa 0,0 mm 5,6 km/h (1 Bft) W 272 ° 0 min 0,000 mm 2,1 UV-I 60 W/m² 11,5 °C 24,6 °C 11,3 km/h (2 Bft)
18.07.2018 16:41 24,6 °C 46 % 1013,5 hPa 0,0 mm 9,2 km/h (2 Bft) N-NW 328 ° 0 min 0,000 mm 2,1 UV-I 60 W/m² 12,2 °C 24,6 °C 12,9 km/h (3 Bft)
18.07.2018 16:42 24,7 °C 49 % 1013,4 hPa 0,0 mm 7,2 km/h (2 Bft) NW 324 ° 0 min 0,000 mm 2,1 UV-I 60 W/m² 13,3 °C 24,7 °C 11,3 km/h (2 Bft)
18.07.2018 16:43 24,8 °C 48 % 1013,5 hPa 0,0 mm 7,4 km/h (2 Bft) NW 317 ° 0 min 0,000 mm 2,1 UV-I 60 W/m² 13,0 °C 24,8 °C 12,9 km/h (3 Bft)
18.07.2018 16:44 24,8 °C 48 % 1013,4 hPa 0,0 mm 6,5 km/h (2 Bft) N-NW 331 ° 0 min 0,000 mm 2,1 UV-I 60 W/m² 13,0 °C 24,8 °C 9,7 km/h (2 Bft)
18.07.2018 16:45 24,9 °C 47 % 1013,5 hPa 0,0 mm 7,4 km/h (2 Bft) N-NW 345 ° 0 min 0,000 mm 2,1 UV-I 60 W/m² 12,8 °C 24,9 °C 11,3 km/h (2 Bft)
18.07.2018 16:46 24,9 °C 47 % 1013,5 hPa 0,0 mm 5,0 km/h (1 Bft) N-NW 329 ° 0 min 0,000 mm 2,0 UV-I 58 W/m² 12,8 °C 24,9 °C 6,4 km/h (2 Bft)
18.07.2018 16:47 24,9 °C 47 % 1013,5 hPa 0,0 mm 3,1 km/h (1 Bft) N-NW 329 ° 0 min 0,000 mm 2,0 UV-I 58 W/m² 12,8 °C 24,9 °C 4,8 km/h (1 Bft)
18.07.2018 16:48 24,9 °C 46 % 1013,4 hPa 0,0 mm 4,5 km/h (1 Bft) NW 324 ° 0 min 0,000 mm 2,0 UV-I 58 W/m² 12,5 °C 24,9 °C 8,0 km/h (2 Bft)
18.07.2018 16:49 25,0 °C 47 % 1013,4 hPa 0,0 mm 6,9 km/h (2 Bft) N-NW 333 ° 0 min 0,000 mm 2,0 UV-I 58 W/m² 12,9 °C 25,0 °C 12,9 km/h (3 Bft)
18.07.2018 16:50 24,9 °C 46 % 1013,5 hPa 0,0 mm 5,6 km/h (1 Bft) NW 318 ° 0 min 0,000 mm 2,0 UV-I 58 W/m² 12,5 °C 24,9 °C 8,0 km/h (2 Bft)
18.07.2018 16:51 24,9 °C 48 % 1013,4 hPa 0,0 mm 6,6 km/h (2 Bft) NW 317 ° 0 min 0,000 mm 2,0 UV-I 58 W/m² 13,1 °C 24,9 °C 9,7 km/h (2 Bft)
18.07.2018 16:52 24,9 °C 47 % 1013,4 hPa 0,0 mm 5,7 km/h (1 Bft) NW 313 ° 0 min 0,000 mm 2,0 UV-I 58 W/m² 12,8 °C 24,9 °C 9,7 km/h (2 Bft)
18.07.2018 16:53 24,8 °C 47 % 1013,4 hPa 0,0 mm 3,9 km/h (1 Bft) N-NW 330 ° 0 min 0,000 mm 2,0 UV-I 58 W/m² 12,7 °C 24,8 °C 6,4 km/h (2 Bft)
18.07.2018 16:54 24,8 °C 50 % 1013,4 hPa 0,0 mm 5,6 km/h (1 Bft) W 277 ° 0 min 0,000 mm 2,0 UV-I 58 W/m² 13,7 °C 24,8 °C 11,3 km/h (2 Bft)
18.07.2018 16:55 24,9 °C 49 % 1013,5 hPa 0,0 mm 7,8 km/h (2 Bft) W-NW 295 ° 0 min 0,000 mm 1,9 UV-I 58 W/m² 13,4 °C 24,9 °C 11,3 km/h (2 Bft)
18.07.2018 16:56 24,8 °C 45 % 1013,4 hPa 0,0 mm 6,0 km/h (2 Bft) W-SW 255 ° 0 min 0,000 mm 1,9 UV-I 62 W/m² 12,0 °C 24,8 °C 9,7 km/h (2 Bft)
18.07.2018 16:57 24,7 °C 45 % 1013,4 hPa 0,0 mm 5,6 km/h (1 Bft) W 274 ° 0 min 0,000 mm 1,9 UV-I 63 W/m² 12,0 °C 24,7 °C 9,7 km/h (2 Bft)
18.07.2018 16:58 24,6 °C 44 % 1013,4 hPa 0,0 mm 3,0 km/h (1 Bft) W-NW 302 ° 0 min 0,000 mm 1,9 UV-I 62 W/m² 11,5 °C 24,6 °C 4,8 km/h (1 Bft)
18.07.2018 16:59 24,6 °C 46 % 1013,4 hPa 0,0 mm 1,6 km/h (1 Bft) W-NW 302 ° 0 min 0,000 mm 1,9 UV-I 60 W/m² 12,2 °C 24,6 °C 3,2 km/h (1 Bft)
18.07.2018 17:00 24,5 °C 48 % 1013,4 hPa 0,0 mm 1,7 km/h (1 Bft) W-NW 302 ° 0 min 0,000 mm 1,9 UV-I 60 W/m² 12,8 °C 24,5 °C 3,2 km/h (1 Bft)
18.07.2018 17:01 24,4 °C 45 % 1013,4 hPa 0,0 mm 1,2 km/h (1 Bft) W-NW 302 ° 0 min 0,203 mm 1,9 UV-I 60 W/m² 11,7 °C 24,4 °C 3,2 km/h (1 Bft)
18.07.2018 17:02 24,4 °C 45 % 1013,4 hPa 0,0 mm 1,5 km/h (1 Bft) W-NW 302 ° 0 min 0,000 mm 1,9 UV-I 60 W/m² 11,7 °C 24,4 °C 3,2 km/h (1 Bft)
18.07.2018 17:03 24,4 °C 46 % 1013,3 hPa 0,0 mm 4,0 km/h (1 Bft) W-NW 288 ° 0 min 0,000 mm 1,9 UV-I 60 W/m² 12,0 °C 24,4 °C 8,0 km/h (2 Bft)
18.07.2018 17:04 24,5 °C 49 % 1013,3 hPa 0,0 mm 3,9 km/h (1 Bft) NW 323 ° 0 min 0,000 mm 1,9 UV-I 60 W/m² 13,1 °C 24,5 °C 6,4 km/h (2 Bft)
18.07.2018 17:05 24,6 °C 47 % 1013,3 hPa 0,0 mm 5,5 km/h (1 Bft) NW 309 ° 0 min 0,000 mm 1,9 UV-I 62 W/m² 12,5 °C 24,6 °C 12,9 km/h (3 Bft)
18.07.2018 17:06 24,6 °C 48 % 1013,3 hPa 0,0 mm 9,1 km/h (2 Bft) N 355 ° 0 min 0,000 mm 1,9 UV-I 60 W/m² 12,8 °C 24,6 °C 14,5 km/h (3 Bft)
18.07.2018 17:07 24,7 °C 49 % 1013,3 hPa 0,0 mm 5,3 km/h (1 Bft) W-NW 302 ° 0 min 0,000 mm 1,9 UV-I 60 W/m² 13,3 °C 24,7 °C 6,4 km/h (2 Bft)
18.07.2018 17:08 24,7 °C 46 % 1013,3 hPa 0,0 mm 6,9 km/h (2 Bft) W-NW 285 ° 0 min 0,000 mm 1,9 UV-I 60 W/m² 12,3 °C 24,7 °C 9,7 km/h (2 Bft)
18.07.2018 17:09 24,7 °C 47 % 1013,3 hPa 0,0 mm 4,6 km/h (1 Bft) W 273 ° 0 min 0,000 mm 1,8 UV-I 58 W/m² 12,6 °C 24,7 °C 6,4 km/h (2 Bft)
18.07.2018 17:10 24,7 °C 45 % 1013,3 hPa 0,0 mm 7,0 km/h (2 Bft) W-NW 301 ° 0 min 0,000 mm 1,8 UV-I 58 W/m² 12,0 °C 24,7 °C 11,3 km/h (2 Bft)
18.07.2018 17:11 24,7 °C 45 % 1013,3 hPa 0,0 mm 5,0 km/h (1 Bft) W-NW 290 ° 0 min 0,000 mm 1,8 UV-I 60 W/m² 12,0 °C 24,7 °C 9,7 km/h (2 Bft)
18.07.2018 17:12 24,7 °C 46 % 1013,3 hPa 0,0 mm 4,4 km/h (1 Bft) W 279 ° 0 min 0,000 mm 1,8 UV-I 62 W/m² 12,3 °C 24,7 °C 9,7 km/h (2 Bft)
18.07.2018 17:13 24,7 °C 47 % 1013,3 hPa 0,0 mm 6,8 km/h (2 Bft) N-NW 343 ° 0 min 0,000 mm 1,8 UV-I 62 W/m² 12,6 °C 24,7 °C 11,3 km/h (2 Bft)
18.07.2018 17:14 24,8 °C 47 % 1013,3 hPa 0,0 mm 6,8 km/h (2 Bft) W-NW 301 ° 0 min 0,000 mm 1,8 UV-I 63 W/m² 12,7 °C 24,8 °C 11,3 km/h (2 Bft)
18.07.2018 17:15 24,8 °C 46 % 1013,3 hPa 0,0 mm 6,4 km/h (2 Bft) N 5 ° 0 min 0,000 mm 1,8 UV-I 63 W/m² 12,4 °C 24,8 °C 9,7 km/h (2 Bft)
18.07.2018 17:16 24,8 °C 46 % 1013,3 hPa 0,0 mm 1,5 km/h (1 Bft) NW 325 ° 0 min 0,000 mm 1,8 UV-I 62 W/m² 12,4 °C 24,8 °C 4,8 km/h (1 Bft)
18.07.2018 17:17 24,7 °C 44 % 1013,3 hPa 0,0 mm 2,2 km/h (1 Bft) W-NW 301 ° 0 min 0,000 mm 1,8 UV-I 62 W/m² 11,6 °C 24,7 °C 4,8 km/h (1 Bft)
18.07.2018 17:18 24,6 °C 48 % 1013,3 hPa 0,0 mm 2,7 km/h (1 Bft) W-NW 300 ° 0 min 0,000 mm 1,8 UV-I 62 W/m² 12,8 °C 24,6 °C 4,8 km/h (1 Bft)
18.07.2018 17:19 24,6 °C 46 % 1013,3 hPa 0,0 mm 3,0 km/h (1 Bft) N-NW 328 ° 0 min 0,000 mm 1,8 UV-I 62 W/m² 12,2 °C 24,6 °C 4,8 km/h (1 Bft)
18.07.2018 17:20 24,6 °C 47 % 1013,3 hPa 0,0 mm 2,8 km/h (1 Bft) N-NW 327 ° 0 min 0,000 mm 1,8 UV-I 63 W/m² 12,5 °C 24,6 °C 4,8 km/h (1 Bft)
18.07.2018 17:21 24,6 °C 45 % 1013,2 hPa 0,0 mm 2,3 km/h (1 Bft) N-NW 328 ° 0 min 0,000 mm 1,8 UV-I 65 W/m² 11,9 °C 24,6 °C 4,8 km/h (1 Bft)
18.07.2018 17:22 24,7 °C 47 % 1013,3 hPa 0,0 mm 5,6 km/h (1 Bft) NW 315 ° 0 min 0,000 mm 1,8 UV-I 65 W/m² 12,6 °C 24,7 °C 8,0 km/h (2 Bft)
18.07.2018 17:23 24,7 °C 45 % 1013,2 hPa 0,0 mm 3,4 km/h (1 Bft) NW 315 ° 0 min 0,000 mm 1,7 UV-I 65 W/m² 12,0 °C 24,7 °C 6,4 km/h (2 Bft)
18.07.2018 17:24 24,7 °C 46 % 1013,2 hPa 0,0 mm 1,6 km/h (1 Bft) NW 315 ° 0 min 0,000 mm 1,7 UV-I 63 W/m² 12,3 °C 24,7 °C 4,8 km/h (1 Bft)
18.07.2018 17:25 24,7 °C 46 % 1013,3 hPa 0,0 mm 5,0 km/h (1 Bft) W-NW 286 ° 0 min 0,000 mm 1,7 UV-I 63 W/m² 12,3 °C 24,7 °C 11,3 km/h (2 Bft)
18.07.2018 17:26 24,7 °C 48 % 1013,3 hPa 0,0 mm 6,3 km/h (2 Bft) W-NW 291 ° 0 min 0,000 mm 1,7 UV-I 65 W/m² 12,9 °C 24,7 °C 9,7 km/h (2 Bft)
18.07.2018 17:27 24,7 °C 48 % 1013,2 hPa 0,0 mm 6,6 km/h (2 Bft) W-NW 282 ° 0 min 0,000 mm 1,7 UV-I 63 W/m² 12,9 °C 24,7 °C 9,7 km/h (2 Bft)
18.07.2018 17:28 24,7 °C 45 % 1013,3 hPa 0,0 mm 3,2 km/h (1 Bft) W-NW 288 ° 0 min 0,000 mm 1,7 UV-I 63 W/m² 12,0 °C 24,7 °C 9,7 km/h (2 Bft)
18.07.2018 17:29 24,8 °C 46 % 1013,2 hPa 0,0 mm 3,6 km/h (1 Bft) W-NW 291 ° 0 min 0,000 mm 1,7 UV-I 62 W/m² 12,4 °C 24,8 °C 6,4 km/h (2 Bft)
18.07.2018 17:30 24,8 °C 45 % 1013,2 hPa 0,0 mm 3,4 km/h (1 Bft) W-NW 300 ° 0 min 0,000 mm 1,7 UV-I 62 W/m² 12,0 °C 24,8 °C 6,4 km/h (2 Bft)
18.07.2018 17:31 24,8 °C 46 % 1013,2 hPa 0,0 mm 5,6 km/h (1 Bft) NW 325 ° 0 min 0,000 mm 1,7 UV-I 60 W/m² 12,4 °C 24,8 °C 8,0 km/h (2 Bft)
18.07.2018 17:32 24,8 °C 44 % 1013,2 hPa 0,0 mm 3,5 km/h (1 Bft) W-NW 297 ° 0 min 0,000 mm 1,7 UV-I 58 W/m² 11,7 °C 24,8 °C 6,4 km/h (2 Bft)
18.07.2018 17:33 24,8 °C 45 % 1013,2 hPa 0,0 mm 4,7 km/h (1 Bft) NW 312 ° 0 min 0,000 mm 1,6 UV-I 56 W/m² 12,0 °C 24,8 °C 8,0 km/h (2 Bft)
18.07.2018 17:34 24,8 °C 47 % 1013,1 hPa 0,0 mm 5,0 km/h (1 Bft) W-NW 290 ° 0 min 0,000 mm 0,0 UV-I 54 W/m² 12,7 °C 24,8 °C 11,3 km/h (2 Bft)
18.07.2018 17:35 24,8 °C 46 % 1013,1 hPa 0,0 mm 6,6 km/h (2 Bft) W 275 ° 0 min 0,000 mm 0,0 UV-I 54 W/m² 12,4 °C 24,8 °C 9,7 km/h (2 Bft)
18.07.2018 17:36 24,8 °C 46 % 1013,2 hPa 0,0 mm 2,2 km/h (1 Bft) W 275 ° 0 min 0,000 mm 0,0 UV-I 54 W/m² 12,4 °C 24,8 °C 6,4 km/h (2 Bft)
18.07.2018 17:37 24,8 °C 45 % 1013,2 hPa 0,0 mm 2,6 km/h (1 Bft) W 275 ° 0 min 0,000 mm 0,0 UV-I 54 W/m² 12,0 °C 24,8 °C 4,8 km/h (1 Bft)
18.07.2018 17:38 24,8 °C 48 % 1013,2 hPa 0,0 mm 1,9 km/h (1 Bft) W 275 ° 0 min 0,000 mm 0,0 UV-I 54 W/m² 13,0 °C 24,8 °C 3,2 km/h (1 Bft)
18.07.2018 17:39 24,8 °C 47 % 1013,2 hPa 0,0 mm 1,5 km/h (1 Bft) W 280 ° 0 min 0,000 mm 0,0 UV-I 54 W/m² 12,7 °C 24,8 °C 3,2 km/h (1 Bft)
18.07.2018 17:40 24,8 °C 46 % 1013,1 hPa 0,0 mm 2,3 km/h (1 Bft) W 280 ° 0 min 0,000 mm 0,0 UV-I 54 W/m² 12,4 °C 24,8 °C 3,2 km/h (1 Bft)
18.07.2018 17:41 24,9 °C 44 % 1013,1 hPa 0,0 mm 3,6 km/h (1 Bft) NW 321 ° 0 min 0,000 mm 0,0 UV-I 53 W/m² 11,8 °C 24,9 °C 6,4 km/h (2 Bft)
18.07.2018 17:42 24,8 °C 44 % 1013,1 hPa 0,0 mm 2,7 km/h (1 Bft) N 360 ° 0 min 0,000 mm 0,0 UV-I 53 W/m² 11,7 °C 24,8 °C 6,4 km/h (2 Bft)
18.07.2018 17:43 24,8 °C 43 % 1013,2 hPa 0,0 mm 6,3 km/h (2 Bft) N-NW 348 ° 0 min 0,000 mm 0,0 UV-I 53 W/m² 11,4 °C 24,8 °C 12,9 km/h (3 Bft)
18.07.2018 17:44 24,8 °C 46 % 1013,2 hPa 0,0 mm 8,5 km/h (2 Bft) N 5 ° 0 min 0,000 mm 0,0 UV-I 53 W/m² 12,4 °C 24,8 °C 12,9 km/h (3 Bft)
18.07.2018 17:45 24,8 °C 46 % 1013,1 hPa 0,0 mm 8,9 km/h (2 Bft) N-NW 340 ° 0 min 0,000 mm 0,0 UV-I 53 W/m² 12,4 °C 24,8 °C 12,9 km/h (3 Bft)
18.07.2018 17:46 24,8 °C 44 % 1013,2 hPa 0,0 mm 10,7 km/h (2 Bft) N 360 ° 0 min 0,000 mm 0,0 UV-I 54 W/m² 11,7 °C 24,8 °C 14,5 km/h (3 Bft)
18.07.2018 17:47 24,8 °C 44 % 1013,2 hPa 0,0 mm 7,7 km/h (2 Bft) N-NW 335 ° 0 min 0,000 mm 0,0 UV-I 53 W/m² 11,7 °C 24,8 °C 12,9 km/h (3 Bft)
18.07.2018 17:48 24,8 °C 45 % 1013,1 hPa 0,0 mm 3,6 km/h (1 Bft) N-NW 336 ° 0 min 0,000 mm 0,0 UV-I 53 W/m² 12,0 °C 24,8 °C 4,8 km/h (1 Bft)
18.07.2018 17:49 24,7 °C 44 % 1013,1 hPa 0,0 mm 6,6 km/h (2 Bft) W 281 ° 0 min 0,000 mm 0,0 UV-I 53 W/m² 11,6 °C 24,7 °C 8,0 km/h (2 Bft)
18.07.2018 17:50 24,7 °C 44 % 1013,1 hPa 0,0 mm 8,4 km/h (2 Bft) SW 232 ° 0 min 0,000 mm 0,0 UV-I 53 W/m² 11,6 °C 24,7 °C 11,3 km/h (2 Bft)
18.07.2018 17:51 24,7 °C 45 % 1013,1 hPa 0,0 mm 6,2 km/h (2 Bft) W-SW 247 ° 0 min 0,000 mm 0,0 UV-I 53 W/m² 12,0 °C 24,7 °C 8,0 km/h (2 Bft)
18.07.2018 17:52 24,6 °C 44 % 1013,1 hPa 0,0 mm 3,2 km/h (1 Bft) W-SW 247 ° 0 min 0,000 mm 0,0 UV-I 53 W/m² 11,5 °C 24,6 °C 4,8 km/h (1 Bft)
18.07.2018 17:53 24,6 °C 44 % 1013,0 hPa 0,0 mm 2,7 km/h (1 Bft) W 259 ° 0 min 0,000 mm 0,0 UV-I 53 W/m² 11,5 °C 24,6 °C 4,8 km/h (1 Bft)
18.07.2018 17:54 24,7 °C 45 % 1013,1 hPa 0,0 mm 0,7 km/h (0 Bft) W 259 ° 0 min 0,000 mm 0,0 UV-I 53 W/m² 12,0 °C 24,7 °C 1,6 km/h (1 Bft)
18.07.2018 17:55 24,7 °C 45 % 1013,0 hPa 0,0 mm 0,7 km/h (0 Bft) W-SW 249 ° 0 min 0,000 mm 0,0 UV-I 51 W/m² 12,0 °C 24,7 °C 4,8 km/h (1 Bft)
18.07.2018 17:56 24,8 °C 45 % 1013,1 hPa 0,0 mm 1,2 km/h (1 Bft) W-SW 249 ° 0 min 0,000 mm 0,0 UV-I 51 W/m² 12,0 °C 24,8 °C 3,2 km/h (1 Bft)
18.07.2018 17:57 24,8 °C 46 % 1013,0 hPa 0,0 mm 1,3 km/h (1 Bft) W-NW 282 ° 0 min 0,000 mm 0,0 UV-I 51 W/m² 12,4 °C 24,8 °C 4,8 km/h (1 Bft)
18.07.2018 17:58 24,9 °C 43 % 1013,1 hPa 0,0 mm 0,4 km/h (0 Bft) W-NW 282 ° 0 min 0,000 mm 0,0 UV-I 51 W/m² 11,4 °C 24,9 °C 1,6 km/h (1 Bft)
18.07.2018 17:59 24,8 °C 45 % 1013,0 hPa 0,0 mm 0,1 km/h (0 Bft) W-NW 282 ° 0 min 0,000 mm 0,0 UV-I 51 W/m² 12,0 °C 24,8 °C 1,6 km/h (1 Bft)
18.07.2018 18:00 24,8 °C 46 % 1013,0 hPa 0,0 mm 1,4 km/h (1 Bft) W-NW 282 ° 0 min 0,000 mm 0,0 UV-I 51 W/m² 12,4 °C 24,8 °C 3,2 km/h (1 Bft)
18.07.2018 18:01 24,8 °C 46 % 1013,0 hPa 0,0 mm 5,1 km/h (1 Bft) W-NW 300 ° 0 min 0,076 mm 0,0 UV-I 49 W/m² 12,4 °C 24,8 °C 6,4 km/h (2 Bft)
18.07.2018 18:02 24,8 °C 42 % 1013,0 hPa 0,0 mm 0,3 km/h (0 Bft) W-NW 300 ° 0 min 0,000 mm 0,0 UV-I 49 W/m² 11,0 °C 24,8 °C 3,2 km/h (1 Bft)
18.07.2018 18:03 24,8 °C 42 % 1013,0 hPa 0,0 mm 0,0 km/h (0 Bft) W-NW 300 ° 0 min 0,000 mm 0,0 UV-I 49 W/m² 11,0 °C 24,8 °C 0,0 km/h (0 Bft)
18.07.2018 18:04 24,7 °C 45 % 1013,0 hPa 0,0 mm 2,7 km/h (1 Bft) W-NW 300 ° 0 min 0,000 mm 0,0 UV-I 49 W/m² 12,0 °C 24,7 °C 4,8 km/h (1 Bft)
18.07.2018 18:05 24,7 °C 44 % 1012,9 hPa 0,0 mm 3,8 km/h (1 Bft) W-NW 300 ° 0 min 0,000 mm 0,0 UV-I 49 W/m² 11,6 °C 24,7 °C 6,4 km/h (2 Bft)
18.07.2018 18:06 24,8 °C 46 % 1012,9 hPa 0,0 mm 3,1 km/h (1 Bft) NW 309 ° 0 min 0,000 mm 0,0 UV-I 49 W/m² 12,4 °C 24,8 °C 4,8 km/h (1 Bft)
18.07.2018 18:07 24,8 °C 45 % 1013,0 hPa 0,0 mm 6,0 km/h (2 Bft) N-NW 334 ° 0 min 0,000 mm 0,0 UV-I 47 W/m² 12,0 °C 24,8 °C 9,7 km/h (2 Bft)
18.07.2018 18:08 24,8 °C 44 % 1013,0 hPa 0,0 mm 9,3 km/h (2 Bft) NW 318 ° 0 min 0,000 mm 0,0 UV-I 47 W/m² 11,7 °C 24,8 °C 12,9 km/h (3 Bft)
18.07.2018 18:09 24,9 °C 43 % 1013,0 hPa 0,0 mm 5,2 km/h (1 Bft) N-NW 327 ° 0 min 0,000 mm 0,0 UV-I 47 W/m² 11,4 °C 24,9 °C 9,7 km/h (2 Bft)
18.07.2018 18:10 24,9 °C 45 % 1013,0 hPa 0,0 mm 5,0 km/h (1 Bft) NW 306 ° 0 min 0,000 mm 0,0 UV-I 47 W/m² 12,1 °C 24,9 °C 8,0 km/h (2 Bft)
18.07.2018 18:11 24,9 °C 44 % 1013,0 hPa 0,0 mm 5,1 km/h (1 Bft) NW 313 ° 0 min 0,000 mm 0,0 UV-I 47 W/m² 11,8 °C 24,9 °C 6,4 km/h (2 Bft)
18.07.2018 18:12 24,9 °C 44 % 1012,9 hPa 0,0 mm 5,3 km/h (1 Bft) N-NW 330 ° 0 min 0,000 mm 0,0 UV-I 47 W/m² 11,8 °C 24,9 °C 8,0 km/h (2 Bft)
18.07.2018 18:13 24,9 °C 47 % 1013,0 hPa 0,0 mm 4,4 km/h (1 Bft) W-NW 286 ° 0 min 0,000 mm 0,0 UV-I 47 W/m² 12,8 °C 24,9 °C 6,4 km/h (2 Bft)
18.07.2018 18:14 24,9 °C 45 % 1012,9 hPa 0,0 mm 5,2 km/h (1 Bft) W 273 ° 0 min 0,000 mm 0,0 UV-I 47 W/m² 12,1 °C 24,9 °C 9,7 km/h (2 Bft)
18.07.2018 18:15 24,9 °C 43 % 1012,9 hPa 0,0 mm 1,3 km/h (1 Bft) W 273 ° 0 min 0,000 mm 0,0 UV-I 46 W/m² 11,4 °C 24,9 °C 3,2 km/h (1 Bft)
18.07.2018 18:16 24,8 °C 45 % 1012,9 hPa 0,0 mm 2,0 km/h (1 Bft) W 277 ° 0 min 0,000 mm 0,0 UV-I 46 W/m² 12,0 °C 24,8 °C 3,2 km/h (1 Bft)
18.07.2018 18:17 24,9 °C 45 % 1012,9 hPa 0,0 mm 3,0 km/h (1 Bft) NW 304 ° 0 min 0,000 mm 0,0 UV-I 46 W/m² 12,1 °C 24,9 °C 4,8 km/h (1 Bft)
18.07.2018 18:18 24,9 °C 43 % 1012,9 hPa 0,0 mm 4,7 km/h (1 Bft) W-SW 252 ° 0 min 0,000 mm 0,0 UV-I 46 W/m² 11,4 °C 24,9 °C 6,4 km/h (2 Bft)
18.07.2018 18:19 24,9 °C 43 % 1012,9 hPa 0,0 mm 6,2 km/h (2 Bft) W-SW 257 ° 0 min 0,000 mm 0,0 UV-I 46 W/m² 11,4 °C 24,9 °C 9,7 km/h (2 Bft)
18.07.2018 18:20 24,8 °C 42 % 1012,9 hPa 0,0 mm 4,8 km/h (1 Bft) W-SW 256 ° 0 min 0,000 mm 0,0 UV-I 46 W/m² 11,0 °C 24,8 °C 6,4 km/h (2 Bft)
18.07.2018 18:21 24,8 °C 44 % 1012,9 hPa 0,0 mm 6,3 km/h (2 Bft) W 279 ° 0 min 0,000 mm 0,0 UV-I 46 W/m² 11,7 °C 24,8 °C 9,7 km/h (2 Bft)
18.07.2018 18:22 24,8 °C 42 % 1012,8 hPa 0,0 mm 6,2 km/h (2 Bft) W-NW 290 ° 0 min 0,000 mm 0,0 UV-I 47 W/m² 11,0 °C 24,8 °C 9,7 km/h (2 Bft)
18.07.2018 18:23 24,8 °C 42 % 1012,8 hPa 0,0 mm 4,5 km/h (1 Bft) W-NW 290 ° 0 min 0,000 mm 0,0 UV-I 46 W/m² 11,0 °C 24,8 °C 6,4 km/h (2 Bft)
18.07.2018 18:24 24,8 °C 44 % 1012,8 hPa 0,0 mm 4,8 km/h (1 Bft) W-NW 292 ° 0 min 0,000 mm 0,0 UV-I 46 W/m² 11,7 °C 24,8 °C 6,4 km/h (2 Bft)
18.07.2018 18:25 24,8 °C 45 % 1012,8 hPa 0,0 mm 5,9 km/h (2 Bft) NW 316 ° 0 min 0,000 mm 0,0 UV-I 46 W/m² 12,0 °C 24,8 °C 8,0 km/h (2 Bft)
18.07.2018 18:26 24,9 °C 46 % 1012,8 hPa 0,0 mm 4,8 km/h (1 Bft) W-NW 302 ° 0 min 0,000 mm 0,0 UV-I 46 W/m² 12,5 °C 24,9 °C 6,4 km/h (2 Bft)
18.07.2018 18:27 24,9 °C 46 % 1012,8 hPa 0,0 mm 3,0 km/h (1 Bft) NW 308 ° 0 min 0,000 mm 0,0 UV-I 46 W/m² 12,5 °C 24,9 °C 6,4 km/h (2 Bft)
18.07.2018 18:28 24,9 °C 45 % 1012,8 hPa 0,0 mm 6,8 km/h (2 Bft) N-NO 23 ° 0 min 0,000 mm 0,0 UV-I 46 W/m² 12,1 °C 24,9 °C 12,9 km/h (3 Bft)
18.07.2018 18:29 24,9 °C 43 % 1012,8 hPa 0,0 mm 6,7 km/h (2 Bft) NW 325 ° 0 min 0,000 mm 0,0 UV-I 46 W/m² 11,4 °C 24,9 °C 9,7 km/h (2 Bft)
18.07.2018 18:30 24,9 °C 43 % 1012,8 hPa 0,0 mm 4,9 km/h (1 Bft) N-NW 330 ° 0 min 0,000 mm 0,0 UV-I 46 W/m² 11,4 °C 24,9 °C 6,4 km/h (2 Bft)
18.07.2018 18:31 24,8 °C 43 % 1012,8 hPa 0,0 mm 4,2 km/h (1 Bft) N 355 ° 0 min 0,000 mm 0,0 UV-I 46 W/m² 11,4 °C 24,8 °C 6,4 km/h (2 Bft)
18.07.2018 18:32 24,8 °C 45 % 1012,8 hPa 0,0 mm 3,7 km/h (1 Bft) N-NO 13 ° 0 min 0,000 mm 0,0 UV-I 44 W/m² 12,0 °C 24,8 °C 6,4 km/h (2 Bft)
18.07.2018 18:33 24,8 °C 44 % 1012,8 hPa 0,0 mm 2,8 km/h (1 Bft) N-NW 334 ° 0 min 0,000 mm 0,0 UV-I 44 W/m² 11,7 °C 24,8 °C 6,4 km/h (2 Bft)
18.07.2018 18:34 24,7 °C 44 % 1012,8 hPa 0,0 mm 3,3 km/h (1 Bft) N-NW 348 ° 0 min 0,000 mm 0,0 UV-I 44 W/m² 11,6 °C 24,7 °C 8,0 km/h (2 Bft)
18.07.2018 18:35 24,7 °C 43 % 1012,8 hPa 0,0 mm 2,7 km/h (1 Bft) N-NW 348 ° 0 min 0,000 mm 0,0 UV-I 46 W/m² 11,3 °C 24,7 °C 4,8 km/h (1 Bft)
18.07.2018 18:36 24,7 °C 44 % 1012,7 hPa 0,0 mm 3,0 km/h (1 Bft) W-NW 292 ° 0 min 0,000 mm 0,0 UV-I 46 W/m² 11,6 °C 24,7 °C 6,4 km/h (2 Bft)
18.07.2018 18:37 24,7 °C 41 % 1012,7 hPa 0,0 mm 6,0 km/h (2 Bft) W-NW 291 ° 0 min 0,000 mm 0,0 UV-I 46 W/m² 10,6 °C 24,7 °C 9,7 km/h (2 Bft)
18.07.2018 18:38 24,7 °C 43 % 1012,7 hPa 0,0 mm 4,4 km/h (1 Bft) W-NW 290 ° 0 min 0,000 mm 0,0 UV-I 46 W/m² 11,3 °C 24,7 °C 4,8 km/h (1 Bft)
18.07.2018 18:39 24,7 °C 44 % 1012,7 hPa 0,0 mm 5,1 km/h (1 Bft) W-NW 286 ° 0 min 0,000 mm 0,0 UV-I 46 W/m² 11,6 °C 24,7 °C 6,4 km/h (2 Bft)
18.07.2018 18:40 24,8 °C 45 % 1012,7 hPa 0,0 mm 3,5 km/h (1 Bft) W 262 ° 0 min 0,000 mm 0,0 UV-I 46 W/m² 12,0 °C 24,8 °C 4,8 km/h (1 Bft)
18.07.2018 18:41 24,7 °C 43 % 1012,7 hPa 0,0 mm 5,8 km/h (2 Bft) W 259 ° 0 min 0,000 mm 1,2 UV-I 70 W/m² 11,3 °C 24,7 °C 9,7 km/h (2 Bft)
18.07.2018 18:42 24,7 °C 45 % 1012,7 hPa 0,0 mm 2,3 km/h (1 Bft) W 259 ° 0 min 0,000 mm 1,3 UV-I 130 W/m² 12,0 °C 24,7 °C 4,8 km/h (1 Bft)
18.07.2018 18:43 24,6 °C 43 % 1012,7 hPa 0,0 mm 2,7 km/h (1 Bft) W 263 ° 0 min 0,000 mm 1,3 UV-I 118 W/m² 11,2 °C 24,6 °C 4,8 km/h (1 Bft)
18.07.2018 18:44 24,7 °C 44 % 1012,7 hPa 0,0 mm 0,9 km/h (0 Bft) W 263 ° 0 min 0,000 mm 1,3 UV-I 144 W/m² 11,6 °C 24,7 °C 3,2 km/h (1 Bft)
18.07.2018 18:45 24,7 °C 46 % 1012,7 hPa 0,0 mm 6,2 km/h (2 Bft) NW 324 ° 0 min 0,000 mm 1,3 UV-I 190 W/m² 12,3 °C 24,7 °C 9,7 km/h (2 Bft)
18.07.2018 18:46 24,7 °C 46 % 1012,7 hPa 0,0 mm 4,8 km/h (1 Bft) W-NW 296 ° 0 min 0,000 mm 1,3 UV-I 244 W/m² 12,3 °C 24,7 °C 6,4 km/h (2 Bft)
18.07.2018 18:47 24,7 °C 45 % 1012,7 hPa 0,0 mm 3,5 km/h (1 Bft) N-NW 338 ° 0 min 0,000 mm 1,1 UV-I 227 W/m² 12,0 °C 24,7 °C 6,4 km/h (2 Bft)
18.07.2018 18:48 24,7 °C 46 % 1012,7 hPa 0,0 mm 4,0 km/h (1 Bft) N-NW 339 ° 0 min 0,000 mm 1,0 UV-I 70 W/m² 12,3 °C 24,7 °C 6,4 km/h (2 Bft)
18.07.2018 18:49 24,7 °C 46 % 1012,6 hPa 0,0 mm 1,1 km/h (1 Bft) N-NW 339 ° 0 min 0,000 mm 0,0 UV-I 49 W/m² 12,3 °C 24,7 °C 3,2 km/h (1 Bft)
18.07.2018 18:50 24,7 °C 46 % 1012,6 hPa 0,0 mm 5,2 km/h (1 Bft) NW 325 ° 0 min 0,000 mm 0,0 UV-I 46 W/m² 12,3 °C 24,7 °C 8,0 km/h (2 Bft)
18.07.2018 18:51 24,7 °C 47 % 1012,7 hPa 0,0 mm 4,2 km/h (1 Bft) NW 325 ° 0 min 0,000 mm 0,0 UV-I 54 W/m² 12,6 °C 24,7 °C 6,4 km/h (2 Bft)
18.07.2018 18:52 24,7 °C 45 % 1012,6 hPa 0,0 mm 6,0 km/h (2 Bft) N-NW 329 ° 0 min 0,000 mm 1,0 UV-I 56 W/m² 12,0 °C 24,7 °C 8,0 km/h (2 Bft)
18.07.2018 18:53 24,7 °C 45 % 1012,6 hPa 0,0 mm 5,0 km/h (1 Bft) W-NW 299 ° 0 min 0,000 mm 0,0 UV-I 51 W/m² 12,0 °C 24,7 °C 8,0 km/h (2 Bft)
18.07.2018 18:54 24,6 °C 46 % 1012,6 hPa 0,0 mm 4,2 km/h (1 Bft) NW 320 ° 0 min 0,000 mm 1,0 UV-I 76 W/m² 12,2 °C 24,6 °C 8,0 km/h (2 Bft)
18.07.2018 18:55 24,6 °C 45 % 1012,6 hPa 0,0 mm 3,8 km/h (1 Bft) NW 320 ° 0 min 0,000 mm 1,1 UV-I 144 W/m² 11,9 °C 24,6 °C 6,4 km/h (2 Bft)
18.07.2018 18:56 24,6 °C 45 % 1012,6 hPa 0,0 mm 3,8 km/h (1 Bft) NW 318 ° 0 min 0,000 mm 1,2 UV-I 186 W/m² 11,9 °C 24,6 °C 8,0 km/h (2 Bft)
18.07.2018 18:57 24,6 °C 46 % 1012,6 hPa 0,0 mm 4,3 km/h (1 Bft) NW 311 ° 0 min 0,000 mm 1,1 UV-I 192 W/m² 12,2 °C 24,6 °C 6,4 km/h (2 Bft)
18.07.2018 18:58 24,6 °C 46 % 1012,6 hPa 0,0 mm 1,9 km/h (1 Bft) NW 311 ° 0 min 0,000 mm 1,0 UV-I 192 W/m² 12,2 °C 24,6 °C 4,8 km/h (1 Bft)
18.07.2018 18:59 24,6 °C 47 % 1012,6 hPa 0,0 mm 1,3 km/h (1 Bft) W 279 ° 0 min 0,000 mm 1,0 UV-I 109 W/m² 12,5 °C 24,6 °C 3,2 km/h (1 Bft)
18.07.2018 19:00 24,6 °C 47 % 1012,6 hPa 0,0 mm 3,0 km/h (1 Bft) W-NW 286 ° 0 min 0,000 mm 1,0 UV-I 153 W/m² 12,5 °C 24,6 °C 3,2 km/h (1 Bft)
18.07.2018 19:01 24,6 °C 45 % 1012,6 hPa 0,0 mm 3,4 km/h (1 Bft) W-NW 286 ° 0 min 0,102 mm 0,9 UV-I 123 W/m² 11,9 °C 24,6 °C 6,4 km/h (2 Bft)
18.07.2018 19:02 24,6 °C 46 % 1012,6 hPa 0,0 mm 3,8 km/h (1 Bft) NW 306 ° 0 min 0,000 mm 0,9 UV-I 111 W/m² 12,2 °C 24,6 °C 4,8 km/h (1 Bft)
18.07.2018 19:03 24,6 °C 47 % 1012,6 hPa 0,0 mm 3,6 km/h (1 Bft) N 350 ° 0 min 0,000 mm 0,9 UV-I 123 W/m² 12,5 °C 24,6 °C 6,4 km/h (2 Bft)
18.07.2018 19:04 24,6 °C 47 % 1012,6 hPa 0,0 mm 4,6 km/h (1 Bft) NW 313 ° 0 min 0,000 mm 0,9 UV-I 120 W/m² 12,5 °C 24,6 °C 6,4 km/h (2 Bft)
18.07.2018 19:05 24,6 °C 47 % 1012,6 hPa 0,0 mm 5,4 km/h (1 Bft) W-NW 288 ° 0 min 0,000 mm 0,9 UV-I 107 W/m² 12,5 °C 24,6 °C 8,0 km/h (2 Bft)
18.07.2018 19:06 24,6 °C 45 % 1012,6 hPa 0,0 mm 4,5 km/h (1 Bft) NW 308 ° 0 min 0,000 mm 0,8 UV-I 69 W/m² 11,9 °C 24,6 °C 9,7 km/h (2 Bft)
18.07.2018 19:07 24,6 °C 46 % 1012,6 hPa 0,0 mm 5,3 km/h (1 Bft) NW 319 ° 0 min 0,000 mm 0,8 UV-I 58 W/m² 12,2 °C 24,6 °C 8,0 km/h (2 Bft)
18.07.2018 19:08 24,5 °C 46 % 1012,6 hPa 0,0 mm 2,2 km/h (1 Bft) NW 323 ° 0 min 0,000 mm 0,0 UV-I 53 W/m² 12,1 °C 24,5 °C 4,8 km/h (1 Bft)
18.07.2018 19:09 24,5 °C 46 % 1012,6 hPa 0,0 mm 3,1 km/h (1 Bft) NW 306 ° 0 min 0,000 mm 0,0 UV-I 49 W/m² 12,1 °C 24,5 °C 8,0 km/h (2 Bft)
18.07.2018 19:10 24,5 °C 45 % 1012,6 hPa 0,0 mm 4,1 km/h (1 Bft) NW 309 ° 0 min 0,000 mm 0,0 UV-I 49 W/m² 11,8 °C 24,5 °C 11,3 km/h (2 Bft)
18.07.2018 19:11 24,4 °C 46 % 1012,6 hPa 0,0 mm 4,3 km/h (1 Bft) NW 321 ° 0 min 0,000 mm 0,0 UV-I 67 W/m² 12,0 °C 24,4 °C 8,0 km/h (2 Bft)
18.07.2018 19:12 24,4 °C 45 % 1012,7 hPa 0,0 mm 3,2 km/h (1 Bft) N-NW 335 ° 0 min 0,000 mm 0,8 UV-I 95 W/m² 11,7 °C 24,4 °C 8,0 km/h (2 Bft)
18.07.2018 19:13 24,4 °C 45 % 1012,7 hPa 0,0 mm 4,0 km/h (1 Bft) N-NW 342 ° 0 min 0,000 mm 0,8 UV-I 90 W/m² 11,7 °C 24,4 °C 6,4 km/h (2 Bft)
18.07.2018 19:14 24,3 °C 47 % 1012,7 hPa 0,0 mm 1,5 km/h (1 Bft) N-NW 342 ° 0 min 0,000 mm 0,8 UV-I 88 W/m² 12,3 °C 24,3 °C 3,2 km/h (1 Bft)
18.07.2018 19:15 24,3 °C 45 % 1012,7 hPa 0,0 mm 1,9 km/h (1 Bft) NW 322 ° 0 min 0,000 mm 0,8 UV-I 62 W/m² 11,6 °C 24,3 °C 3,2 km/h (1 Bft)
18.07.2018 19:16 24,3 °C 46 % 1012,6 hPa 0,0 mm 0,3 km/h (0 Bft) NW 322 ° 0 min 0,000 mm 0,0 UV-I 49 W/m² 11,9 °C 24,3 °C 1,6 km/h (1 Bft)
18.07.2018 19:17 24,3 °C 46 % 1012,6 hPa 0,0 mm 3,6 km/h (1 Bft) NW 322 ° 0 min 0,000 mm 0,0 UV-I 42 W/m² 11,9 °C 24,3 °C 6,4 km/h (2 Bft)
18.07.2018 19:18 24,3 °C 45 % 1012,6 hPa 0,0 mm 4,0 km/h (1 Bft) NW 325 ° 0 min 0,000 mm 0,0 UV-I 44 W/m² 11,6 °C 24,3 °C 6,4 km/h (2 Bft)
18.07.2018 19:19 24,3 °C 45 % 1012,6 hPa 0,0 mm 4,8 km/h (1 Bft) NW 316 ° 0 min 0,000 mm 0,0 UV-I 44 W/m² 11,6 °C 24,3 °C 8,0 km/h (2 Bft)
18.07.2018 19:20 24,3 °C 45 % 1012,6 hPa 0,0 mm 4,0 km/h (1 Bft) NW 319 ° 0 min 0,000 mm 0,0 UV-I 49 W/m² 11,6 °C 24,3 °C 6,4 km/h (2 Bft)
18.07.2018 19:21 24,3 °C 44 % 1012,6 hPa 0,0 mm 2,0 km/h (1 Bft) NW 319 ° 0 min 0,000 mm 0,0 UV-I 46 W/m² 11,3 °C 24,3 °C 3,2 km/h (1 Bft)
18.07.2018 19:22 24,3 °C 47 % 1012,6 hPa 0,0 mm 2,0 km/h (1 Bft) N 360 ° 0 min 0,000 mm 0,0 UV-I 46 W/m² 12,3 °C 24,3 °C 4,8 km/h (1 Bft)
18.07.2018 19:23 24,3 °C 48 % 1012,6 hPa 0,0 mm 1,6 km/h (1 Bft) N 360 ° 0 min 0,000 mm 0,0 UV-I 107 W/m² 12,6 °C 24,3 °C 3,2 km/h (1 Bft)
18.07.2018 19:24 24,3 °C 47 % 1012,6 hPa 0,0 mm 5,2 km/h (1 Bft) NW 322 ° 0 min 0,000 mm 0,8 UV-I 167 W/m² 12,3 °C 24,3 °C 8,0 km/h (2 Bft)
18.07.2018 19:25 24,3 °C 46 % 1012,7 hPa 0,0 mm 5,3 km/h (1 Bft) NW 317 ° 0 min 0,000 mm 0,7 UV-I 179 W/m² 11,9 °C 24,3 °C 8,0 km/h (2 Bft)
18.07.2018 19:26 24,3 °C 47 % 1012,7 hPa 0,0 mm 5,5 km/h (1 Bft) NW 325 ° 0 min 0,000 mm 0,7 UV-I 178 W/m² 12,3 °C 24,3 °C 6,4 km/h (2 Bft)
18.07.2018 19:27 24,3 °C 46 % 1012,7 hPa 0,0 mm 4,7 km/h (1 Bft) N 349 ° 0 min 0,000 mm 0,7 UV-I 176 W/m² 11,9 °C 24,3 °C 8,0 km/h (2 Bft)
18.07.2018 19:28 24,3 °C 47 % 1012,7 hPa 0,0 mm 3,2 km/h (1 Bft) N 350 ° 0 min 0,000 mm 0,7 UV-I 171 W/m² 12,3 °C 24,3 °C 4,8 km/h (1 Bft)
18.07.2018 19:29 24,3 °C 48 % 1012,7 hPa 0,0 mm 0,9 km/h (0 Bft) N 350 ° 0 min 0,000 mm 0,7 UV-I 169 W/m² 12,6 °C 24,3 °C 3,2 km/h (1 Bft)
18.07.2018 19:30 24,2 °C 47 % 1012,7 hPa 0,0 mm 4,2 km/h (1 Bft) N-NW 341 ° 0 min 0,000 mm 0,7 UV-I 167 W/m² 12,2 °C 24,2 °C 6,4 km/h (2 Bft)
18.07.2018 19:31 24,3 °C 46 % 1012,7 hPa 0,0 mm 2,4 km/h (1 Bft) N-NW 341 ° 0 min 0,000 mm 0,7 UV-I 165 W/m² 11,9 °C 24,3 °C 4,8 km/h (1 Bft)
18.07.2018 19:32 24,3 °C 46 % 1012,7 hPa 0,0 mm 1,8 km/h (1 Bft) N-NW 339 ° 0 min 0,000 mm 0,7 UV-I 162 W/m² 11,9 °C 24,3 °C 4,8 km/h (1 Bft)
18.07.2018 19:33 24,3 °C 47 % 1012,7 hPa 0,0 mm 2,9 km/h (1 Bft) N-NW 342 ° 0 min 0,000 mm 0,7 UV-I 160 W/m² 12,3 °C 24,3 °C 4,8 km/h (1 Bft)
18.07.2018 19:34 24,3 °C 46 % 1012,7 hPa 0,0 mm 2,3 km/h (1 Bft) N 5 ° 0 min 0,000 mm 0,6 UV-I 155 W/m² 11,9 °C 24,3 °C 6,4 km/h (2 Bft)
18.07.2018 19:35 24,3 °C 47 % 1012,7 hPa 0,0 mm 4,4 km/h (1 Bft) N 360 ° 0 min 0,000 mm 0,6 UV-I 151 W/m² 12,3 °C 24,3 °C 6,4 km/h (2 Bft)
18.07.2018 19:36 24,3 °C 47 % 1012,6 hPa 0,0 mm 4,4 km/h (1 Bft) N 355 ° 0 min 0,000 mm 0,6 UV-I 149 W/m² 12,3 °C 24,3 °C 6,4 km/h (2 Bft)
18.07.2018 19:37 24,3 °C 47 % 1012,6 hPa 0,0 mm 4,2 km/h (1 Bft) N-NW 344 ° 0 min 0,000 mm 0,6 UV-I 146 W/m² 12,3 °C 24,3 °C 4,8 km/h (1 Bft)
18.07.2018 19:38 24,3 °C 47 % 1012,6 hPa 0,0 mm 2,4 km/h (1 Bft) NO 38 ° 0 min 0,000 mm 0,6 UV-I 144 W/m² 12,3 °C 24,3 °C 4,8 km/h (1 Bft)
18.07.2018 19:39 24,3 °C 47 % 1012,6 hPa 0,0 mm 2,8 km/h (1 Bft) NO 38 ° 0 min 0,000 mm 0,6 UV-I 142 W/m² 12,3 °C 24,3 °C 4,8 km/h (1 Bft)
18.07.2018 19:40 24,2 °C 47 % 1012,6 hPa 0,0 mm 5,8 km/h (2 Bft) O-NO 60 ° 0 min 0,000 mm 0,6 UV-I 137 W/m² 12,2 °C 24,2 °C 11,3 km/h (2 Bft)
18.07.2018 19:41 24,2 °C 47 % 1012,6 hPa 0,0 mm 5,8 km/h (2 Bft) N-NO 20 ° 0 min 0,000 mm 0,6 UV-I 134 W/m² 12,2 °C 24,2 °C 8,0 km/h (2 Bft)
18.07.2018 19:42 24,2 °C 47 % 1012,6 hPa 0,0 mm 4,2 km/h (1 Bft) N-NO 13 ° 0 min 0,000 mm 0,6 UV-I 132 W/m² 12,2 °C 24,2 °C 8,0 km/h (2 Bft)
18.07.2018 19:43 24,1 °C 47 % 1012,6 hPa 0,0 mm 2,9 km/h (1 Bft) N 10 ° 0 min 0,000 mm 0,5 UV-I 128 W/m² 12,1 °C 24,1 °C 4,8 km/h (1 Bft)
18.07.2018 19:44 24,1 °C 48 % 1012,7 hPa 0,0 mm 4,2 km/h (1 Bft) N 355 ° 0 min 0,000 mm 0,5 UV-I 127 W/m² 12,4 °C 24,1 °C 6,4 km/h (2 Bft)
18.07.2018 19:45 24,1 °C 47 % 1012,7 hPa 0,0 mm 4,3 km/h (1 Bft) N 5 ° 0 min 0,000 mm 0,5 UV-I 123 W/m² 12,1 °C 24,1 °C 4,8 km/h (1 Bft)
18.07.2018 19:46 24,1 °C 48 % 1012,7 hPa 0,0 mm 2,7 km/h (1 Bft) N-NW 348 ° 0 min 0,000 mm 0,5 UV-I 120 W/m² 12,4 °C 24,1 °C 4,8 km/h (1 Bft)
18.07.2018 19:47 24,1 °C 48 % 1012,7 hPa 0,0 mm 1,3 km/h (1 Bft) N-NW 348 ° 0 min 0,000 mm 0,5 UV-I 118 W/m² 12,4 °C 24,1 °C 3,2 km/h (1 Bft)
18.07.2018 19:48 24,0 °C 49 % 1012,6 hPa 0,0 mm 2,9 km/h (1 Bft) N-NW 342 ° 0 min 0,000 mm 0,5 UV-I 114 W/m² 12,6 °C 24,0 °C 4,8 km/h (1 Bft)
18.07.2018 19:49 24,0 °C 49 % 1012,6 hPa 0,0 mm 3,6 km/h (1 Bft) N-NW 337 ° 0 min 0,000 mm 0,5 UV-I 113 W/m² 12,6 °C 24,0 °C 4,8 km/h (1 Bft)
18.07.2018 19:50 23,9 °C 49 % 1012,6 hPa 0,0 mm 3,1 km/h (1 Bft) NO 36 ° 0 min 0,000 mm 0,5 UV-I 109 W/m² 12,5 °C 23,9 °C 4,8 km/h (1 Bft)
18.07.2018 19:51 23,9 °C 49 % 1012,6 hPa 0,0 mm 1,5 km/h (1 Bft) N-NO 29 ° 0 min 0,000 mm 0,5 UV-I 107 W/m² 12,5 °C 23,9 °C 3,2 km/h (1 Bft)
18.07.2018 19:52 23,8 °C 49 % 1012,7 hPa 0,0 mm 0,1 km/h (0 Bft) N-NO 29 ° 0 min 0,000 mm 0,5 UV-I 102 W/m² 12,4 °C 23,8 °C 1,6 km/h (1 Bft)
18.07.2018 19:53 23,8 °C 49 % 1012,7 hPa 0,0 mm 3,4 km/h (1 Bft) N-NO 28 ° 0 min 0,000 mm 0,0 UV-I 100 W/m² 12,4 °C 23,8 °C 6,4 km/h (2 Bft)
18.07.2018 19:54 23,9 °C 50 % 1012,6 hPa 0,0 mm 0,6 km/h (0 Bft) N-NO 28 ° 0 min 0,000 mm 0,0 UV-I 98 W/m² 12,8 °C 23,9 °C 3,2 km/h (1 Bft)
18.07.2018 19:55 23,8 °C 49 % 1012,6 hPa 0,0 mm 1,1 km/h (1 Bft) N-NO 28 ° 0 min 0,000 mm 0,0 UV-I 97 W/m² 12,4 °C 23,8 °C 3,2 km/h (1 Bft)
18.07.2018 19:56 23,8 °C 50 % 1012,6 hPa 0,0 mm 0,4 km/h (0 Bft) N-NO 28 ° 0 min 0,000 mm 0,0 UV-I 95 W/m² 12,7 °C 23,8 °C 1,6 km/h (1 Bft)
18.07.2018 19:57 23,8 °C 50 % 1012,7 hPa 0,0 mm 4,4 km/h (1 Bft) NO 46 ° 0 min 0,000 mm 0,0 UV-I 93 W/m² 12,7 °C 23,8 °C 6,4 km/h (2 Bft)
18.07.2018 19:58 23,8 °C 50 % 1012,6 hPa 0,0 mm 2,2 km/h (1 Bft) NO 46 ° 0 min 0,000 mm 0,0 UV-I 88 W/m² 12,7 °C 23,8 °C 3,2 km/h (1 Bft)
18.07.2018 19:59 23,7 °C 50 % 1012,7 hPa 0,0 mm 3,6 km/h (1 Bft) NO 46 ° 0 min 0,000 mm 0,0 UV-I 86 W/m² 12,6 °C 23,7 °C 6,4 km/h (2 Bft)
18.07.2018 20:00 23,7 °C 50 % 1012,7 hPa 0,0 mm 4,5 km/h (1 Bft) N 11 ° 0 min 0,000 mm 0,0 UV-I 84 W/m² 12,6 °C 23,7 °C 8,0 km/h (2 Bft)
18.07.2018 20:01 23,7 °C 51 % 1012,7 hPa 0,0 mm 4,2 km/h (1 Bft) NO 34 ° 0 min 0,102 mm 0,0 UV-I 83 W/m² 13,0 °C 23,7 °C 8,0 km/h (2 Bft)
18.07.2018 20:02 23,7 °C 51 % 1012,7 hPa 0,0 mm 1,5 km/h (1 Bft) NO 35 ° 0 min 0,000 mm 0,0 UV-I 81 W/m² 13,0 °C 23,7 °C 3,2 km/h (1 Bft)
18.07.2018 20:03 23,6 °C 52 % 1012,7 hPa 0,0 mm 5,4 km/h (1 Bft) NO 35 ° 0 min 0,000 mm 0,0 UV-I 77 W/m² 13,2 °C 23,6 °C 6,4 km/h (2 Bft)
18.07.2018 20:04 23,6 °C 52 % 1012,6 hPa 0,0 mm 3,3 km/h (1 Bft) NO 35 ° 0 min 0,000 mm 0,0 UV-I 74 W/m² 13,2 °C 23,6 °C 4,8 km/h (1 Bft)
18.07.2018 20:05 23,5 °C 50 % 1012,7 hPa 0,0 mm 0,7 km/h (0 Bft) NO 35 ° 0 min 0,000 mm 0,0 UV-I 72 W/m² 12,5 °C 23,5 °C 3,2 km/h (1 Bft)
18.07.2018 20:06 23,4 °C 55 % 1012,7 hPa 0,0 mm 1,5 km/h (1 Bft) NO 35 ° 0 min 0,000 mm 0,0 UV-I 70 W/m² 13,8 °C 23,4 °C 3,2 km/h (1 Bft)
18.07.2018 20:07 23,4 °C 52 % 1012,7 hPa 0,0 mm 1,5 km/h (1 Bft) NO 35 ° 0 min 0,000 mm 0,0 UV-I 69 W/m² 13,0 °C 23,4 °C 3,2 km/h (1 Bft)
18.07.2018 20:08 23,3 °C 52 % 1012,6 hPa 0,0 mm 2,3 km/h (1 Bft) NO 35 ° 0 min 0,000 mm 0,0 UV-I 67 W/m² 12,9 °C 23,3 °C 3,2 km/h (1 Bft)
18.07.2018 20:09 23,4 °C 52 % 1012,7 hPa 0,0 mm 0,9 km/h (0 Bft) NO 35 ° 0 min 0,000 mm 0,0 UV-I 63 W/m² 13,0 °C 23,4 °C 3,2 km/h (1 Bft)
18.07.2018 20:10 23,3 °C 53 % 1012,7 hPa 0,0 mm 2,5 km/h (1 Bft) NO 41 ° 0 min 0,000 mm 0,0 UV-I 62 W/m² 13,2 °C 23,3 °C 6,4 km/h (2 Bft)
18.07.2018 20:11 23,3 °C 53 % 1012,7 hPa 0,0 mm 1,1 km/h (1 Bft) NO 41 ° 0 min 0,000 mm 0,0 UV-I 60 W/m² 13,2 °C 23,3 °C 3,2 km/h (1 Bft)
18.07.2018 20:12 23,3 °C 52 % 1012,7 hPa 0,0 mm 0,0 km/h (0 Bft) NO 41 ° 0 min 0,000 mm 0,0 UV-I 58 W/m² 12,9 °C 23,3 °C 0,0 km/h (0 Bft)
18.07.2018 20:13 23,3 °C 52 % 1012,7 hPa 0,0 mm 0,1 km/h (0 Bft) NO 41 ° 0 min 0,000 mm 0,0 UV-I 56 W/m² 12,9 °C 23,3 °C 1,6 km/h (1 Bft)
18.07.2018 20:14 23,3 °C 51 % 1012,7 hPa 0,0 mm 0,8 km/h (0 Bft) NO 41 ° 0 min 0,000 mm 0,0 UV-I 54 W/m² 12,6 °C 23,3 °C 3,2 km/h (1 Bft)
18.07.2018 20:15 23,3 °C 52 % 1012,7 hPa 0,0 mm 2,0 km/h (1 Bft) NO 41 ° 0 min 0,000 mm 0,0 UV-I 49 W/m² 12,9 °C 23,3 °C 3,2 km/h (1 Bft)
18.07.2018 20:16 23,2 °C 52 % 1012,8 hPa 0,0 mm 0,8 km/h (0 Bft) NO 41 ° 0 min 0,000 mm 0,0 UV-I 49 W/m² 12,8 °C 23,2 °C 1,6 km/h (1 Bft)
18.07.2018 20:17 23,2 °C 53 % 1012,7 hPa 0,0 mm 0,0 km/h (0 Bft) NO 41 ° 0 min 0,000 mm 0,0 UV-I 47 W/m² 13,1 °C 23,2 °C 0,0 km/h (0 Bft)
18.07.2018 20:18 23,1 °C 54 % 1012,7 hPa 0,0 mm 0,0 km/h (0 Bft) NO 41 ° 0 min 0,000 mm 0,0 UV-I 47 W/m² 13,3 °C 23,1 °C 0,0 km/h (0 Bft)
18.07.2018 20:19 22,9 °C 54 % 1012,8 hPa 0,0 mm 0,1 km/h (0 Bft) NO 41 ° 0 min 0,000 mm 0,0 UV-I 46 W/m² 13,1 °C 22,9 °C 1,6 km/h (1 Bft)
18.07.2018 20:20 22,8 °C 55 % 1012,8 hPa 0,0 mm 1,5 km/h (1 Bft) NO 41 ° 0 min 0,000 mm 0,0 UV-I 44 W/m² 13,3 °C 22,8 °C 3,2 km/h (1 Bft)
18.07.2018 20:21 22,7 °C 57 % 1012,8 hPa 0,0 mm 0,0 km/h (0 Bft) NO 41 ° 0 min 0,000 mm 0,0 UV-I 40 W/m² 13,7 °C 22,7 °C 0,0 km/h (0 Bft)
18.07.2018 20:22 22,6 °C 57 % 1012,7 hPa 0,0 mm 0,0 km/h (0 Bft) NO 41 ° 0 min 0,000 mm 0,0 UV-I 40 W/m² 13,6 °C 22,6 °C 0,0 km/h (0 Bft)
18.07.2018 20:23 22,6 °C 56 % 1012,7 hPa 0,0 mm 0,0 km/h (0 Bft) NO 41 ° 0 min 0,000 mm 0,0 UV-I 39 W/m² 13,4 °C 22,6 °C 0,0 km/h (0 Bft)
18.07.2018 20:24 22,3 °C 59 % 1012,8 hPa 0,0 mm 0,0 km/h (0 Bft) NO 41 ° 0 min 0,000 mm 0,0 UV-I 39 W/m² 13,9 °C 22,3 °C 0,0 km/h (0 Bft)
18.07.2018 20:25 22,2 °C 60 % 1012,8 hPa 0,0 mm 0,0 km/h (0 Bft) NO 41 ° 0 min 0,000 mm 0,0 UV-I 37 W/m² 14,1 °C 22,2 °C 0,0 km/h (0 Bft)
18.07.2018 20:26 22,1 °C 61 % 1012,8 hPa 0,0 mm 0,0 km/h (0 Bft) NO 41 ° 0 min 0,000 mm 0,0 UV-I 35 W/m² 14,2 °C 22,1 °C 0,0 km/h (0 Bft)
18.07.2018 20:27 22,0 °C 58 % 1012,8 hPa 0,0 mm 0,0 km/h (0 Bft) NO 41 ° 0 min 0,000 mm 0,0 UV-I 33 W/m² 13,3 °C 22,0 °C 0,0 km/h (0 Bft)
18.07.2018 20:28 22,1 °C 56 % 1012,7 hPa 0,0 mm 0,0 km/h (0 Bft) NO 41 ° 0 min 0,000 mm 0,0 UV-I 32 W/m² 12,9 °C 22,1 °C 0,0 km/h (0 Bft)
18.07.2018 20:29 22,1 °C 58 % 1012,7 hPa 0,0 mm 0,0 km/h (0 Bft) NO 41 ° 0 min 0,000 mm 0,0 UV-I 28 W/m² 13,4 °C 22,1 °C 0,0 km/h (0 Bft)
18.07.2018 20:30 22,1 °C 59 % 1012,7 hPa 0,0 mm 0,0 km/h (0 Bft) NO 41 ° 0 min 0,000 mm 0,0 UV-I 26 W/m² 13,7 °C 22,1 °C 0,0 km/h (0 Bft)
18.07.2018 20:31 21,9 °C 60 % 1012,7 hPa 0,0 mm 0,0 km/h (0 Bft) NO 41 ° 0 min 0,000 mm 0,0 UV-I 26 W/m² 13,8 °C 21,9 °C 0,0 km/h (0 Bft)
18.07.2018 20:32 21,9 °C 60 % 1012,7 hPa 0,0 mm 0,0 km/h (0 Bft) NO 41 ° 0 min 0,000 mm 0,0 UV-I 26 W/m² 13,8 °C 21,9 °C 0,0 km/h (0 Bft)
18.07.2018 20:33 21,7 °C 62 % 1012,8 hPa 0,0 mm 0,0 km/h (0 Bft) NO 41 ° 0 min 0,000 mm 0,0 UV-I 25 W/m² 14,1 °C 21,7 °C 0,0 km/h (0 Bft)
18.07.2018 20:34 21,5 °C 64 % 1012,7 hPa 0,0 mm 0,0 km/h (0 Bft) NO 41 ° 0 min 0,000 mm 0,0 UV-I 25 W/m² 14,4 °C 21,5 °C 0,0 km/h (0 Bft)
18.07.2018 20:35 21,2 °C 63 % 1012,8 hPa 0,0 mm 0,0 km/h (0 Bft) NO 41 ° 0 min 0,000 mm 0,0 UV-I 23 W/m² 13,9 °C 21,2 °C 0,0 km/h (0 Bft)
18.07.2018 20:36 21,2 °C 64 % 1012,8 hPa 0,0 mm 0,0 km/h (0 Bft) NO 41 ° 0 min 0,000 mm 0,0 UV-I 23 W/m² 14,1 °C 21,2 °C 0,0 km/h (0 Bft)
18.07.2018 20:37 20,9 °C 65 % 1012,7 hPa 0,0 mm 0,0 km/h (0 Bft) NO 41 ° 0 min 0,000 mm 0,0 UV-I 21 W/m² 14,1 °C 20,9 °C 0,0 km/h (0 Bft)
18.07.2018 20:38 20,8 °C 63 % 1012,7 hPa 0,0 mm 0,0 km/h (0 Bft) NO 41 ° 0 min 0,000 mm 0,0 UV-I 21 W/m² 13,5 °C 20,8 °C 0,0 km/h (0 Bft)
18.07.2018 20:39 20,7 °C 65 % 1012,7 hPa 0,0 mm 0,0 km/h (0 Bft) NO 41 ° 0 min 0,000 mm 0,0 UV-I 19 W/m² 13,9 °C 20,7 °C 0,0 km/h (0 Bft)
18.07.2018 20:40 20,6 °C 64 % 1012,7 hPa 0,0 mm 0,0 km/h (0 Bft) NO 41 ° 0 min 0,000 mm 0,0 UV-I 18 W/m² 13,5 °C 20,6 °C 0,0 km/h (0 Bft)
18.07.2018 20:41 20,6 °C 64 % 1012,7 hPa 0,0 mm 0,0 km/h (0 Bft) NO 41 ° 0 min 0,000 mm 0,0 UV-I 18 W/m² 13,5 °C 20,6 °C 0,0 km/h (0 Bft)
18.07.2018 20:42 20,8 °C 63 % 1012,8 hPa 0,0 mm 0,0 km/h (0 Bft) NO 41 ° 0 min 0,000 mm 0,0 UV-I 16 W/m² 13,5 °C 20,8 °C 0,0 km/h (0 Bft)
18.07.2018 20:43 20,7 °C 66 % 1012,7 hPa 0,0 mm 0,0 km/h (0 Bft) NO 41 ° 0 min 0,000 mm 0,0 UV-I 16 W/m² 14,1 °C 20,7 °C 0,0 km/h (0 Bft)
18.07.2018 20:44 20,6 °C 66 % 1012,8 hPa 0,0 mm 0,0 km/h (0 Bft) NO 41 ° 0 min 0,000 mm 0,0 UV-I 16 W/m² 14,0 °C 20,6 °C 0,0 km/h (0 Bft)
18.07.2018 20:45 20,3 °C 67 % 1012,7 hPa 0,0 mm 0,0 km/h (0 Bft) NO 41 ° 0 min 0,000 mm 0,0 UV-I 14 W/m² 14,0 °C 20,3 °C 0,0 km/h (0 Bft)
18.07.2018 20:46 20,2 °C 67 % 1012,8 hPa 0,0 mm 0,0 km/h (0 Bft) NO 41 ° 0 min 0,000 mm 0,0 UV-I 14 W/m² 13,9 °C 20,2 °C 0,0 km/h (0 Bft)
18.07.2018 20:47 19,9 °C 68 % 1012,7 hPa 0,0 mm 0,0 km/h (0 Bft) NO 41 ° 0 min 0,000 mm 0,0 UV-I 12 W/m² 13,8 °C 19,9 °C 0,0 km/h (0 Bft)
18.07.2018 20:48 19,8 °C 68 % 1012,7 hPa 0,0 mm 0,0 km/h (0 Bft) NO 41 ° 0 min 0,000 mm 0,0 UV-I 12 W/m² 13,7 °C 19,8 °C 0,0 km/h (0 Bft)
18.07.2018 20:49 19,7 °C 70 % 1012,8 hPa 0,0 mm 0,0 km/h (0 Bft) NO 41 ° 0 min 0,000 mm 0,0 UV-I 12 W/m² 14,1 °C 19,7 °C 0,0 km/h (0 Bft)
18.07.2018 20:50 19,6 °C 69 % 1012,8 hPa 0,0 mm 0,0 km/h (0 Bft) NO 41 ° 0 min 0,000 mm 0,0 UV-I 11 W/m² 13,8 °C 19,6 °C 0,0 km/h (0 Bft)
18.07.2018 20:51 19,7 °C 68 % 1012,8 hPa 0,0 mm 0,0 km/h (0 Bft) NO 41 ° 0 min 0,000 mm 0,0 UV-I 11 W/m² 13,6 °C 19,7 °C 0,0 km/h (0 Bft)
18.07.2018 20:52 19,7 °C 68 % 1012,8 hPa 0,0 mm 0,0 km/h (0 Bft) NO 41 ° 0 min 0,000 mm 0,0 UV-I 11 W/m² 13,6 °C 19,7 °C 0,0 km/h (0 Bft)
18.07.2018 20:53 19,8 °C 66 % 1012,8 hPa 0,0 mm 0,0 km/h (0 Bft) NO 41 ° 0 min 0,000 mm 0,0 UV-I 9 W/m² 13,3 °C 19,8 °C 0,0 km/h (0 Bft)
18.07.2018 20:54 19,8 °C 67 % 1012,8 hPa 0,0 mm 0,0 km/h (0 Bft) NO 41 ° 0 min 0,000 mm 0,0 UV-I 9 W/m² 13,5 °C 19,8 °C 0,0 km/h (0 Bft)
18.07.2018 20:55 19,9 °C 65 % 1012,8 hPa 0,0 mm 0,0 km/h (0 Bft) NO 41 ° 0 min 0,000 mm 0,0 UV-I 9 W/m² 13,1 °C 19,9 °C 0,0 km/h (0 Bft)
18.07.2018 20:56 19,9 °C 65 % 1012,8 hPa 0,0 mm 0,1 km/h (0 Bft) NO 41 ° 0 min 0,000 mm 0,0 UV-I 7 W/m² 13,1 °C 19,9 °C 1,6 km/h (1 Bft)
18.07.2018 20:57 20,0 °C 65 % 1012,8 hPa 0,0 mm 1,8 km/h (1 Bft) NO 41 ° 0 min 0,000 mm 0,0 UV-I 7 W/m² 13,2 °C 20,0 °C 3,2 km/h (1 Bft)
18.07.2018 20:58 20,0 °C 64 % 1012,8 hPa 0,0 mm 1,3 km/h (1 Bft) NO 42 ° 0 min 0,000 mm 0,0 UV-I 7 W/m² 13,0 °C 20,0 °C 3,2 km/h (1 Bft)
18.07.2018 20:59 20,1 °C 65 % 1012,8 hPa 0,0 mm 1,5 km/h (1 Bft) NO 42 ° 0 min 0,000 mm 0,0 UV-I 7 W/m² 13,3 °C 20,1 °C 3,2 km/h (1 Bft)
18.07.2018 21:00 20,1 °C 63 % 1012,8 hPa 0,0 mm 2,9 km/h (1 Bft) NO 43 ° 0 min 0,000 mm 0,0 UV-I 5 W/m² 12,8 °C 20,1 °C 4,8 km/h (1 Bft)
18.07.2018 21:01 20,2 °C 63 % 1012,9 hPa 0,0 mm 2,1 km/h (1 Bft) NO 44 ° 0 min 0,025 mm 0,0 UV-I 5 W/m² 12,9 °C 20,2 °C 3,2 km/h (1 Bft)
18.07.2018 21:02 20,3 °C 62 % 1012,9 hPa 0,0 mm 0,9 km/h (0 Bft) NO 44 ° 0 min 0,000 mm 0,0 UV-I 5 W/m² 12,8 °C 20,3 °C 3,2 km/h (1 Bft)
18.07.2018 21:03 20,3 °C 63 % 1012,9 hPa 0,0 mm 1,8 km/h (1 Bft) NO 44 ° 0 min 0,000 mm 0,0 UV-I 5 W/m² 13,0 °C 20,3 °C 3,2 km/h (1 Bft)
18.07.2018 21:04 20,3 °C 62 % 1012,8 hPa 0,0 mm 1,9 km/h (1 Bft) NO 44 ° 0 min 0,000 mm 0,0 UV-I 5 W/m² 12,8 °C 20,3 °C 3,2 km/h (1 Bft)
18.07.2018 21:05 20,2 °C 64 % 1012,9 hPa 0,0 mm 0,5 km/h (0 Bft) NO 44 ° 0 min 0,000 mm 0,0 UV-I 0 W/m² 13,2 °C 20,2 °C 1,6 km/h (1 Bft)
18.07.2018 21:06 20,1 °C 63 % 1012,9 hPa 0,0 mm 1,9 km/h (1 Bft) NO 44 ° 0 min 0,000 mm 0,0 UV-I 0 W/m² 12,8 °C 20,1 °C 3,2 km/h (1 Bft)
18.07.2018 21:07 20,1 °C 63 % 1012,9 hPa 0,0 mm 2,3 km/h (1 Bft) NO 44 ° 0 min 0,000 mm 0,0 UV-I 0 W/m² 12,8 °C 20,1 °C 4,8 km/h (1 Bft)
18.07.2018 21:08 20,1 °C 63 % 1012,9 hPa 0,0 mm 3,1 km/h (1 Bft) NO 44 ° 0 min 0,000 mm 0,0 UV-I 0 W/m² 12,8 °C 20,1 °C 4,8 km/h (1 Bft)
18.07.2018 21:09 20,1 °C 63 % 1012,9 hPa 0,0 mm 2,8 km/h (1 Bft) NO 44 ° 0 min 0,000 mm 0,0 UV-I 0 W/m² 12,8 °C 20,1 °C 4,8 km/h (1 Bft)
18.07.2018 21:10 20,0 °C 63 % 1013,0 hPa 0,0 mm 1,3 km/h (1 Bft) NO 44 ° 0 min 0,000 mm 0,0 UV-I 0 W/m² 12,7 °C 20,0 °C 3,2 km/h (1 Bft)
18.07.2018 21:11 20,1 °C 62 % 1013,0 hPa 0,0 mm 2,3 km/h (1 Bft) NO 44 ° 0 min 0,000 mm 0,0 UV-I 0 W/m² 12,6 °C 20,1 °C 3,2 km/h (1 Bft)
18.07.2018 21:12 20,1 °C 62 % 1013,0 hPa 0,0 mm 1,0 km/h (0 Bft) NO 44 ° 0 min 0,000 mm 0,0 UV-I 0 W/m² 12,6 °C 20,1 °C 3,2 km/h (1 Bft)
18.07.2018 21:13 20,1 °C 63 % 1013,0 hPa 0,0 mm 0,8 km/h (0 Bft) NO 44 ° 0 min 0,000 mm 0,0 UV-I 0 W/m² 12,8 °C 20,1 °C 1,6 km/h (1 Bft)
18.07.2018 21:14 20,1 °C 63 % 1013,0 hPa 0,0 mm 3,3 km/h (1 Bft) NO 44 ° 0 min 0,000 mm 0,0 UV-I 0 W/m² 12,8 °C 20,1 °C 4,8 km/h (1 Bft)
18.07.2018 21:15 20,1 °C 62 % 1013,0 hPa 0,0 mm 3,9 km/h (1 Bft) SO 140 ° 0 min 0,000 mm 0,0 UV-I 0 W/m² 12,6 °C 20,1 °C 6,4 km/h (2 Bft)
18.07.2018 21:16 20,1 °C 62 % 1013,0 hPa 0,0 mm 3,0 km/h (1 Bft) SO 140 ° 0 min 0,000 mm 0,0 UV-I 0 W/m² 12,6 °C 20,1 °C 4,8 km/h (1 Bft)
18.07.2018 21:17 20,1 °C 63 % 1013,0 hPa 0,0 mm 2,9 km/h (1 Bft) SO 140 ° 0 min 0,000 mm 0,0 UV-I 0 W/m² 12,8 °C 20,1 °C 4,8 km/h (1 Bft)
18.07.2018 21:18 20,1 °C 62 % 1013,0 hPa 0,0 mm 0,3 km/h (0 Bft) SO 140 ° 0 min 0,000 mm 0,0 UV-I 0 W/m² 12,6 °C 20,1 °C 1,6 km/h (1 Bft)
18.07.2018 21:19 20,0 °C 63 % 1013,0 hPa 0,0 mm 1,9 km/h (1 Bft) SO 140 ° 0 min 0,000 mm 0,0 UV-I 0 W/m² 12,7 °C 20,0 °C 4,8 km/h (1 Bft)
18.07.2018 21:20 19,9 °C 62 % 1013,0 hPa 0,0 mm 1,6 km/h (1 Bft) SO 140 ° 0 min 0,000 mm 0,0 UV-I 0 W/m² 12,4 °C 19,9 °C 3,2 km/h (1 Bft)
18.07.2018 21:21 19,9 °C 62 % 1013,0 hPa 0,0 mm 0,5 km/h (0 Bft) SO 140 ° 0 min 0,000 mm 0,0 UV-I 0 W/m² 12,4 °C 19,9 °C 3,2 km/h (1 Bft)
18.07.2018 21:22 19,7 °C 66 % 1013,1 hPa 0,0 mm 0,0 km/h (0 Bft) SO 140 ° 0 min 0,000 mm 0,0 UV-I 0 W/m² 13,2 °C 19,7 °C 0,0 km/h (0 Bft)
18.07.2018 21:23 19,5 °C 67 % 1013,1 hPa 0,0 mm 0,0 km/h (0 Bft) SO 140 ° 0 min 0,000 mm 0,0 UV-I 0 W/m² 13,2 °C 19,5 °C 0,0 km/h (0 Bft)
18.07.2018 21:24 19,2 °C 67 % 1013,1 hPa 0,0 mm 0,0 km/h (0 Bft) SO 140 ° 0 min 0,000 mm 0,0 UV-I 0 W/m² 12,9 °C 19,2 °C 0,0 km/h (0 Bft)
18.07.2018 21:25 19,1 °C 68 % 1013,1 hPa 0,0 mm 0,0 km/h (0 Bft) SO 140 ° 0 min 0,000 mm 0,0 UV-I 0 W/m² 13,1 °C 19,1 °C 0,0 km/h (0 Bft)
18.07.2018 21:26 18,9 °C 68 % 1013,1 hPa 0,0 mm 0,0 km/h (0 Bft) SO 140 ° 0 min 0,000 mm 0,0 UV-I 0 W/m² 12,9 °C 18,9 °C 0,0 km/h (0 Bft)
18.07.2018 21:27 18,8 °C 68 % 1013,1 hPa 0,0 mm 0,0 km/h (0 Bft) SO 140 ° 0 min 0,000 mm 0,0 UV-I 0 W/m² 12,8 °C 18,8 °C 0,0 km/h (0 Bft)
18.07.2018 21:28 18,8 °C 67 % 1013,1 hPa 0,0 mm 0,1 km/h (0 Bft) SO 140 ° 0 min 0,000 mm 0,0 UV-I 0 W/m² 12,5 °C 18,8 °C 1,6 km/h (1 Bft)
18.07.2018 21:29 18,8 °C 68 % 1013,1 hPa 0,0 mm 0,0 km/h (0 Bft) SO 140 ° 0 min 0,000 mm 0,0 UV-I 0 W/m² 12,8 °C 18,8 °C 0,0 km/h (0 Bft)
18.07.2018 21:30 18,8 °C 67 % 1013,1 hPa 0,0 mm 0,0 km/h (0 Bft) SO 140 ° 0 min 0,000 mm 0,0 UV-I 0 W/m² 12,5 °C 18,8 °C 0,0 km/h (0 Bft)
18.07.2018 21:31 18,8 °C 68 % 1013,1 hPa 0,0 mm 0,0 km/h (0 Bft) SO 140 ° 0 min 0,000 mm 0,0 UV-I 0 W/m² 12,8 °C 18,8 °C 0,0 km/h (0 Bft)
18.07.2018 21:32 18,7 °C 69 % 1013,1 hPa 0,0 mm 0,0 km/h (0 Bft) SO 140 ° 0 min 0,000 mm 0,0 UV-I 0 W/m² 12,9 °C 18,7 °C 0,0 km/h (0 Bft)
18.07.2018 21:33 18,6 °C 69 % 1013,1 hPa 0,0 mm 0,0 km/h (0 Bft) SO 140 ° 0 min 0,000 mm 0,0 UV-I 0 W/m² 12,8 °C 18,6 °C 0,0 km/h (0 Bft)
18.07.2018 21:34 18,5 °C 70 % 1013,2 hPa 0,0 mm 0,0 km/h (0 Bft) SO 140 ° 0 min 0,000 mm 0,0 UV-I 0 W/m² 12,9 °C 18,5 °C 0,0 km/h (0 Bft)
18.07.2018 21:35 18,4 °C 70 % 1013,1 hPa 0,0 mm 0,0 km/h (0 Bft) SO 140 ° 0 min 0,000 mm 0,0 UV-I 0 W/m² 12,8 °C 18,4 °C 0,0 km/h (0 Bft)
18.07.2018 21:36 18,3 °C 70 % 1013,2 hPa 0,0 mm 0,0 km/h (0 Bft) SO 140 ° 0 min 0,000 mm 0,0 UV-I 0 W/m² 12,7 °C 18,3 °C 0,0 km/h (0 Bft)
18.07.2018 21:37 18,3 °C 70 % 1013,2 hPa 0,0 mm 0,0 km/h (0 Bft) SO 140 ° 0 min 0,000 mm 0,0 UV-I 0 W/m² 12,7 °C 18,3 °C 0,0 km/h (0 Bft)
18.07.2018 21:38 18,3 °C 70 % 1013,2 hPa 0,0 mm 0,0 km/h (0 Bft) SO 140 ° 0 min 0,000 mm 0,0 UV-I 0 W/m² 12,7 °C 18,3 °C 0,0 km/h (0 Bft)
18.07.2018 21:39 18,3 °C 70 % 1013,2 hPa 0,0 mm 0,0 km/h (0 Bft) SO 140 ° 0 min 0,000 mm 0,0 UV-I 0 W/m² 12,7 °C 18,3 °C 0,0 km/h (0 Bft)
18.07.2018 21:40 18,4 °C 69 % 1013,2 hPa 0,0 mm 0,0 km/h (0 Bft) SO 140 ° 0 min 0,000 mm 0,0 UV-I 0 W/m² 12,6 °C 18,4 °C 0,0 km/h (0 Bft)
18.07.2018 21:41 18,3 °C 70 % 1013,2 hPa 0,0 mm 0,0 km/h (0 Bft) SO 140 ° 0 min 0,000 mm 0,0 UV-I 0 W/m² 12,7 °C 18,3 °C 0,0 km/h (0 Bft)
18.07.2018 21:42 18,2 °C 71 % 1013,2 hPa 0,0 mm 0,0 km/h (0 Bft) SO 140 ° 0 min 0,000 mm 0,0 UV-I 0 W/m² 12,9 °C 18,2 °C 0,0 km/h (0 Bft)
18.07.2018 21:43 18,0 °C 71 % 1013,2 hPa 0,0 mm 0,0 km/h (0 Bft) SO 140 ° 0 min 0,000 mm 0,0 UV-I 0 W/m² 12,7 °C 18,0 °C 0,0 km/h (0 Bft)
18.07.2018 21:44 17,9 °C 71 % 1013,2 hPa 0,0 mm 0,0 km/h (0 Bft) SO 140 ° 0 min 0,000 mm 0,0 UV-I 0 W/m² 12,6 °C 17,9 °C 0,0 km/h (0 Bft)
18.07.2018 21:45 17,9 °C 72 % 1013,2 hPa 0,0 mm 0,0 km/h (0 Bft) SO 140 ° 0 min 0,000 mm 0,0 UV-I 0 W/m² 12,8 °C 17,9 °C 0,0 km/h (0 Bft)
18.07.2018 21:46 17,8 °C 72 % 1013,2 hPa 0,0 mm 0,0 km/h (0 Bft) SO 140 ° 0 min 0,000 mm 0,0 UV-I 0 W/m² 12,7 °C 17,8 °C 0,0 km/h (0 Bft)
18.07.2018 21:47 17,8 °C 72 % 1013,2 hPa 0,0 mm 0,0 km/h (0 Bft) SO 140 ° 0 min 0,000 mm 0,0 UV-I 0 W/m² 12,7 °C 17,8 °C 0,0 km/h (0 Bft)
18.07.2018 21:48 17,8 °C 72 % 1013,2 hPa 0,0 mm 0,0 km/h (0 Bft) SO 140 ° 0 min 0,000 mm 0,0 UV-I 0 W/m² 12,7 °C 17,8 °C 0,0 km/h (0 Bft)
18.07.2018 21:49 17,8 °C 72 % 1013,2 hPa 0,0 mm 0,9 km/h (0 Bft) SO 140 ° 0 min 0,000 mm 0,0 UV-I 0 W/m² 12,7 °C 17,8 °C 3,2 km/h (1 Bft)
18.07.2018 21:50 17,8 °C 73 % 1013,3 hPa 0,0 mm 1,0 km/h (0 Bft) SO 140 ° 0 min 0,000 mm 0,0 UV-I 0 W/m² 12,9 °C 17,8 °C 3,2 km/h (1 Bft)
18.07.2018 21:51 17,7 °C 73 % 1013,3 hPa 0,0 mm 2,0 km/h (1 Bft) SO 140 ° 0 min 0,000 mm 0,0 UV-I 0 W/m² 12,8 °C 17,7 °C 4,8 km/h (1 Bft)
18.07.2018 21:52 17,6 °C 73 % 1013,3 hPa 0,0 mm 2,4 km/h (1 Bft) SO 140 ° 0 min 0,000 mm 0,0 UV-I 0 W/m² 12,7 °C 17,6 °C 4,8 km/h (1 Bft)
18.07.2018 21:53 17,6 °C 73 % 1013,3 hPa 0,0 mm 3,2 km/h (1 Bft) SO 140 ° 0 min 0,000 mm 0,0 UV-I 0 W/m² 12,7 °C 17,6 °C 4,8 km/h (1 Bft)
18.07.2018 21:54 17,6 °C 73 % 1013,3 hPa 0,0 mm 0,6 km/h (0 Bft) SO 140 ° 0 min 0,000 mm 0,0 UV-I 0 W/m² 12,7 °C 17,6 °C 3,2 km/h (1 Bft)
18.07.2018 21:55 17,4 °C 74 % 1013,3 hPa 0,0 mm 2,0 km/h (1 Bft) SO 140 ° 0 min 0,000 mm 0,0 UV-I 0 W/m² 12,7 °C 17,4 °C 3,2 km/h (1 Bft)
18.07.2018 21:56 17,3 °C 74 % 1013,3 hPa 0,0 mm 0,0 km/h (0 Bft) SO 140 ° 0 min 0,000 mm 0,0 UV-I 0 W/m² 12,6 °C 17,3 °C 0,0 km/h (0 Bft)
18.07.2018 21:57 17,2 °C 74 % 1013,4 hPa 0,0 mm 0,8 km/h (0 Bft) SO 140 ° 0 min 0,000 mm 0,0 UV-I 0 W/m² 12,5 °C 17,2 °C 3,2 km/h (1 Bft)
18.07.2018 21:58 17,2 °C 74 % 1013,4 hPa 0,0 mm 3,1 km/h (1 Bft) SO 140 ° 0 min 0,000 mm 0,0 UV-I 0 W/m² 12,5 °C 17,2 °C 4,8 km/h (1 Bft)
18.07.2018 21:59 17,2 °C 74 % 1013,4 hPa 0,0 mm 3,2 km/h (1 Bft) SO 141 ° 0 min 0,000 mm 0,0 UV-I 0 W/m² 12,5 °C 17,2 °C 4,8 km/h (1 Bft)
18.07.2018 22:00 17,2 °C 74 % 1013,4 hPa 0,0 mm 1,4 km/h (1 Bft) SO 141 ° 0 min 0,000 mm 0,0 UV-I 0 W/m² 12,5 °C 17,2 °C 3,2 km/h (1 Bft)
18.07.2018 22:01 17,3 °C 74 % 1013,4 hPa 0,0 mm 1,5 km/h (1 Bft) SO 141 ° 0 min 0,000 mm 0,0 UV-I 0 W/m² 12,6 °C 17,3 °C 3,2 km/h (1 Bft)
18.07.2018 22:02 17,3 °C 74 % 1013,4 hPa 0,0 mm 1,5 km/h (1 Bft) SO 141 ° 0 min 0,000 mm 0,0 UV-I 0 W/m² 12,6 °C 17,3 °C 4,8 km/h (1 Bft)
18.07.2018 22:03 17,3 °C 74 % 1013,4 hPa 0,0 mm 3,1 km/h (1 Bft) SO 141 ° 0 min 0,000 mm 0,0 UV-I 0 W/m² 12,6 °C 17,3 °C 4,8 km/h (1 Bft)
18.07.2018 22:04 17,3 °C 74 % 1013,4 hPa 0,0 mm 2,6 km/h (1 Bft) SO 141 ° 0 min 0,000 mm 0,0 UV-I 0 W/m² 12,6 °C 17,3 °C 3,2 km/h (1 Bft)
18.07.2018 22:05 17,2 °C 74 % 1013,4 hPa 0,0 mm 1,8 km/h (1 Bft) SO 141 ° 0 min 0,000 mm 0,0 UV-I 0 W/m² 12,5 °C 17,2 °C 3,2 km/h (1 Bft)
18.07.2018 22:06 17,3 °C 74 % 1013,4 hPa 0,0 mm 0,8 km/h (0 Bft) SO 141 ° 0 min 0,000 mm 0,0 UV-I 0 W/m² 12,6 °C 17,3 °C 1,6 km/h (1 Bft)
18.07.2018 22:07 17,2 °C 74 % 1013,4 hPa 0,0 mm 2,3 km/h (1 Bft) SO 141 ° 0 min 0,000 mm 0,0 UV-I 0 W/m² 12,5 °C 17,2 °C 3,2 km/h (1 Bft)
18.07.2018 22:08 17,2 °C 74 % 1013,4 hPa 0,0 mm 3,2 km/h (1 Bft) SO 141 ° 0 min 0,000 mm 0,0 UV-I 0 W/m² 12,5 °C 17,2 °C 4,8 km/h (1 Bft)
18.07.2018 22:09 17,3 °C 73 % 1013,4 hPa 0,0 mm 2,9 km/h (1 Bft) SO 141 ° 0 min 0,000 mm 0,0 UV-I 0 W/m² 12,4 °C 17,3 °C 4,8 km/h (1 Bft)
18.07.2018 22:10 17,3 °C 73 % 1013,4 hPa 0,0 mm 3,2 km/h (1 Bft) SO 141 ° 0 min 0,000 mm 0,0 UV-I 0 W/m² 12,4 °C 17,3 °C 4,8 km/h (1 Bft)
18.07.2018 22:11 17,3 °C 73 % 1013,4 hPa 0,0 mm 2,1 km/h (1 Bft) SO 141 ° 0 min 0,000 mm 0,0 UV-I 0 W/m² 12,4 °C 17,3 °C 4,8 km/h (1 Bft)
18.07.2018 22:12 17,3 °C 73 % 1013,4 hPa 0,0 mm 1,7 km/h (1 Bft) SO 141 ° 0 min 0,000 mm 0,0 UV-I 0 W/m² 12,4 °C 17,3 °C 3,2 km/h (1 Bft)
18.07.2018 22:13 17,2 °C 74 % 1013,4 hPa 0,0 mm 1,6 km/h (1 Bft) SO 141 ° 0 min 0,000 mm 0,0 UV-I 0 W/m² 12,5 °C 17,2 °C 4,8 km/h (1 Bft)
18.07.2018 22:14 17,3 °C 74 % 1013,4 hPa 0,0 mm 0,7 km/h (0 Bft) SO 141 ° 0 min 0,000 mm 0,0 UV-I 0 W/m² 12,6 °C 17,3 °C 1,6 km/h (1 Bft)
18.07.2018 22:15 17,2 °C 74 % 1013,4 hPa 0,0 mm 1,0 km/h (0 Bft) SO 141 ° 0 min 0,000 mm 0,0 UV-I 0 W/m² 12,5 °C 17,2 °C 3,2 km/h (1 Bft)
18.07.2018 22:16 17,2 °C 74 % 1013,4 hPa 0,0 mm 0,1 km/h (0 Bft) SO 141 ° 0 min 0,000 mm 0,0 UV-I 0 W/m² 12,5 °C 17,2 °C 1,6 km/h (1 Bft)
18.07.2018 22:17 17,2 °C 74 % 1013,4 hPa 0,0 mm 0,7 km/h (0 Bft) SO 141 ° 0 min 0,000 mm 0,0 UV-I 0 W/m² 12,5 °C 17,2 °C 3,2 km/h (1 Bft)
18.07.2018 22:18 17,2 °C 74 % 1013,4 hPa 0,0 mm 0,3 km/h (0 Bft) SO 141 ° 0 min 0,000 mm 0,0 UV-I 0 W/m² 12,5 °C 17,2 °C 1,6 km/h (1 Bft)
18.07.2018 22:19 17,2 °C 74 % 1013,4 hPa 0,0 mm 0,0 km/h (0 Bft) SO 141 ° 0 min 0,000 mm 0,0 UV-I 0 W/m² 12,5 °C 17,2 °C 0,0 km/h (0 Bft)
18.07.2018 22:20 17,1 °C 74 % 1013,5 hPa 0,0 mm 0,0 km/h (0 Bft) SO 141 ° 0 min 0,000 mm 0,0 UV-I 0 W/m² 12,4 °C 17,1 °C 0,0 km/h (0 Bft)
18.07.2018 22:21 17,1 °C 74 % 1013,4 hPa 0,0 mm 0,0 km/h (0 Bft) SO 141 ° 0 min 0,000 mm 0,0 UV-I 0 W/m² 12,4 °C 17,1 °C 0,0 km/h (0 Bft)
18.07.2018 22:22 17,0 °C 75 % 1013,4 hPa 0,0 mm 2,1 km/h (1 Bft) SO 141 ° 0 min 0,000 mm 0,0 UV-I 0 W/m² 12,5 °C 17,0 °C 3,2 km/h (1 Bft)
18.07.2018 22:23 16,9 °C 75 % 1013,4 hPa 0,0 mm 2,0 km/h (1 Bft) SO 141 ° 0 min 0,000 mm 0,0 UV-I 0 W/m² 12,4 °C 16,9 °C 3,2 km/h (1 Bft)
18.07.2018 22:24 16,9 °C 75 % 1013,4 hPa 0,0 mm 1,7 km/h (1 Bft) SO 141 ° 0 min 0,000 mm 0,0 UV-I 0 W/m² 12,4 °C 16,9 °C 3,2 km/h (1 Bft)
18.07.2018 22:25 16,8 °C 76 % 1013,5 hPa 0,0 mm 0,3 km/h (0 Bft) SO 141 ° 0 min 0,000 mm 0,0 UV-I 0 W/m² 12,5 °C 16,8 °C 1,6 km/h (1 Bft)
18.07.2018 22:26 16,8 °C 76 % 1013,4 hPa 0,0 mm 0,0 km/h (0 Bft) SO 141 ° 0 min 0,000 mm 0,0 UV-I 0 W/m² 12,5 °C 16,8 °C 0,0 km/h (0 Bft)
18.07.2018 22:27 16,8 °C 76 % 1013,5 hPa 0,0 mm 0,0 km/h (0 Bft) SO 141 ° 0 min 0,000 mm 0,0 UV-I 0 W/m² 12,5 °C 16,8 °C 0,0 km/h (0 Bft)
18.07.2018 22:28 16,7 °C 76 % 1013,5 hPa 0,0 mm 0,1 km/h (0 Bft) SO 141 ° 0 min 0,000 mm 0,0 UV-I 0 W/m² 12,4 °C 16,7 °C 1,6 km/h (1 Bft)
18.07.2018 22:29 16,7 °C 76 % 1013,5 hPa 0,0 mm 1,5 km/h (1 Bft) SO 141 ° 0 min 0,000 mm 0,0 UV-I 0 W/m² 12,4 °C 16,7 °C 4,8 km/h (1 Bft)
18.07.2018 22:30 16,7 °C 76 % 1013,5 hPa 0,0 mm 4,8 km/h (1 Bft) S 184 ° 0 min 0,000 mm 0,0 UV-I 0 W/m² 12,4 °C 16,7 °C 8,0 km/h (2 Bft)
18.07.2018 22:31 16,6 °C 77 % 1013,5 hPa 0,0 mm 5,5 km/h (1 Bft) S 186 ° 0 min 0,000 mm 0,0 UV-I 0 W/m² 12,5 °C 16,6 °C 8,0 km/h (2 Bft)
18.07.2018 22:32 16,5 °C 77 % 1013,4 hPa 0,0 mm 3,6 km/h (1 Bft) S 185 ° 0 min 0,000 mm 0,0 UV-I 0 W/m² 12,5 °C 16,5 °C 6,4 km/h (2 Bft)
18.07.2018 22:33 16,4 °C 77 % 1013,5 hPa 0,0 mm 4,7 km/h (1 Bft) S-SO 148 ° 0 min 0,000 mm 0,0 UV-I 0 W/m² 12,4 °C 16,4 °C 8,0 km/h (2 Bft)
18.07.2018 22:34 16,4 °C 77 % 1013,5 hPa 0,0 mm 2,8 km/h (1 Bft) S-SO 148 ° 0 min 0,000 mm 0,0 UV-I 0 W/m² 12,4 °C 16,4 °C 4,8 km/h (1 Bft)
18.07.2018 22:35 16,4 °C 77 % 1013,5 hPa 0,0 mm 1,7 km/h (1 Bft) S-SO 148 ° 0 min 0,000 mm 0,0 UV-I 0 W/m² 12,4 °C 16,4 °C 4,8 km/h (1 Bft)
18.07.2018 22:36 16,4 °C 77 % 1013,5 hPa 0,0 mm 2,4 km/h (1 Bft) S-SO 150 ° 0 min 0,000 mm 0,0 UV-I 0 W/m² 12,4 °C 16,4 °C 4,8 km/h (1 Bft)
18.07.2018 22:37 16,4 °C 77 % 1013,5 hPa 0,0 mm 2,4 km/h (1 Bft) S-SO 150 ° 0 min 0,000 mm 0,0 UV-I 0 W/m² 12,4 °C 16,4 °C 4,8 km/h (1 Bft)
18.07.2018 22:38 16,3 °C 77 % 1013,6 hPa 0,0 mm 1,7 km/h (1 Bft) S-SO 150 ° 0 min 0,000 mm 0,0 UV-I 0 W/m² 12,3 °C 16,3 °C 3,2 km/h (1 Bft)
18.07.2018 22:39 16,4 °C 77 % 1013,5 hPa 0,0 mm 0,3 km/h (0 Bft) S-SO 150 ° 0 min 0,000 mm 0,0 UV-I 0 W/m² 12,4 °C 16,4 °C 1,6 km/h (1 Bft)
18.07.2018 22:40 16,4 °C 77 % 1013,5 hPa 0,0 mm 0,0 km/h (0 Bft) S-SO 150 ° 0 min 0,000 mm 0,0 UV-I 0 W/m² 12,4 °C 16,4 °C 0,0 km/h (0 Bft)
18.07.2018 22:41 16,5 °C 77 % 1013,5 hPa 0,0 mm 0,0 km/h (0 Bft) S-SO 150 ° 0 min 0,000 mm 0,0 UV-I 0 W/m² 12,5 °C 16,5 °C 0,0 km/h (0 Bft)
18.07.2018 22:42 16,6 °C 77 % 1013,5 hPa 0,0 mm 0,0 km/h (0 Bft) S-SO 150 ° 0 min 0,000 mm 0,0 UV-I 0 W/m² 12,5 °C 16,6 °C 0,0 km/h (0 Bft)
18.07.2018 22:43 16,6 °C 77 % 1013,6 hPa 0,0 mm 0,0 km/h (0 Bft) S-SO 150 ° 0 min 0,000 mm 0,0 UV-I 0 W/m² 12,5 °C 16,6 °C 0,0 km/h (0 Bft)
18.07.2018 22:44 16,5 °C 77 % 1013,6 hPa 0,0 mm 0,0 km/h (0 Bft) S-SO 150 ° 0 min 0,000 mm 0,0 UV-I 0 W/m² 12,5 °C 16,5 °C 0,0 km/h (0 Bft)
18.07.2018 22:45 16,4 °C 77 % 1013,6 hPa 0,0 mm 0,0 km/h (0 Bft) S-SO 150 ° 0 min 0,000 mm 0,0 UV-I 0 W/m² 12,4 °C 16,4 °C 0,0 km/h (0 Bft)
18.07.2018 22:46 16,2 °C 77 % 1013,6 hPa 0,0 mm 0,0 km/h (0 Bft) S-SO 150 ° 0 min 0,000 mm 0,0 UV-I 0 W/m² 12,2 °C 16,2 °C 0,0 km/h (0 Bft)
18.07.2018 22:47 16,1 °C 78 % 1013,6 hPa 0,0 mm 1,0 km/h (0 Bft) S-SO 150 ° 0 min 0,000 mm 0,0 UV-I 0 W/m² 12,3 °C 16,1 °C 3,2 km/h (1 Bft)
18.07.2018 22:48 16,0 °C 78 % 1013,6 hPa 0,0 mm 2,1 km/h (1 Bft) S-SO 150 ° 0 min 0,000 mm 0,0 UV-I 0 W/m² 12,2 °C 16,0 °C 4,8 km/h (1 Bft)
18.07.2018 22:49 15,9 °C 78 % 1013,6 hPa 0,0 mm 2,5 km/h (1 Bft) S-SO 150 ° 0 min 0,000 mm 0,0 UV-I 0 W/m² 12,1 °C 15,9 °C 3,2 km/h (1 Bft)
18.07.2018 22:50 15,8 °C 79 % 1013,6 hPa 0,0 mm 1,7 km/h (1 Bft) S-SO 150 ° 0 min 0,000 mm 0,0 UV-I 0 W/m² 12,2 °C 15,8 °C 3,2 km/h (1 Bft)
18.07.2018 22:51 15,7 °C 80 % 1013,7 hPa 0,0 mm 1,6 km/h (1 Bft) S-SO 150 ° 0 min 0,000 mm 0,0 UV-I 0 W/m² 12,3 °C 15,7 °C 3,2 km/h (1 Bft)
18.07.2018 22:52 15,7 °C 80 % 1013,6 hPa 0,0 mm 0,5 km/h (0 Bft) S-SO 150 ° 0 min 0,000 mm 0,0 UV-I 0 W/m² 12,3 °C 15,7 °C 1,6 km/h (1 Bft)
18.07.2018 22:53 15,7 °C 80 % 1013,6 hPa 0,0 mm 0,0 km/h (0 Bft) S-SO 150 ° 0 min 0,000 mm 0,0 UV-I 0 W/m² 12,3 °C 15,7 °C 0,0 km/h (0 Bft)
18.07.2018 22:54 15,6 °C 80 % 1013,7 hPa 0,0 mm 0,9 km/h (0 Bft) S-SO 150 ° 0 min 0,000 mm 0,0 UV-I 0 W/m² 12,2 °C 15,6 °C 1,6 km/h (1 Bft)
18.07.2018 22:55 15,6 °C 80 % 1013,7 hPa 0,0 mm 1,0 km/h (0 Bft) S-SO 150 ° 0 min 0,000 mm 0,0 UV-I 0 W/m² 12,2 °C 15,6 °C 3,2 km/h (1 Bft)
18.07.2018 22:56 15,5 °C 80 % 1013,7 hPa 0,0 mm 0,2 km/h (0 Bft) S-SO 150 ° 0 min 0,000 mm 0,0 UV-I 0 W/m² 12,1 °C 15,5 °C 1,6 km/h (1 Bft)
18.07.2018 22:57 15,4 °C 81 % 1013,7 hPa 0,0 mm 2,0 km/h (1 Bft) S-SO 150 ° 0 min 0,000 mm 0,0 UV-I 0 W/m² 12,2 °C 15,4 °C 3,2 km/h (1 Bft)
18.07.2018 22:58 15,4 °C 81 % 1013,7 hPa 0,0 mm 2,5 km/h (1 Bft) S-SO 150 ° 0 min 0,000 mm 0,0 UV-I 0 W/m² 12,2 °C 15,4 °C 3,2 km/h (1 Bft)
18.07.2018 22:59 15,4 °C 81 % 1013,7 hPa 0,0 mm 1,9 km/h (1 Bft) S-SO 150 ° 0 min 0,000 mm 0,0 UV-I 0 W/m² 12,2 °C 15,4 °C 4,8 km/h (1 Bft)
18.07.2018 23:00 15,4 °C 81 % 1013,7 hPa 0,0 mm 1,0 km/h (0 Bft) S-SO 150 ° 0 min 0,000 mm 0,0 UV-I 0 W/m² 12,2 °C 15,4 °C 3,2 km/h (1 Bft)
18.07.2018 23:01 15,3 °C 80 % 1013,7 hPa 0,0 mm 0,4 km/h (0 Bft) S-SO 150 ° 0 min 0,025 mm 0,0 UV-I 0 W/m² 11,9 °C 15,3 °C 3,2 km/h (1 Bft)
18.07.2018 23:02 15,3 °C 81 % 1013,7 hPa 0,0 mm 0,0 km/h (0 Bft) S-SO 150 ° 0 min 0,000 mm 0,0 UV-I 0 W/m² 12,1 °C 15,3 °C 0,0 km/h (0 Bft)
18.07.2018 23:03 15,4 °C 81 % 1013,7 hPa 0,0 mm 0,8 km/h (0 Bft) S-SO 150 ° 0 min 0,000 mm 0,0 UV-I 0 W/m² 12,2 °C 15,4 °C 1,6 km/h (1 Bft)
18.07.2018 23:04 15,4 °C 81 % 1013,7 hPa 0,0 mm 0,0 km/h (0 Bft) S-SO 150 ° 0 min 0,000 mm 0,0 UV-I 0 W/m² 12,2 °C 15,4 °C 0,0 km/h (0 Bft)
18.07.2018 23:05 15,5 °C 81 % 1013,7 hPa 0,0 mm 0,0 km/h (0 Bft) S-SO 150 ° 0 min 0,000 mm 0,0 UV-I 0 W/m² 12,3 °C 15,5 °C 0,0 km/h (0 Bft)
18.07.2018 23:06 15,6 °C 82 % 1013,8 hPa 0,0 mm 0,0 km/h (0 Bft) S-SO 150 ° 0 min 0,000 mm 0,0 UV-I 0 W/m² 12,5 °C 15,6 °C 0,0 km/h (0 Bft)
18.07.2018 23:07 15,5 °C 81 % 1013,7 hPa 0,0 mm 0,0 km/h (0 Bft) S-SO 150 ° 0 min 0,000 mm 0,0 UV-I 0 W/m² 12,3 °C 15,5 °C 0,0 km/h (0 Bft)
18.07.2018 23:08 15,4 °C 80 % 1013,8 hPa 0,0 mm 0,0 km/h (0 Bft) S-SO 150 ° 0 min 0,000 mm 0,0 UV-I 0 W/m² 12,0 °C 15,4 °C 0,0 km/h (0 Bft)
18.07.2018 23:09 15,4 °C 81 % 1013,8 hPa 0,0 mm 0,1 km/h (0 Bft) S-SO 150 ° 0 min 0,000 mm 0,0 UV-I 0 W/m² 12,2 °C 15,4 °C 1,6 km/h (1 Bft)
18.07.2018 23:10 15,4 °C 81 % 1013,8 hPa 0,0 mm 0,0 km/h (0 Bft) S-SO 150 ° 0 min 0,000 mm 0,0 UV-I 0 W/m² 12,2 °C 15,4 °C 0,0 km/h (0 Bft)
18.07.2018 23:11 15,4 °C 81 % 1013,9 hPa 0,0 mm 0,0 km/h (0 Bft) S-SO 150 ° 0 min 0,000 mm 0,0 UV-I 0 W/m² 12,2 °C 15,4 °C 0,0 km/h (0 Bft)
18.07.2018 23:12 15,3 °C 80 % 1013,8 hPa 0,0 mm 0,0 km/h (0 Bft) S-SO 150 ° 0 min 0,000 mm 0,0 UV-I 0 W/m² 11,9 °C 15,3 °C 0,0 km/h (0 Bft)
18.07.2018 23:13 15,3 °C 81 % 1013,9 hPa 0,0 mm 0,0 km/h (0 Bft) S-SO 150 ° 0 min 0,000 mm 0,0 UV-I 0 W/m² 12,1 °C 15,3 °C 0,0 km/h (0 Bft)
18.07.2018 23:14 15,3 °C 81 % 1013,8 hPa 0,0 mm 0,0 km/h (0 Bft) S-SO 150 ° 0 min 0,000 mm 0,0 UV-I 0 W/m² 12,1 °C 15,3 °C 0,0 km/h (0 Bft)
18.07.2018 23:15 15,3 °C 81 % 1013,9 hPa 0,0 mm 0,0 km/h (0 Bft) S-SO 150 ° 0 min 0,000 mm 0,0 UV-I 0 W/m² 12,1 °C 15,3 °C 0,0 km/h (0 Bft)
18.07.2018 23:16 15,3 °C 81 % 1013,8 hPa 0,0 mm 0,0 km/h (0 Bft) S-SO 150 ° 0 min 0,000 mm 0,0 UV-I 0 W/m² 12,1 °C 15,3 °C 0,0 km/h (0 Bft)
18.07.2018 23:17 15,4 °C 82 % 1013,8 hPa 0,0 mm 0,0 km/h (0 Bft) S-SO 150 ° 0 min 0,000 mm 0,0 UV-I 0 W/m² 12,3 °C 15,4 °C 0,0 km/h (0 Bft)
18.07.2018 23:18 15,4 °C 82 % 1013,9 hPa 0,0 mm 0,1 km/h (0 Bft) S-SO 150 ° 0 min 0,000 mm 0,0 UV-I 0 W/m² 12,3 °C 15,4 °C 1,6 km/h (1 Bft)
18.07.2018 23:19 15,4 °C 81 % 1013,8 hPa 0,0 mm 0,0 km/h (0 Bft) S-SO 150 ° 0 min 0,000 mm 0,0 UV-I 0 W/m² 12,2 °C 15,4 °C 0,0 km/h (0 Bft)
18.07.2018 23:20 15,4 °C 81 % 1013,9 hPa 0,0 mm 0,0 km/h (0 Bft) S-SO 150 ° 0 min 0,000 mm 0,0 UV-I 0 W/m² 12,2 °C 15,4 °C 0,0 km/h (0 Bft)
18.07.2018 23:21 15,5 °C 80 % 1013,9 hPa 0,0 mm 0,0 km/h (0 Bft) S-SO 150 ° 0 min 0,000 mm 0,0 UV-I 0 W/m² 12,1 °C 15,5 °C 0,0 km/h (0 Bft)
18.07.2018 23:22 15,5 °C 81 % 1013,9 hPa 0,0 mm 0,2 km/h (0 Bft) S-SO 150 ° 0 min 0,000 mm 0,0 UV-I 0 W/m² 12,3 °C 15,5 °C 1,6 km/h (1 Bft)
18.07.2018 23:23 15,5 °C 81 % 1013,9 hPa 0,0 mm 0,0 km/h (0 Bft) S-SO 150 ° 0 min 0,000 mm 0,0 UV-I 0 W/m² 12,3 °C 15,5 °C 0,0 km/h (0 Bft)
18.07.2018 23:24 15,6 °C 81 % 1013,9 hPa 0,0 mm 0,0 km/h (0 Bft) S-SO 150 ° 0 min 0,000 mm 0,0 UV-I 0 W/m² 12,3 °C 15,6 °C 0,0 km/h (0 Bft)
18.07.2018 23:25 15,7 °C 80 % 1013,9 hPa 0,0 mm 0,0 km/h (0 Bft) S-SO 150 ° 0 min 0,000 mm 0,0 UV-I 0 W/m² 12,3 °C 15,7 °C 0,0 km/h (0 Bft)
18.07.2018 23:26 15,7 °C 80 % 1013,9 hPa 0,0 mm 0,0 km/h (0 Bft) S-SO 150 ° 0 min 0,000 mm 0,0 UV-I 0 W/m² 12,3 °C 15,7 °C 0,0 km/h (0 Bft)
18.07.2018 23:27 15,6 °C 80 % 1013,9 hPa 0,0 mm 0,0 km/h (0 Bft) S-SO 150 ° 0 min 0,000 mm 0,0 UV-I 0 W/m² 12,2 °C 15,6 °C 0,0 km/h (0 Bft)
18.07.2018 23:28 15,6 °C 80 % 1013,9 hPa 0,0 mm 0,0 km/h (0 Bft) S-SO 150 ° 0 min 0,000 mm 0,0 UV-I 0 W/m² 12,2 °C 15,6 °C 0,0 km/h (0 Bft)
18.07.2018 23:29 15,4 °C 81 % 1013,9 hPa 0,0 mm 0,0 km/h (0 Bft) S-SO 150 ° 0 min 0,000 mm 0,0 UV-I 0 W/m² 12,2 °C 15,4 °C 0,0 km/h (0 Bft)
18.07.2018 23:30 15,3 °C 81 % 1013,9 hPa 0,0 mm 0,0 km/h (0 Bft) S-SO 150 ° 0 min 0,000 mm 0,0 UV-I 0 W/m² 12,1 °C 15,3 °C 0,0 km/h (0 Bft)
18.07.2018 23:31 15,2 °C 82 % 1013,9 hPa 0,0 mm 0,0 km/h (0 Bft) S-SO 150 ° 0 min 0,000 mm 0,0 UV-I 0 W/m² 12,1 °C 15,2 °C 0,0 km/h (0 Bft)
18.07.2018 23:32 15,3 °C 82 % 1013,9 hPa 0,0 mm 0,0 km/h (0 Bft) S-SO 150 ° 0 min 0,000 mm 0,0 UV-I 0 W/m² 12,2 °C 15,3 °C 0,0 km/h (0 Bft)
18.07.2018 23:33 15,3 °C 82 % 1013,9 hPa 0,0 mm 0,0 km/h (0 Bft) S-SO 150 ° 0 min 0,000 mm 0,0 UV-I 0 W/m² 12,2 °C 15,3 °C 0,0 km/h (0 Bft)
18.07.2018 23:34 15,3 °C 82 % 1013,9 hPa 0,0 mm 0,0 km/h (0 Bft) S-SO 150 ° 0 min 0,000 mm 0,0 UV-I 0 W/m² 12,2 °C 15,3 °C 0,0 km/h (0 Bft)
18.07.2018 23:35 15,2 °C 81 % 1013,9 hPa 0,0 mm 0,0 km/h (0 Bft) S-SO 150 ° 0 min 0,000 mm 0,0 UV-I 0 W/m² 12,0 °C 15,2 °C 0,0 km/h (0 Bft)
18.07.2018 23:36 15,2 °C 82 % 1013,9 hPa 0,0 mm 0,0 km/h (0 Bft) S-SO 150 ° 0 min 0,000 mm 0,0 UV-I 0 W/m² 12,1 °C 15,2 °C 0,0 km/h (0 Bft)
18.07.2018 23:37 15,2 °C 82 % 1013,9 hPa 0,0 mm 0,0 km/h (0 Bft) S-SO 150 ° 0 min 0,000 mm 0,0 UV-I 0 W/m² 12,1 °C 15,2 °C 0,0 km/h (0 Bft)
18.07.2018 23:38 15,2 °C 82 % 1013,9 hPa 0,0 mm 0,0 km/h (0 Bft) S-SO 150 ° 0 min 0,000 mm 0,0 UV-I 0 W/m² 12,1 °C 15,2 °C 0,0 km/h (0 Bft)
18.07.2018 23:39 15,2 °C 82 % 1013,9 hPa 0,0 mm 0,0 km/h (0 Bft) S-SO 150 ° 0 min 0,000 mm 0,0 UV-I 0 W/m² 12,1 °C 15,2 °C 0,0 km/h (0 Bft)
18.07.2018 23:40 15,1 °C 82 % 1013,9 hPa 0,0 mm 0,0 km/h (0 Bft) S-SO 150 ° 0 min 0,000 mm 0,0 UV-I 0 W/m² 12,0 °C 15,1 °C 0,0 km/h (0 Bft)
18.07.2018 23:41 15,1 °C 82 % 1013,9 hPa 0,0 mm 0,8 km/h (0 Bft) S-SO 150 ° 0 min 0,000 mm 0,0 UV-I 0 W/m² 12,0 °C 15,1 °C 3,2 km/h (1 Bft)
18.07.2018 23:42 15,0 °C 82 % 1014,0 hPa 0,0 mm 1,2 km/h (1 Bft) S-SO 150 ° 0 min 0,000 mm 0,0 UV-I 0 W/m² 12,0 °C 15,0 °C 1,6 km/h (1 Bft)
18.07.2018 23:43 14,9 °C 82 % 1014,0 hPa 0,0 mm 0,3 km/h (0 Bft) S-SO 150 ° 0 min 0,000 mm 0,0 UV-I 0 W/m² 11,9 °C 14,9 °C 1,6 km/h (1 Bft)
18.07.2018 23:44 15,0 °C 82 % 1014,0 hPa 0,0 mm 0,0 km/h (0 Bft) S-SO 150 ° 0 min 0,000 mm 0,0 UV-I 0 W/m² 12,0 °C 15,0 °C 0,0 km/h (0 Bft)
18.07.2018 23:45 15,0 °C 82 % 1013,9 hPa 0,0 mm 0,0 km/h (0 Bft) S-SO 150 ° 0 min 0,000 mm 0,0 UV-I 0 W/m² 12,0 °C 15,0 °C 0,0 km/h (0 Bft)
18.07.2018 23:46 15,1 °C 82 % 1014,0 hPa 0,0 mm 0,0 km/h (0 Bft) S-SO 150 ° 0 min 0,000 mm 0,0 UV-I 0 W/m² 12,0 °C 15,1 °C 0,0 km/h (0 Bft)
18.07.2018 23:47 15,1 °C 81 % 1013,9 hPa 0,0 mm 0,0 km/h (0 Bft) S-SO 150 ° 0 min 0,000 mm 0,0 UV-I 0 W/m² 11,9 °C 15,1 °C 0,0 km/h (0 Bft)
18.07.2018 23:48 14,9 °C 82 % 1014,0 hPa 0,0 mm 0,0 km/h (0 Bft) S-SO 150 ° 0 min 0,000 mm 0,0 UV-I 0 W/m² 11,9 °C 14,9 °C 0,0 km/h (0 Bft)
18.07.2018 23:49 14,9 °C 82 % 1014,0 hPa 0,0 mm 0,0 km/h (0 Bft) S-SO 150 ° 0 min 0,000 mm 0,0 UV-I 0 W/m² 11,9 °C 14,9 °C 0,0 km/h (0 Bft)
18.07.2018 23:50 14,8 °C 83 % 1014,0 hPa 0,0 mm 0,0 km/h (0 Bft) S-SO 150 ° 0 min 0,000 mm 0,0 UV-I 0 W/m² 11,9 °C 14,8 °C 0,0 km/h (0 Bft)
18.07.2018 23:51 14,8 °C 83 % 1014,0 hPa 0,0 mm 0,0 km/h (0 Bft) S-SO 150 ° 0 min 0,000 mm 0,0 UV-I 0 W/m² 11,9 °C 14,8 °C 0,0 km/h (0 Bft)
18.07.2018 23:52 14,7 °C 83 % 1014,0 hPa 0,0 mm 0,0 km/h (0 Bft) S-SO 150 ° 0 min 0,000 mm 0,0 UV-I 0 W/m² 11,8 °C 14,7 °C 0,0 km/h (0 Bft)
18.07.2018 23:53 14,7 °C 83 % 1014,0 hPa 0,0 mm 0,0 km/h (0 Bft) S-SO 150 ° 0 min 0,000 mm 0,0 UV-I 0 W/m² 11,8 °C 14,7 °C 0,0 km/h (0 Bft)
18.07.2018 23:54 14,6 °C 83 % 1014,0 hPa 0,0 mm 0,0 km/h (0 Bft) S-SO 150 ° 0 min 0,000 mm 0,0 UV-I 0 W/m² 11,7 °C 14,6 °C 0,0 km/h (0 Bft)
18.07.2018 23:55 14,6 °C 84 % 1014,0 hPa 0,0 mm 0,0 km/h (0 Bft) S-SO 150 ° 0 min 0,000 mm 0,0 UV-I 0 W/m² 11,9 °C 14,6 °C 0,0 km/h (0 Bft)
18.07.2018 23:56 14,6 °C 83 % 1014,0 hPa 0,0 mm 0,9 km/h (0 Bft) S-SO 150 ° 0 min 0,000 mm 0,0 UV-I 0 W/m² 11,7 °C 14,6 °C 1,6 km/h (1 Bft)
18.07.2018 23:57 14,6 °C 83 % 1014,0 hPa 0,0 mm 0,0 km/h (0 Bft) S-SO 150 ° 0 min 0,000 mm 0,0 UV-I 0 W/m² 11,7 °C 14,6 °C 0,0 km/h (0 Bft)
18.07.2018 23:58 14,4 °C 83 % 1014,0 hPa 0,0 mm 0,0 km/h (0 Bft) S-SO 150 ° 0 min 0,000 mm 0,0 UV-I 0 W/m² 11,5 °C 14,4 °C 0,0 km/h (0 Bft)
18.07.2018 23:59 14,4 °C 84 % 1014,0 hPa 0,0 mm 0,0 km/h (0 Bft) S-SO 150 ° 0 min 0,000 mm 0,0 UV-I 0 W/m² 11,7 °C 14,4 °C 0,0 km/h (0 Bft)
_ Min-Zeit 00:54 18:37 20:08 - 23:59 - - - - - - 18:37 00:54 23:59
Minimum _ 12,8 °C 41 % 1012,6 hPa - 0,0 km/h (0 Bft) - - - - - - 10,6 °C 12,8 °C 0,0 km/h (0 Bft)
_ Max-Zeit 15:29 06:45 08:24 23:59 15:40 - - 16:16 15:01 13:30 13:27 09:00 15:29 16:18
Maximum _ 25,2 °C 89 % 1015,9 hPa 0,0 mm 12,7 km/h
N-NO (3 Bft)
- - 1 min 0,584 mm 7,4 UV-I 1013 W/m² 15,7 °C 25,2 °C 17,7 km/h
NW (3 Bft)
Durchschnitt _ 19,5 °C 67 % 1014,5 hPa #0,0 mm 2,4 km/h (1 Bft) NW - #6:06 h #4,216 mm 3,9 UV-I 258 W/m² 12,7 °C 19,5 °C 4,4 km/h (1 Bft)